[[{"header":{"parameterUnit":"m.s-1","parameterCategory":1,"la1":31.0,"la2":29.5877,"lo1":-88.7671,"lo2":-86.6584,"dx":0.0162,"dy":0.0185,"nx":115,"ny":88,"refTime":"2023-01-17T18:00:00:Z","depth":0,"parameterNumber":2,"parameterNumberName":"U-component_of_WINDS"},"data":[0.0,0.0,0.0,0.0,0.0,0.0,0.0,0.0,0.0,0.0,0.0,0.0,0.0,0.0,0.0,0.0,0.0,0.0,0.0,0.0,0.0,0.0,0.0,0.0,0.0,0.0,0.0,0.0,0.0,0.0,0.0,0.0,0.0,0.0,0.0,0.0,0.0,0.0,0.0,0.0,0.0,0.0,0.0,0.0,0.0,0.0,0.0,0.0,0.0,0.0,0.0,0.0,0.0,0.0,0.0,0.0,0.0,0.0,0.0,0.0,0.0,0.0,0.0,0.0,0.0,0.0,0.0,0.0,0.0,0.0,0.0,0.0,0.0,0.0,0.0,0.0,0.0,0.0,0.0,0.0,0.0,0.0,0.0,0.0,0.0,0.0,0.0,0.0,0.0,0.0,0.0,0.0,0.0,0.0,0.0,0.0,0.0,0.0,0.0,0.0,0.0,0.0,0.0,0.0,0.0,0.0,0.0,0.0,0.0,0.0,0.0,0.0,0.0,0.0,0.0,0.0,0.0,0.0,0.0,0.0,0.0,0.0,0.0,0.0,0.0,0.0,0.0,0.0,0.0,0.0,0.0,0.0,0.0,0.0,0.0,0.0,0.0,0.0,0.0,0.0,0.0,0.0,0.0,0.0,0.0,0.0,0.0,0.0,0.0,0.0,0.0,0.0,0.0,0.0,0.0,0.0,0.0,0.0,0.0,0.0,0.0,0.0,0.0,0.0,0.0,0.0,0.0,0.0,0.0,0.0,0.0,0.0,0.0,0.0,0.0,0.0,0.0,0.0,0.0,0.0,0.0,0.0,0.0,0.0,0.0,0.0,0.0,0.0,0.0,0.0,0.0,0.0,0.0,0.0,0.0,0.0,0.0,0.0,0.0,0.0,0.0,0.0,0.0,0.0,0.0,0.0,0.0,0.0,0.0,0.0,0.0,0.0,0.0,0.0,0.0,0.0,0.0,0.0,0.0,0.0,0.0,0.0,0.0,0.0,0.0,0.0,0.0,0.0,0.0,0.0,0.0,0.0,0.0,0.0,0.0,0.0,0.0,0.0,0.0,0.0,0.0,0.0,0.0,0.0,0.0,0.0,0.0,0.0,0.0,0.0,0.0,0.0,0.0,0.0,0.0,0.0,0.0,0.0,0.0,0.0,0.0,0.0,0.0,0.0,0.0,0.0,0.0,0.0,0.0,0.0,0.0,0.0,0.0,0.0,0.0,0.0,0.0,0.0,0.0,0.0,0.0,0.0,0.0,0.0,0.0,0.0,0.0,0.0,0.0,0.0,0.0,0.0,0.0,0.0,0.0,0.0,0.0,0.0,0.0,0.0,0.0,0.0,0.0,0.0,0.0,0.0,0.0,0.0,0.0,0.0,0.0,0.0,0.0,0.0,0.0,0.0,0.0,0.0,0.0,0.0,0.0,0.0,0.0,0.0,0.0,0.0,0.0,0.0,0.0,0.0,0.0,0.0,0.0,0.0,0.0,0.0,0.0,0.0,0.0,0.0,0.0,0.0,0.0,0.0,0.0,0.0,0.0,0.0,0.0,0.0,0.0,0.0,0.0,0.0,0.0,0.0,0.0,0.0,0.0,0.0,0.0,0.0,0.0,0.0,0.0,0.0,0.0,0.0,0.0,0.0,0.0,0.0,0.0,0.0,0.0,0.0,0.0,0.0,0.0,0.0,0.0,0.0,0.0,0.0,0.0,0.0,0.0,0.0,0.0,0.0,0.0,0.0,0.0,0.0,0.0,0.0,0.0,0.0,0.0,0.0,0.0,0.0,0.0,0.0,0.0,0.0,0.0,0.0,0.0,0.0,0.0,0.0,0.0,0.0,0.0,0.0,0.0,0.0,0.0,0.0,0.0,0.0,0.0,0.0,0.0,0.0,0.0,0.0,0.0,0.0,0.0,0.0,0.0,0.0,0.0,0.0,0.0,0.0,0.0,0.0,0.0,0.0,0.0,0.0,0.0,0.0,0.0,0.0,0.0,0.0,0.0,0.0,0.0,0.0,0.0,0.0,0.0,0.0,0.0,0.0,0.0,0.0,0.0,0.0,0.0,0.0,0.0,0.0,0.0,0.0,0.0,0.0,0.0,0.0,0.0,0.0,0.0,0.0,0.0,0.0,0.0,0.0,0.0,0.0,0.0,0.0,0.0,0.0,0.0,0.0,0.0,0.0,0.0,0.0,0.0,0.0,0.0,0.0,0.0,0.0,0.0,0.0,0.0,0.0,0.0,0.0,0.0,0.0,0.0,0.0,0.0,0.0,0.0,0.0,0.0,0.0,0.0,0.0,0.0,0.0,0.0,0.0,0.0,0.0,0.0,0.0,0.0,0.0,0.0,0.0,0.0,0.0,0.0,0.0,0.0,0.0,0.0,0.0,0.0,0.0,0.0,0.0,0.0,0.0,0.0,0.0,0.0,0.0,0.0,0.0,0.0,0.0,0.0,0.0,0.0,0.0,0.0,0.0,0.0,0.0,0.0,0.0,0.0,0.0,0.0,0.0,0.0,0.0,0.0,0.0,0.0,0.0,0.0,0.0,0.0,0.0,0.0,0.0,0.0,0.0,0.0,0.0,0.0,0.0,0.0,0.0,0.0,0.0,0.0,0.0,0.0,0.0,0.0,0.0,0.0,0.0,0.0,0.0,0.0,0.0,0.0,0.0,0.0,0.0,0.0,0.0,0.0,0.0,0.0,0.0,0.0,0.0,0.0,0.0,0.0,0.0,0.0,0.0,0.0,0.0,0.0,0.0,0.0,0.0,0.0,0.0,0.0,0.0,0.0,0.0,0.0,0.0,0.0,0.0,0.0,0.0,0.0,0.0,0.0,0.0,0.0,0.0,0.0,0.0,0.0,0.0,0.0,0.0,0.0,0.0,0.0,0.0,0.0,0.0,0.0,0.0,0.0,0.0,0.0,0.0,0.0,0.0,0.0,0.0,0.0,0.0,0.0,0.0,0.0,0.0,0.0,0.0,0.0,0.0,0.0,0.0,0.0,0.0,0.0,0.0,0.0,0.0,0.0,0.0,0.0,0.0,0.0,0.0,0.0,0.0,0.0,0.0,0.0,0.0,0.0,0.0,0.0,0.0,0.0,0.0,0.0,0.0,0.0,0.0,0.0,0.0,0.0,0.0,0.0,0.0,0.0,0.0,0.0,0.0,0.0,0.0,0.0,0.0,0.0,0.0,0.0,0.0,0.0,0.0,0.0,0.0,0.0,0.0,0.0,0.0,0.0,0.0,0.0,0.0,0.0,0.0,0.0,0.0,0.0,0.0,0.0,0.0,0.0,0.0,0.0,0.0,0.0,0.0,0.0,0.0,0.0,0.0,0.0,0.0,0.0,0.0,0.0,0.0,0.0,0.0,0.0,0.0,0.0,0.0,0.0,0.0,0.0,0.0,0.0,0.0,0.0,0.0,0.0,0.0,0.0,0.0,0.0,0.0,0.0,0.0,0.0,0.0,0.0,0.0,0.0,0.0,0.0,0.0,0.0,0.0,0.0,0.0,0.0,0.0,0.0,0.0,0.0,0.0,0.0,0.0,0.0,0.0,0.0,0.0,0.0,0.0,0.0,0.0,0.0,0.0,0.0,0.0,0.0,0.0,0.0,0.0,0.0,0.0,0.0,0.0,0.0,0.0,0.0,0.0,0.0,0.0,0.0,0.0,0.0,0.0,0.0,0.0,0.0,0.0,0.0,0.0,0.0,0.0,0.0,0.0,0.0,0.0,0.0,0.0,0.0,0.0,0.0,0.0,0.0,0.0,0.0,0.0,0.0,0.0,0.0,0.0,0.0,0.0,0.0,0.0,0.0,0.0,0.0,0.0,0.0,0.0,0.0,0.0,0.0,0.0,0.0,0.0,0.0,0.0,0.0,0.0,0.0,0.0,0.0,0.0,0.0,0.0,0.0,0.0,0.0,0.0,0.0,0.0,0.0,0.0,0.0,0.0,0.0,0.0,0.0,0.0,0.0,0.0,0.0,0.0,0.0,0.0,0.0,0.0,0.0,0.0,0.0,0.0,0.0,0.0,0.0,0.0,0.0,0.0,0.0,0.0,0.0,0.0,0.0,0.0,0.0,0.0,0.0,0.0,0.0,0.0,0.0,0.0,0.0,0.0,0.0,0.0,0.0,0.0,0.0,0.0,0.0,0.0,0.0,0.0,0.0,0.0,0.0,0.0,0.0,0.0,0.0,0.0,0.0,0.0,0.0,0.0,0.0,0.0,0.0,0.0,0.0,0.0,0.0,0.0,0.0,0.0,0.0,0.0,0.0,0.0,-6.3647,0.0,0.0,0.0,0.0,0.0,0.0,0.0,0.0,0.0,0.0,0.0,0.0,0.0,0.0,0.0,0.0,0.0,0.0,0.0,0.0,0.0,0.0,0.0,0.0,0.0,0.0,0.0,0.0,0.0,0.0,0.0,0.0,0.0,0.0,0.0,0.0,0.0,0.0,0.0,0.0,0.0,0.0,0.0,0.0,0.0,0.0,0.0,0.0,0.0,0.0,0.0,0.0,0.0,0.0,0.0,0.0,0.0,0.0,0.0,0.0,0.0,0.0,0.0,0.0,0.0,0.0,0.0,0.0,0.0,0.0,0.0,0.0,0.0,0.0,0.0,0.0,0.0,0.0,0.0,0.0,0.0,0.0,0.0,0.0,0.0,0.0,0.0,0.0,0.0,0.0,0.0,0.0,0.0,0.0,0.0,0.0,0.0,0.0,0.0,0.0,0.0,0.0,0.0,0.0,0.0,0.0,0.0,0.0,0.0,0.0,-6.5232,-6.4814,-6.5554,-6.5589,-6.4776,0.0,0.0,0.0,0.0,0.0,0.0,0.0,0.0,0.0,0.0,0.0,0.0,0.0,0.0,0.0,0.0,0.0,0.0,0.0,0.0,0.0,0.0,0.0,0.0,0.0,0.0,0.0,0.0,0.0,0.0,0.0,0.0,0.0,0.0,0.0,0.0,0.0,0.0,0.0,0.0,0.0,0.0,0.0,0.0,0.0,0.0,0.0,0.0,0.0,0.0,0.0,0.0,0.0,0.0,0.0,0.0,0.0,0.0,0.0,0.0,0.0,0.0,0.0,0.0,0.0,0.0,0.0,0.0,0.0,0.0,0.0,0.0,0.0,0.0,0.0,0.0,0.0,0.0,0.0,0.0,0.0,0.0,0.0,0.0,0.0,0.0,0.0,0.0,0.0,0.0,0.0,0.0,0.0,0.0,0.0,0.0,0.0,0.0,0.0,0.0,0.0,0.0,0.0,0.0,0.0,0.0,0.0,0.0,0.0,0.0,0.0,0.0,-6.6457,-6.6669,-6.634,0.0,0.0,0.0,0.0,0.0,0.0,0.0,0.0,0.0,0.0,0.0,0.0,0.0,0.0,0.0,0.0,0.0,0.0,0.0,0.0,0.0,0.0,0.0,0.0,0.0,0.0,0.0,0.0,0.0,0.0,0.0,0.0,0.0,0.0,0.0,0.0,0.0,0.0,0.0,0.0,0.0,0.0,0.0,0.0,0.0,0.0,0.0,0.0,0.0,0.0,0.0,0.0,0.0,0.0,0.0,0.0,0.0,0.0,0.0,0.0,0.0,0.0,0.0,0.0,0.0,0.0,0.0,0.0,0.0,0.0,0.0,0.0,0.0,0.0,0.0,0.0,0.0,0.0,0.0,0.0,0.0,0.0,0.0,0.0,0.0,0.0,0.0,0.0,0.0,0.0,0.0,0.0,0.0,0.0,0.0,0.0,0.0,0.0,0.0,0.0,0.0,0.0,0.0,0.0,0.0,0.0,0.0,0.0,0.0,0.0,-6.6483,-6.5182,-6.6188,0.0,-6.8015,0.0,0.0,0.0,0.0,0.0,0.0,0.0,0.0,0.0,0.0,0.0,0.0,0.0,0.0,0.0,0.0,0.0,0.0,0.0,0.0,0.0,0.0,0.0,0.0,0.0,0.0,0.0,0.0,0.0,0.0,0.0,0.0,0.0,0.0,0.0,0.0,0.0,0.0,0.0,0.0,0.0,0.0,0.0,0.0,0.0,0.0,0.0,0.0,0.0,0.0,0.0,0.0,0.0,0.0,0.0,0.0,0.0,0.0,0.0,0.0,0.0,0.0,0.0,0.0,0.0,0.0,0.0,0.0,0.0,0.0,0.0,0.0,0.0,0.0,0.0,0.0,0.0,0.0,0.0,0.0,0.0,0.0,0.0,0.0,0.0,0.0,0.0,0.0,0.0,0.0,0.0,0.0,0.0,0.0,0.0,0.0,0.0,0.0,0.0,0.0,0.0,0.0,0.0,0.0,0.0,0.0,0.0,0.0,0.0,0.0,-6.5375,-6.5617,-6.5994,-6.6666,0.0,0.0,0.0,0.0,0.0,0.0,0.0,0.0,0.0,0.0,0.0,0.0,0.0,0.0,0.0,0.0,0.0,0.0,0.0,0.0,0.0,0.0,0.0,0.0,0.0,0.0,0.0,0.0,0.0,0.0,0.0,0.0,0.0,0.0,0.0,0.0,0.0,0.0,0.0,0.0,0.0,0.0,0.0,0.0,0.0,0.0,0.0,0.0,0.0,0.0,0.0,0.0,0.0,0.0,0.0,0.0,0.0,0.0,0.0,0.0,0.0,0.0,0.0,0.0,0.0,0.0,0.0,0.0,0.0,0.0,0.0,0.0,0.0,0.0,0.0,0.0,0.0,0.0,0.0,0.0,0.0,0.0,0.0,0.0,0.0,0.0,0.0,0.0,0.0,0.0,0.0,0.0,0.0,0.0,0.0,0.0,0.0,0.0,0.0,0.0,0.0,0.0,0.0,0.0,0.0,0.0,0.0,0.0,0.0,0.0,-6.4908,-6.4939,-6.5621,-6.5901,-6.6378,-6.7135,0.0,0.0,0.0,0.0,0.0,0.0,0.0,0.0,0.0,0.0,0.0,0.0,0.0,0.0,0.0,0.0,0.0,0.0,0.0,0.0,0.0,0.0,0.0,0.0,0.0,0.0,0.0,0.0,0.0,0.0,0.0,0.0,0.0,0.0,0.0,0.0,0.0,0.0,0.0,0.0,0.0,0.0,0.0,0.0,0.0,0.0,0.0,0.0,0.0,0.0,0.0,0.0,0.0,0.0,0.0,0.0,0.0,0.0,0.0,0.0,0.0,0.0,0.0,0.0,0.0,0.0,0.0,0.0,0.0,0.0,0.0,0.0,0.0,0.0,0.0,0.0,0.0,0.0,0.0,0.0,0.0,0.0,0.0,0.0,0.0,0.0,0.0,0.0,0.0,0.0,0.0,0.0,0.0,0.0,0.0,0.0,0.0,0.0,0.0,0.0,0.0,0.0,0.0,0.0,0.0,0.0,0.0,0.0,0.0,-6.6133,-6.5746,-6.4735,-6.5993,-6.6647,0.0,0.0,0.0,0.0,0.0,0.0,0.0,0.0,0.0,0.0,0.0,0.0,0.0,0.0,0.0,0.0,0.0,0.0,0.0,0.0,0.0,0.0,0.0,0.0,0.0,0.0,0.0,0.0,0.0,0.0,0.0,0.0,0.0,0.0,0.0,0.0,0.0,0.0,0.0,0.0,0.0,0.0,0.0,0.0,0.0,0.0,0.0,0.0,0.0,0.0,0.0,0.0,0.0,0.0,0.0,0.0,0.0,0.0,0.0,0.0,0.0,0.0,0.0,0.0,0.0,0.0,0.0,0.0,0.0,0.0,0.0,0.0,0.0,0.0,0.0,0.0,0.0,0.0,0.0,0.0,0.0,0.0,0.0,0.0,0.0,0.0,0.0,0.0,0.0,0.0,0.0,0.0,0.0,0.0,0.0,0.0,0.0,0.0,0.0,0.0,0.0,0.0,0.0,0.0,0.0,0.0,0.0,0.0,0.0,-6.5013,-6.3946,-6.3108,-6.2587,-6.3896,-6.5024,0.0,0.0,0.0,0.0,0.0,0.0,0.0,0.0,0.0,0.0,0.0,0.0,0.0,0.0,0.0,0.0,0.0,0.0,0.0,0.0,0.0,0.0,0.0,0.0,0.0,0.0,0.0,0.0,0.0,0.0,0.0,0.0,0.0,0.0,0.0,0.0,0.0,0.0,0.0,0.0,0.0,0.0,0.0,0.0,0.0,0.0,0.0,0.0,0.0,0.0,0.0,0.0,0.0,0.0,0.0,0.0,0.0,0.0,0.0,0.0,0.0,0.0,0.0,0.0,0.0,0.0,0.0,0.0,0.0,0.0,0.0,0.0,0.0,0.0,0.0,0.0,0.0,0.0,0.0,0.0,0.0,0.0,0.0,0.0,0.0,0.0,0.0,0.0,0.0,0.0,0.0,0.0,0.0,0.0,0.0,0.0,0.0,0.0,0.0,0.0,0.0,0.0,0.0,0.0,0.0,0.0,0.0,0.0,0.0,-6.343,0.0,-6.1394,0.0,-6.2575,-6.396,0.0,0.0,0.0,0.0,0.0,0.0,0.0,0.0,0.0,0.0,0.0,0.0,0.0,0.0,0.0,0.0,0.0,0.0,0.0,0.0,0.0,0.0,0.0,0.0,0.0,0.0,0.0,0.0,0.0,0.0,0.0,0.0,0.0,0.0,0.0,0.0,0.0,0.0,0.0,0.0,0.0,0.0,0.0,0.0,0.0,0.0,0.0,0.0,0.0,0.0,0.0,0.0,0.0,0.0,0.0,0.0,0.0,0.0,0.0,0.0,0.0,0.0,0.0,0.0,0.0,0.0,0.0,0.0,0.0,0.0,0.0,0.0,0.0,0.0,0.0,0.0,0.0,0.0,0.0,0.0,0.0,0.0,0.0,0.0,0.0,0.0,0.0,0.0,0.0,0.0,0.0,0.0,0.0,0.0,0.0,0.0,0.0,0.0,0.0,0.0,0.0,0.0,0.0,0.0,0.0,0.0,0.0,0.0,-6.4159,-6.1535,-6.1518,-6.0906,-5.9678,-6.2003,-6.3575,0.0,0.0,0.0,0.0,0.0,0.0,0.0,0.0,0.0,0.0,0.0,0.0,0.0,0.0,0.0,0.0,0.0,0.0,0.0,0.0,0.0,0.0,0.0,0.0,0.0,0.0,0.0,0.0,0.0,0.0,0.0,0.0,0.0,0.0,0.0,0.0,0.0,0.0,0.0,0.0,0.0,0.0,0.0,0.0,0.0,0.0,0.0,0.0,0.0,0.0,0.0,0.0,0.0,0.0,0.0,0.0,0.0,0.0,0.0,0.0,0.0,0.0,0.0,0.0,0.0,0.0,0.0,0.0,0.0,0.0,0.0,0.0,0.0,0.0,0.0,0.0,0.0,0.0,0.0,0.0,0.0,0.0,0.0,0.0,0.0,0.0,0.0,0.0,0.0,0.0,0.0,0.0,0.0,0.0,0.0,0.0,0.0,0.0,0.0,0.0,0.0,0.0,0.0,0.0,0.0,0.0,0.0,0.0,0.0,-5.9696,-5.9205,-5.8613,-5.7863,-5.9811,-6.1219,0.0,0.0,0.0,0.0,0.0,0.0,0.0,0.0,0.0,0.0,0.0,0.0,0.0,0.0,0.0,0.0,0.0,0.0,0.0,0.0,0.0,0.0,0.0,0.0,0.0,0.0,0.0,0.0,0.0,0.0,0.0,0.0,0.0,0.0,0.0,0.0,0.0,0.0,0.0,0.0,0.0,0.0,0.0,0.0,0.0,0.0,0.0,0.0,0.0,0.0,0.0,0.0,0.0,0.0,0.0,0.0,0.0,0.0,0.0,0.0,0.0,0.0,0.0,0.0,0.0,0.0,0.0,0.0,0.0,0.0,0.0,0.0,0.0,0.0,0.0,0.0,0.0,0.0,0.0,0.0,0.0,0.0,0.0,0.0,0.0,0.0,0.0,0.0,0.0,0.0,0.0,0.0,0.0,0.0,0.0,0.0,0.0,0.0,0.0,0.0,0.0,0.0,0.0,0.0,0.0,0.0,0.0,0.0,0.0,-5.9267,-5.8771,-5.8277,-5.7631,-5.9911,-6.1273,-6.1466,0.0,0.0,0.0,0.0,0.0,0.0,0.0,0.0,0.0,0.0,0.0,0.0,0.0,0.0,0.0,0.0,0.0,0.0,0.0,0.0,0.0,0.0,0.0,0.0,0.0,0.0,0.0,0.0,0.0,0.0,0.0,0.0,0.0,0.0,0.0,0.0,0.0,0.0,0.0,0.0,0.0,0.0,0.0,0.0,0.0,0.0,0.0,0.0,0.0,0.0,0.0,0.0,0.0,0.0,0.0,0.0,0.0,0.0,0.0,0.0,0.0,0.0,0.0,0.0,0.0,0.0,0.0,0.0,0.0,0.0,0.0,0.0,0.0,0.0,0.0,0.0,0.0,0.0,0.0,0.0,0.0,0.0,0.0,0.0,0.0,0.0,0.0,0.0,0.0,0.0,0.0,0.0,0.0,0.0,0.0,0.0,0.0,0.0,0.0,0.0,0.0,0.0,0.0,0.0,0.0,0.0,0.0,0.0,-6.0066,-6.019,-5.9901,-5.9192,-6.1891,-6.3088,0.0,0.0,0.0,0.0,0.0,0.0,0.0,0.0,0.0,0.0,0.0,0.0,0.0,0.0,0.0,0.0,0.0,0.0,0.0,0.0,0.0,0.0,0.0,0.0,0.0,0.0,0.0,0.0,0.0,0.0,0.0,0.0,0.0,0.0,0.0,0.0,0.0,0.0,0.0,0.0,0.0,0.0,0.0,0.0,0.0,0.0,0.0,0.0,0.0,0.0,0.0,0.0,0.0,0.0,0.0,0.0,0.0,0.0,0.0,0.0,0.0,0.0,0.0,0.0,0.0,0.0,0.0,0.0,0.0,0.0,0.0,0.0,0.0,0.0,0.0,0.0,0.0,0.0,0.0,0.0,0.0,0.0,0.0,0.0,0.0,0.0,0.0,0.0,0.0,0.0,0.0,0.0,0.0,0.0,0.0,0.0,0.0,0.0,0.0,0.0,0.0,0.0,0.0,0.0,0.0,0.0,0.0,0.0,0.0,-6.2326,-6.3779,-6.3592,-6.1587,-6.2329,-6.2769,0.0,0.0,0.0,0.0,0.0,0.0,0.0,0.0,0.0,0.0,0.0,0.0,0.0,0.0,0.0,0.0,0.0,0.0,0.0,0.0,0.0,0.0,0.0,0.0,0.0,0.0,0.0,0.0,0.0,0.0,0.0,0.0,0.0,0.0,0.0,0.0,0.0,0.0,0.0,0.0,0.0,0.0,0.0,0.0,0.0,0.0,0.0,0.0,0.0,0.0,0.0,0.0,0.0,0.0,0.0,0.0,0.0,0.0,0.0,0.0,0.0,0.0,0.0,0.0,0.0,0.0,0.0,0.0,0.0,0.0,0.0,0.0,0.0,0.0,0.0,0.0,0.0,0.0,0.0,0.0,0.0,0.0,0.0,0.0,0.0,0.0,0.0,0.0,0.0,0.0,0.0,0.0,0.0,0.0,0.0,0.0,0.0,0.0,0.0,0.0,0.0,0.0,0.0,0.0,0.0,0.0,0.0,0.0,-6.2104,-6.415,-6.6654,-6.7658,-6.7083,-6.5288,-6.4146,0.0,0.0,0.0,0.0,0.0,0.0,0.0,0.0,0.0,0.0,0.0,0.0,0.0,0.0,0.0,0.0,0.0,0.0,0.0,0.0,0.0,0.0,0.0,0.0,0.0,0.0,0.0,0.0,0.0,0.0,0.0,0.0,0.0,0.0,0.0,0.0,0.0,0.0,0.0,0.0,0.0,0.0,0.0,0.0,0.0,0.0,0.0,0.0,0.0,0.0,0.0,0.0,0.0,0.0,0.0,0.0,0.0,0.0,0.0,0.0,0.0,0.0,0.0,0.0,0.0,0.0,0.0,0.0,0.0,0.0,0.0,0.0,0.0,0.0,0.0,0.0,0.0,0.0,0.0,0.0,0.0,0.0,0.0,0.0,0.0,0.0,0.0,0.0,0.0,0.0,0.0,0.0,0.0,0.0,0.0,0.0,0.0,0.0,0.0,0.0,0.0,0.0,0.0,0.0,0.0,0.0,0.0,0.0,-6.255,-6.5672,-6.8863,-7.1531,-7.3485,-6.9603,-6.6624,0.0,0.0,0.0,0.0,0.0,0.0,0.0,0.0,0.0,0.0,0.0,0.0,0.0,0.0,0.0,0.0,0.0,0.0,0.0,0.0,0.0,0.0,0.0,0.0,0.0,0.0,0.0,0.0,0.0,0.0,0.0,0.0,0.0,0.0,0.0,0.0,0.0,0.0,0.0,0.0,0.0,0.0,0.0,0.0,0.0,0.0,0.0,0.0,0.0,0.0,0.0,0.0,0.0,0.0,0.0,0.0,0.0,0.0,0.0,0.0,0.0,0.0,0.0,0.0,0.0,0.0,0.0,0.0,0.0,0.0,0.0,0.0,0.0,0.0,0.0,0.0,0.0,0.0,0.0,0.0,0.0,0.0,0.0,0.0,0.0,0.0,0.0,0.0,0.0,0.0,0.0,0.0,0.0,0.0,0.0,0.0,0.0,0.0,0.0,0.0,0.0,0.0,0.0,0.0,0.0,0.0,0.0,0.0,-6.3021,-6.7071,-7.0285,-7.3027,-7.5155,-7.1721,-6.9138,0.0,0.0,0.0,0.0,0.0,0.0,0.0,0.0,0.0,0.0,0.0,0.0,0.0,0.0,0.0,0.0,0.0,0.0,0.0,0.0,0.0,0.0,0.0,0.0,0.0,0.0,0.0,0.0,0.0,0.0,0.0,0.0,0.0,0.0,0.0,0.0,0.0,0.0,0.0,0.0,0.0,0.0,0.0,0.0,0.0,0.0,0.0,0.0,-6.0139,0.0,0.0,0.0,0.0,0.0,0.0,0.0,0.0,0.0,0.0,0.0,0.0,0.0,0.0,0.0,0.0,0.0,0.0,0.0,0.0,0.0,0.0,0.0,0.0,0.0,0.0,0.0,0.0,0.0,0.0,0.0,0.0,0.0,0.0,0.0,0.0,0.0,0.0,0.0,0.0,0.0,0.0,0.0,0.0,0.0,0.0,0.0,0.0,0.0,0.0,0.0,0.0,0.0,0.0,0.0,0.0,0.0,0.0,0.0,-6.2858,-6.8435,-7.1734,-7.4464,-7.6545,-7.3675,-7.0861,0.0,0.0,0.0,0.0,0.0,0.0,0.0,0.0,0.0,0.0,0.0,0.0,0.0,0.0,0.0,0.0,0.0,0.0,0.0,0.0,0.0,0.0,0.0,0.0,0.0,0.0,0.0,0.0,0.0,0.0,0.0,0.0,0.0,0.0,0.0,0.0,0.0,0.0,0.0,0.0,0.0,0.0,0.0,0.0,0.0,0.0,0.0,0.0,0.0,0.0,0.0,0.0,0.0,0.0,0.0,0.0,0.0,0.0,0.0,0.0,0.0,0.0,0.0,0.0,0.0,0.0,0.0,0.0,0.0,0.0,0.0,0.0,0.0,0.0,0.0,0.0,0.0,0.0,0.0,0.0,0.0,0.0,0.0,0.0,0.0,0.0,0.0,0.0,0.0,0.0,0.0,0.0,0.0,0.0,0.0,0.0,0.0,0.0,0.0,0.0,0.0,0.0,0.0,0.0,0.0,0.0,0.0,-5.8036,-6.2621,-6.9244,-7.2906,-7.5632,-7.7546,-7.5016,-7.1977,-6.8624,0.0,0.0,0.0,0.0,0.0,0.0,0.0,0.0,0.0,0.0,0.0,0.0,0.0,0.0,0.0,0.0,0.0,0.0,0.0,0.0,0.0,0.0,0.0,0.0,0.0,0.0,0.0,0.0,0.0,0.0,0.0,0.0,0.0,0.0,0.0,0.0,0.0,0.0,-5.7256,-5.7327,0.0,0.0,0.0,0.0,0.0,0.0,0.0,0.0,-5.8909,0.0,0.0,0.0,0.0,0.0,0.0,0.0,0.0,0.0,0.0,0.0,0.0,0.0,0.0,0.0,0.0,0.0,0.0,0.0,0.0,0.0,0.0,0.0,0.0,0.0,0.0,0.0,0.0,0.0,0.0,0.0,0.0,0.0,0.0,0.0,0.0,0.0,0.0,0.0,0.0,0.0,0.0,0.0,0.0,0.0,0.0,0.0,0.0,0.0,0.0,0.0,0.0,0.0,0.0,0.0,0.0,-5.6281,-5.8832,-6.2916,-6.8439,-7.3147,-7.5764,-7.6016,-7.4441,-7.2202,-6.9372,0.0,0.0,0.0,0.0,0.0,0.0,0.0,0.0,0.0,0.0,0.0,0.0,0.0,0.0,0.0,0.0,0.0,0.0,0.0,0.0,0.0,0.0,0.0,0.0,0.0,0.0,0.0,0.0,0.0,0.0,0.0,0.0,0.0,0.0,0.0,0.0,0.0,0.0,0.0,-5.7327,-5.7439,0.0,0.0,0.0,0.0,0.0,0.0,0.0,0.0,-5.8421,0.0,0.0,0.0,0.0,0.0,0.0,0.0,0.0,0.0,0.0,0.0,0.0,0.0,0.0,0.0,0.0,0.0,0.0,0.0,0.0,0.0,0.0,0.0,0.0,0.0,0.0,0.0,0.0,0.0,0.0,0.0,0.0,0.0,0.0,0.0,0.0,0.0,0.0,0.0,0.0,0.0,0.0,0.0,0.0,0.0,0.0,0.0,0.0,0.0,0.0,0.0,0.0,0.0,0.0,0.0,-5.842,-5.9943,-6.3526,-6.9166,-7.1916,-7.3684,-7.4441,-7.2835,-7.0904,0.0,0.0,0.0,0.0,0.0,0.0,0.0,0.0,0.0,0.0,0.0,0.0,0.0,0.0,0.0,0.0,0.0,0.0,0.0,0.0,0.0,0.0,0.0,0.0,0.0,0.0,0.0,0.0,0.0,0.0,0.0,0.0,0.0,0.0,0.0,0.0,0.0,0.0,0.0,0.0,-5.6987,-5.7214,-5.7808,0.0,0.0,0.0,0.0,0.0,0.0,-5.8891,-5.8846,0.0,0.0,0.0,0.0,0.0,0.0,0.0,0.0,0.0,0.0,0.0,0.0,0.0,0.0,0.0,0.0,0.0,0.0,0.0,0.0,0.0,0.0,0.0,0.0,0.0,0.0,0.0,0.0,0.0,0.0,0.0,0.0,0.0,0.0,0.0,0.0,0.0,0.0,0.0,0.0,0.0,0.0,0.0,0.0,0.0,0.0,0.0,0.0,0.0,0.0,0.0,0.0,0.0,0.0,0.0,-5.9991,-6.0998,-6.4157,-6.9413,-7.049,-7.1578,-7.2959,-7.1263,-6.9596,0.0,0.0,0.0,0.0,0.0,0.0,0.0,0.0,0.0,0.0,0.0,0.0,0.0,0.0,0.0,0.0,0.0,0.0,0.0,0.0,0.0,0.0,0.0,0.0,0.0,0.0,0.0,0.0,0.0,0.0,0.0,0.0,0.0,0.0,0.0,0.0,0.0,0.0,0.0,0.0,0.0,-5.6987,-5.7772,-5.7881,0.0,0.0,0.0,0.0,-5.9429,-5.9383,0.0,0.0,0.0,0.0,0.0,0.0,0.0,0.0,0.0,0.0,0.0,0.0,0.0,0.0,0.0,0.0,0.0,0.0,0.0,0.0,0.0,0.0,0.0,0.0,0.0,0.0,0.0,0.0,0.0,0.0,0.0,0.0,0.0,0.0,0.0,0.0,0.0,0.0,0.0,0.0,0.0,0.0,0.0,0.0,0.0,0.0,0.0,0.0,0.0,0.0,0.0,0.0,0.0,0.0,0.0,0.0,-5.9431,-6.1673,-6.4337,-6.7304,-6.9671,-7.1075,-7.1453,-7.0742,-6.9379,0.0,0.0,0.0,0.0,0.0,0.0,0.0,0.0,0.0,0.0,0.0,0.0,0.0,0.0,0.0,0.0,0.0,0.0,0.0,0.0,0.0,0.0,0.0,0.0,0.0,0.0,0.0,0.0,0.0,0.0,0.0,0.0,0.0,0.0,0.0,0.0,0.0,0.0,0.0,0.0,0.0,-5.6987,-5.7772,-5.7881,-5.8008,0.0,0.0,-5.9021,-5.9453,-5.9751,0.0,0.0,0.0,0.0,0.0,0.0,0.0,0.0,0.0,0.0,0.0,0.0,0.0,0.0,0.0,0.0,0.0,0.0,0.0,0.0,0.0,0.0,0.0,0.0,0.0,0.0,0.0,0.0,0.0,0.0,0.0,0.0,0.0,0.0,0.0,0.0,0.0,0.0,0.0,0.0,0.0,0.0,0.0,0.0,0.0,0.0,0.0,0.0,0.0,0.0,0.0,0.0,0.0,0.0,0.0,-5.8691,-6.0318,-6.141,-6.3799,-6.7478,-6.9782,-7.0579,-6.9974,-6.9337,-6.8029,0.0,0.0,0.0,0.0,0.0,0.0,0.0,0.0,0.0,0.0,0.0,0.0,0.0,0.0,0.0,0.0,0.0,0.0,0.0,0.0,0.0,0.0,0.0,0.0,0.0,0.0,0.0,0.0,0.0,0.0,0.0,0.0,0.0,0.0,0.0,0.0,0.0,0.0,0.0,0.0,0.0,0.0,-5.8954,-5.85,0.0,0.0,0.0,-5.9007,-6.0504,0.0,0.0,0.0,0.0,0.0,0.0,0.0,0.0,0.0,0.0,0.0,0.0,0.0,0.0,0.0,0.0,0.0,0.0,0.0,0.0,0.0,0.0,0.0,0.0,0.0,0.0,0.0,0.0,0.0,0.0,0.0,0.0,0.0,0.0,0.0,0.0,0.0,0.0,0.0,0.0,0.0,0.0,0.0,0.0,0.0,0.0,0.0,0.0,0.0,0.0,0.0,0.0,0.0,0.0,0.0,0.0,0.0,-6.0878,-6.1057,-6.3232,-6.7627,-6.9796,-7.0367,-6.9273,-6.8435,0.0,0.0,0.0,0.0,0.0,0.0,0.0,0.0,0.0,0.0,0.0,0.0,0.0,0.0,0.0,0.0,0.0,0.0,0.0,0.0,0.0,0.0,0.0,0.0,0.0,0.0,0.0,-5.5066,0.0,0.0,0.0,0.0,0.0,0.0,0.0,0.0,0.0,0.0,0.0,0.0,0.0,0.0,-5.8084,-5.9746,-5.9074,-5.8775,0.0,0.0,-5.941,-6.1368,-6.1464,-6.14,0.0,0.0,0.0,0.0,0.0,0.0,0.0,0.0,0.0,0.0,0.0,0.0,0.0,0.0,0.0,0.0,0.0,0.0,0.0,0.0,0.0,0.0,0.0,0.0,0.0,0.0,0.0,0.0,0.0,0.0,0.0,0.0,0.0,0.0,0.0,0.0,0.0,0.0,0.0,0.0,0.0,0.0,0.0,0.0,0.0,0.0,0.0,0.0,0.0,0.0,0.0,0.0,0.0,0.0,0.0,-6.0259,-6.0823,-6.3027,-6.6999,-6.9556,-7.0577,-6.9901,-6.8645,-6.7627,0.0,0.0,0.0,0.0,0.0,0.0,0.0,0.0,0.0,0.0,0.0,0.0,0.0,0.0,0.0,0.0,0.0,0.0,0.0,0.0,0.0,0.0,0.0,0.0,0.0,0.0,0.0,0.0,0.0,0.0,0.0,0.0,0.0,0.0,0.0,0.0,0.0,0.0,0.0,0.0,0.0,-5.7999,-5.936,-5.9466,-5.9661,0.0,0.0,-6.0738,-6.1575,-6.1498,-6.1061,-6.0385,0.0,0.0,0.0,0.0,0.0,0.0,0.0,0.0,0.0,0.0,0.0,0.0,0.0,0.0,0.0,0.0,0.0,0.0,0.0,0.0,0.0,0.0,0.0,0.0,0.0,0.0,0.0,0.0,0.0,0.0,0.0,0.0,0.0,0.0,0.0,0.0,0.0,0.0,0.0,0.0,0.0,0.0,0.0,0.0,0.0,0.0,0.0,0.0,0.0,0.0,0.0,0.0,0.0,-5.9364,-6.0268,-6.1645,-6.383,-6.6939,-6.9564,-7.0438,-6.9393,-6.9273,-6.8495,0.0,0.0,0.0,0.0,0.0,0.0,0.0,0.0,0.0,0.0,0.0,0.0,0.0,0.0,0.0,0.0,0.0,0.0,0.0,0.0,0.0,0.0,0.0,0.0,0.0,0.0,0.0,0.0,-5.6977,-5.8238,-5.9409,0.0,0.0,0.0,0.0,0.0,0.0,0.0,0.0,0.0,0.0,-5.8946,-6.1015,-6.0549,0.0,0.0,-6.0792,-6.0638,-6.1242,-6.1306,-6.0951,-5.9871,-5.9355,0.0,0.0,0.0,0.0,0.0,0.0,0.0,0.0,0.0,0.0,0.0,0.0,0.0,0.0,0.0,0.0,0.0,0.0,0.0,0.0,0.0,0.0,0.0,0.0,0.0,0.0,0.0,0.0,0.0,0.0,0.0,0.0,0.0,0.0,0.0,0.0,0.0,0.0,0.0,0.0,0.0,0.0,0.0,0.0,0.0,0.0,0.0,0.0,0.0,0.0,0.0,0.0,-5.9626,-6.0324,-6.2499,-6.4724,-6.6969,-6.9201,-7.0013,-6.9333,-6.9752,-6.9333,0.0,0.0,0.0,0.0,0.0,0.0,0.0,0.0,0.0,0.0,0.0,0.0,0.0,0.0,0.0,0.0,0.0,0.0,0.0,0.0,0.0,0.0,0.0,0.0,0.0,0.0,0.0,0.0,-5.7724,-5.9275,-6.0302,0.0,0.0,0.0,0.0,0.0,0.0,0.0,0.0,0.0,0.0,-5.979,-6.1669,-6.116,-6.075,-6.1406,-6.0636,-6.0207,-6.0696,-6.0604,-6.0151,-5.9309,0.0,0.0,0.0,0.0,0.0,0.0,0.0,0.0,0.0,0.0,0.0,0.0,0.0,0.0,0.0,0.0,0.0,0.0,0.0,0.0,0.0,0.0,0.0,0.0,0.0,0.0,0.0,0.0,0.0,0.0,0.0,0.0,0.0,0.0,0.0,0.0,0.0,0.0,0.0,0.0,0.0,0.0,0.0,0.0,0.0,0.0,0.0,0.0,0.0,0.0,0.0,0.0,0.0,-5.9626,-6.0324,-6.3357,-6.5592,-6.6969,-6.8315,-6.9303,-6.9901,-6.9991,-6.9961,-6.9871,0.0,0.0,0.0,0.0,0.0,0.0,0.0,0.0,0.0,0.0,0.0,0.0,0.0,0.0,0.0,0.0,0.0,0.0,0.0,0.0,0.0,0.0,0.0,0.0,0.0,0.0,-5.6373,-5.8759,-6.0302,0.0,0.0,0.0,0.0,0.0,0.0,0.0,0.0,0.0,0.0,-5.9729,-6.041,-6.0937,-6.0995,-6.0929,-6.0995,-6.0026,-5.9506,-5.9919,-5.9125,-5.8461,0.0,0.0,0.0,0.0,0.0,0.0,0.0,0.0,0.0,0.0,0.0,0.0,0.0,0.0,0.0,0.0,0.0,0.0,0.0,0.0,0.0,0.0,0.0,0.0,0.0,0.0,0.0,0.0,-4.6326,0.0,0.0,0.0,0.0,0.0,0.0,0.0,0.0,0.0,0.0,0.0,-4.8334,-5.102,0.0,0.0,0.0,0.0,0.0,0.0,0.0,0.0,0.0,0.0,0.0,0.0,-5.9829,-6.1024,-6.3624,-6.5652,-6.6969,-6.8315,-6.9123,-6.9333,-7.0141,-7.041,-6.9991,0.0,0.0,0.0,0.0,0.0,0.0,0.0,0.0,0.0,0.0,0.0,0.0,0.0,0.0,0.0,0.0,0.0,0.0,0.0,0.0,0.0,0.0,0.0,0.0,0.0,-5.6587,0.0,0.0,0.0,0.0,0.0,0.0,0.0,0.0,0.0,0.0,0.0,-5.7798,-5.8807,-5.8518,-5.8566,-5.9463,-5.9603,-5.9683,0.0,0.0,0.0,0.0,0.0,0.0,0.0,0.0,0.0,0.0,0.0,0.0,0.0,0.0,-5.8024,-5.7563,-5.7386,-5.7573,-5.8302,0.0,0.0,0.0,0.0,0.0,0.0,0.0,0.0,0.0,0.0,0.0,0.0,0.0,0.0,0.0,0.0,-4.6326,0.0,0.0,0.0,0.0,0.0,0.0,0.0,0.0,-4.7154,-4.7807,-4.8573,-5.1118,-5.2991,0.0,-5.6148,-5.685,0.0,0.0,0.0,0.0,0.0,0.0,0.0,0.0,-6.0004,-6.1344,-6.3892,-6.5922,-6.7298,-6.8558,-6.9247,-6.9363,-7.035,-7.05,-6.9662,-6.8794,-6.762,0.0,0.0,0.0,0.0,0.0,0.0,0.0,0.0,0.0,0.0,0.0,0.0,0.0,0.0,0.0,0.0,0.0,0.0,0.0,0.0,0.0,0.0,0.0,-5.7706,0.0,0.0,0.0,0.0,0.0,0.0,0.0,0.0,0.0,-5.9516,-5.8593,-5.8247,-5.9164,-5.8554,-5.8177,-5.8599,0.0,0.0,0.0,0.0,0.0,0.0,0.0,-5.7264,-5.6758,-5.752,-5.8374,-5.9025,-5.9449,-5.9671,-5.9671,0.0,0.0,-5.7997,-5.8021,-5.8379,-5.9005,-5.9107,-5.9342,-6.0313,-6.052,-6.0452,0.0,0.0,0.0,0.0,0.0,0.0,0.0,0.0,-4.615,-4.6376,0.0,-4.6351,0.0,0.0,0.0,0.0,0.0,0.0,0.0,0.0,-4.7732,-4.856,-4.9705,-5.1267,-5.3192,-5.5336,-5.6387,-5.7347,-5.8289,-5.7708,0.0,0.0,0.0,0.0,0.0,0.0,-6.0004,-6.1404,-6.4189,-6.6432,-6.7959,-6.9043,-6.9733,-6.9991,-7.059,-7.032,-6.9123,-6.9004,-6.8106,-6.6191,-6.6041,0.0,0.0,0.0,0.0,0.0,0.0,0.0,0.0,0.0,0.0,0.0,0.0,0.0,0.0,0.0,0.0,0.0,0.0,0.0,0.0,-5.817,0.0,0.0,0.0,0.0,0.0,0.0,0.0,0.0,0.0,0.0,-6.0247,-5.9753,-5.944,-5.9893,0.0,0.0,0.0,0.0,-5.8807,-5.8657,-5.7459,-5.6853,-5.7576,-5.719,-5.7011,-5.7707,0.0,0.0,-6.0449,-6.0358,-6.0115,-6.0074,-5.9871,-5.9455,-5.9133,-5.8873,-5.8913,-5.946,-5.9527,-5.9834,-6.1008,-6.1501,-6.1704,-4.5176,0.0,0.0,0.0,0.0,-4.5773,-4.6301,-4.6702,-4.723,-4.723,-4.6842,-4.6903,0.0,0.0,0.0,0.0,0.0,0.0,-4.7179,-4.7732,-4.8661,-4.9715,-5.0861,-5.2854,-5.4693,-5.6534,-5.7978,-5.8956,-5.9533,-5.9381,-5.8332,-5.6394,0.0,0.0,0.0,0.0,-6.018,-6.1998,-6.4427,-6.6432,-6.7989,-6.9043,-6.9943,-7.062,-7.0799,-7.053,-6.9722,-6.9243,-6.8495,-6.7448,-6.652,0.0,0.0,0.0,0.0,0.0,0.0,0.0,0.0,0.0,0.0,0.0,0.0,0.0,0.0,0.0,0.0,0.0,0.0,0.0,-5.8068,-5.8563,-5.8718,0.0,0.0,0.0,0.0,0.0,0.0,0.0,0.0,0.0,-6.0538,-6.0828,-6.0522,0.0,0.0,-5.805,-5.78,-5.8133,-5.8486,-5.8758,0.0,0.0,0.0,-5.8582,-5.8343,-5.8575,-5.9443,-6.0421,-6.1207,-6.1568,-6.1688,-6.1688,-6.1638,-6.1543,-6.1357,-6.0404,-6.0001,-6.0593,-6.1133,-6.1745,-6.268,-6.326,-6.3734,-4.7707,-4.6552,-4.5899,-4.5924,-4.6502,-4.7054,-4.7606,-4.8109,-4.8209,-4.8083,-4.7757,-4.7531,-4.7255,-4.6954,-4.6954,0.0,0.0,0.0,-4.8083,-4.8636,-4.9967,-5.1071,-5.2018,-5.374,-5.5829,-5.8079,-5.8828,-5.9877,-6.1253,-6.0522,-5.9227,-5.751,0.0,0.0,-5.6823,-5.8667,-6.0472,-6.2234,-6.4338,-6.6282,-6.7989,-6.916,-7.0029,-7.05,-7.053,-7.0111,-6.9213,-6.8794,-6.8286,-6.7597,-6.6819,-6.6552,0.0,0.0,0.0,0.0,0.0,0.0,0.0,0.0,0.0,0.0,0.0,-5.9099,-5.9099,0.0,0.0,0.0,-5.8321,-5.8165,-5.7752,-5.8379,0.0,0.0,0.0,0.0,0.0,0.0,0.0,-6.001,-5.8605,-5.856,-6.111,-6.2197,-6.1998,-6.0035,-5.8963,-5.8298,-5.8133,0.0,-5.8885,-5.9264,-5.9105,-5.9053,-5.9591,-5.9391,-5.9252,-5.9783,-6.065,-6.1413,-6.185,-6.2223,-6.2415,-6.2415,-6.2415,-6.2415,-6.2415,-6.1637,-6.1129,-6.1637,-6.2313,-6.3057,-6.3802,-6.4749,-6.5527,-5.0318,-4.9715,-4.8234,-4.7807,-4.8159,-4.8686,-4.9213,-4.969,-4.9188,-4.8937,-4.8862,-4.8335,-4.8058,-4.7983,-4.7933,0.0,0.0,-4.836,-4.9188,-4.9866,-5.1448,-5.2503,-5.3155,-5.4345,-5.6582,-5.9614,-5.934,-6.0522,-6.2874,-6.131,-6.0021,-5.9256,-5.8608,-5.7977,-5.7418,-5.9123,-6.073,-6.2086,-6.3921,-6.5861,-6.7926,-6.9243,-6.9901,-6.9901,-6.9871,-6.9213,-6.7986,-6.7837,-6.7508,-6.6879,-6.6849,-6.6883,-6.6942,0.0,0.0,0.0,0.0,0.0,0.0,0.0,0.0,0.0,0.0,0.0,0.0,0.0,0.0,0.0,-5.7964,0.0,-5.7341,-5.8078,0.0,0.0,0.0,-6.0722,-6.1044,-6.063,-6.0398,-6.0705,0.0,0.0,0.0,0.0,-6.3826,-6.1281,-6.0269,-5.9643,-5.9212,-5.9525,-5.985,-6.0122,-5.9617,-5.9458,-6.0211,-5.9984,-6.0063,-6.1013,-6.1839,-6.2076,-6.211,-6.211,-6.2178,-6.211,-6.2245,-6.2279,-6.2279,-6.2245,-6.2415,-6.2347,-6.3024,-6.3802,-6.4444,-6.5662,-6.6846,-5.2251,-5.2101,-5.1699,-5.087,-4.9841,-4.9967,-5.0343,-5.0845,-5.0745,-5.0444,-5.0017,-4.9891,-4.9364,-4.856,-4.8109,-4.8083,-4.841,-4.9088,-5.0167,-5.1523,-5.2352,-5.3457,-5.4859,-5.6449,-5.7762,-5.8892,-6.1144,-6.2525,-6.3051,-6.2635,-6.1516,-5.9905,-5.9256,-5.8388,-5.7361,-5.8258,-5.9652,-6.1437,-6.2795,-6.5022,-6.7897,-6.8794,-6.9243,-6.9243,-6.8734,-6.8076,-6.7238,-6.6729,-6.6161,-6.5533,-6.5503,-6.5982,-6.6913,-6.4063,0.0,0.0,0.0,0.0,0.0,0.0,0.0,0.0,0.0,-5.9638,-5.9159,0.0,-5.9121,0.0,-5.8806,-5.8844,-5.9318,-5.9905,0.0,0.0,-6.1829,-6.2187,-6.1947,-6.2549,-6.2657,-6.189,-6.1483,-6.1841,-6.3275,-6.511,-6.5631,-6.3876,-6.294,-6.2182,-6.1567,-6.1765,-6.1843,-6.1394,-6.1361,-6.1632,-6.1627,-6.1307,-6.0912,-6.1264,-6.096,-6.0655,-6.0655,-6.0622,-6.0622,-6.0689,-6.1163,-6.1501,-6.1569,-6.1975,-6.2347,-6.2482,-6.3429,-6.441,-6.4613,-6.5764,-6.688,-5.3658,-5.3658,-5.3658,-5.298,-5.185,-5.1624,-5.1724,-5.2,-5.1749,-5.1473,-5.1172,-5.0896,-5.0318,-4.9515,-4.9439,-4.9439,-4.9565,-5.0594,-5.1599,-5.2503,-5.3532,-5.4511,-5.5462,-5.751,-5.8704,-5.9167,-6.1953,-6.3655,-6.4185,-6.3466,-6.2368,-6.0983,-6.033,-5.9398,-5.8219,-5.8258,-5.9131,-6.0765,-6.2822,-6.4988,-6.7059,-6.7747,-6.7832,-6.7222,-6.6629,-6.5975,-6.5289,-6.4365,-6.3979,-6.41,-6.392,-6.4455,-6.5922,-6.3342,-6.0675,0.0,0.0,0.0,0.0,0.0,0.0,0.0,0.0,0.0,0.0,0.0,-5.9115,0.0,-5.9117,0.0,-6.004,-6.0344,-6.1026,-6.2276,-6.2967,-6.3339,-6.3267,-6.3817,-6.4027,-6.3626,-6.3484,-6.3869,-6.5034,-6.612,-6.655,-6.5662,-6.4875,-6.3978,-6.2974,-6.271,-6.2361,-6.1654,-6.1717,-6.1738,-6.1434,-6.1028,-6.0757,-6.0723,-6.0385,-6.008,-6.008,-6.008,-6.008,-6.0114,-6.0452,-6.0757,-6.0791,-6.1061,-6.1467,-6.1975,-6.2821,-6.3666,-6.4072,-6.5561,-6.6812,-5.4787,-5.4762,-5.4687,-5.4336,-5.3783,-5.3256,-5.298,-5.2904,-5.2427,-5.2201,-5.2176,-5.1624,-5.1122,-5.067,-5.1096,-5.1096,-5.0845,-5.2251,-5.3055,-5.3331,-5.4712,-5.5559,-5.5922,-5.8201,-5.9529,-6.0125,-6.2558,-6.4399,-6.5532,-6.4035,-6.2872,-6.2097,-6.144,-6.0532,-5.932,-5.8722,-5.9016,-6.0236,-6.3288,-6.5133,-6.5771,-6.6337,-6.603,-6.4826,-6.4089,-6.3471,-6.2851,-6.17,-6.1552,-6.2645,-6.2195,-6.2752,-6.4329,-6.2467,-6.0807,0.0,-5.9115,0.0,0.0,0.0,0.0,0.0,0.0,0.0,0.0,-5.9165,-5.9105,-5.9099,-5.9409,-5.9814,-6.0415,-6.0658,-6.1459,-6.3111,-6.39,-6.4404,-6.4708,-6.4816,-6.4993,-6.5311,-6.5073,-6.541,-6.6539,-6.6795,-6.6812,-6.6677,-6.6026,-6.5073,-6.3863,-6.2916,-6.2139,-6.14,-6.1197,-6.0926,-6.0351,-6.008,-5.9945,-5.9945,-5.9776,-5.9844,-5.9742,-5.9742,-5.9776,-5.9776,-5.9844,-5.9945,-5.9945,-6.0047,-6.0385,-6.1028,-6.1772,-6.2584,-6.3497,-6.5053,-6.644,-5.5917,-5.5867,-5.5415,-5.4913,-5.4361,-5.3783,-5.3306,-5.2929,-5.2804,-5.2779,-5.2729,-5.2201,-5.19,-5.1774,-5.1423,-5.1699,-5.2452,-5.2779,-5.3658,-5.4938,-5.5239,-5.6428,-5.8253,-6.021,-6.1154,-6.1481,-6.4677,-6.5887,-6.5114,-6.4814,-6.3742,-6.2115,-6.1465,-6.0792,0.0,0.0,0.0,0.0,-6.2877,-6.4299,-6.4421,-6.452,-6.4177,-6.3473,-6.2336,0.0,-6.155,-6.0324,-6.0004,-6.0704,-6.0644,0.0,0.0,0.0,0.0,0.0,0.0,0.0,0.0,0.0,0.0,0.0,-6.2232,-6.2005,-6.0816,-5.9721,-5.9121,-5.9129,-6.1046,-6.2304,-6.2441,-6.3441,-6.4563,-6.5874,-6.6163,-6.6052,-6.5595,-6.6,-6.6203,-6.567,-6.6068,-6.6466,-6.6753,-6.6779,-6.6812,-6.6779,-6.617,-6.5392,-6.4512,-6.326,-6.2144,-6.1434,-6.0723,-6.0283,-6.0114,-5.9573,-5.9201,-5.9167,-5.8693,-5.8389,-5.8389,-5.8355,-5.8321,-5.8389,-5.8829,-5.9235,-5.9235,-5.9674,-6.008,-6.0283,-6.096,-6.1907,-6.3226,-6.4309,-6.5019,-5.6219,0.0,-5.5616,-5.5064,0.0,-5.3934,-5.3406,-5.2861,-5.2861,-5.2861,-5.2904,-5.2628,-5.2503,-5.2528,-5.2503,-5.2779,-5.3331,-5.3884,-5.4587,-5.539,-5.5666,-5.6877,-5.8973,-6.0716,-6.1591,-6.1755,-6.5261,-6.6311,-6.5084,-6.5024,-6.4188,-6.2615,-6.2258,-6.1816,-6.1173,-6.1143,-6.1174,-6.1263,-6.3087,-6.4066,-6.407,-6.4362,-6.3879,-6.2608,0.0,0.0,0.0,0.0,0.0,0.0,0.0,0.0,0.0,0.0,0.0,-6.4868,-6.3842,-6.3152,-6.3166,-6.341,-6.3444,-6.3059,-6.2761,-6.2148,-6.1207,-5.9852,-5.9086,-5.9159,-6.1462,-6.2991,-6.3052,-6.451,-6.5957,-6.715,-6.7354,-6.7184,-6.6846,-6.6779,-6.6677,-6.6373,-6.6576,-6.6812,-6.6812,-6.6812,-6.6812,-6.6779,-6.617,-6.5425,-6.4681,-6.3666,-6.2482,-6.096,-5.9708,-5.8998,-5.8964,-5.8761,-5.849,-5.8389,-5.8152,-5.7915,-5.7881,-5.7881,-5.7881,-5.7915,-5.822,-5.8457,-5.849,-5.8761,-5.9201,-5.9911,-6.0419,-6.1197,-6.2618,-6.3565,-6.4072,-5.6143,-5.6018,-5.5491,-5.4938,-5.4361,-5.3808,-5.3331,-5.2861,0.0,0.0,0.0,-5.2861,-5.2861,-5.2955,-5.3457,-5.3758,-5.3934,-5.4938,-5.544,-5.5541,-5.5993,-5.7159,-5.8973,-6.0716,-6.1957,-6.2687,-6.5624,-6.6311,-6.5054,-6.5024,-6.4366,-6.3199,-6.3137,-6.2869,-6.251,-6.2989,-6.3116,-6.2972,-6.3799,-6.4187,-6.4039,-6.4547,-6.401,-6.2292,-6.1704,-6.1351,-6.1263,-6.0268,-6.0472,-6.2174,-6.1844,-6.103,-6.0047,-6.288,-6.5555,-6.7441,-6.5948,-6.4901,-6.4805,-6.4689,-6.4366,-6.3917,-6.266,-6.1725,-6.1137,-6.0071,-5.9555,-5.9764,-6.1764,-6.3114,-6.3517,-6.5226,-6.6812,-6.7978,-6.8098,-6.8064,-6.7861,-6.7387,-6.6981,-6.6846,-6.6812,-6.6812,-6.6812,-6.6812,-6.6812,-6.6745,-6.6305,-6.5561,-6.4681,-6.3632,-6.2279,-6.0486,-5.9336,-5.8423,-5.8321,-5.8423,-5.8287,-5.8457,-5.8287,-5.8084,-5.8051,-5.7983,-5.7881,-5.7881,-5.7881,-5.7983,-5.8084,-5.822,-5.8558,-5.9844,-6.0216,-6.0689,-6.1873,-6.2685,-6.3057,-5.5942,-5.5465,-5.4913,-5.4336,-5.3783,-5.3256,-5.298,-5.2861,-5.2861,-5.2861,-5.2861,-5.2861,-5.2861,-5.2886,-5.3457,-5.3984,-5.4461,-5.5114,-5.5641,0.0,-5.6168,-5.7159,-5.8973,-6.0716,-6.3225,-6.6102,-6.6803,-6.6311,-6.5144,-6.5054,-6.4366,-6.3228,-6.3137,-6.3288,-6.3707,-6.3827,-6.4366,-6.5442,-6.5075,-6.4624,-6.4096,-6.4103,-6.3764,-6.2974,-6.2395,-6.2074,-6.1985,-6.1402,-6.1635,-6.2948,-6.2974,-6.2811,-6.2681,-6.511,-6.769,-7.0049,-6.9037,-6.8068,-6.7444,-6.6906,-6.5652,-6.3408,-6.2002,-6.1194,-6.11,-6.0907,-6.1278,-6.2312,-6.2843,-6.3725,-6.5357,-6.6801,-6.7984,-6.8799,-6.8944,-6.8673,-6.803,-6.7793,-6.7455,-6.688,-6.6812,-6.6812,-6.6812,-6.6812,-6.6812,-6.6812,-6.6542,-6.6136,-6.4681,-6.2888,-6.1332,-6.0351,-5.9945,-5.981,-5.9641,-5.9776,-5.9641,-5.9776,-5.9201,-5.8863,-5.8863,-5.8423,-5.8084,-5.7949,-5.8051,-5.822,-5.8727,-5.8863,-5.9235,-6.0047,-6.0622,-6.1197,-6.1569,-6.1738,-6.1704,-5.5892,-5.534,-5.4813,-5.4235,-5.3658,-5.3155,-5.2861,-5.2861,-5.2861,-5.2861,-5.2861,-5.2861,-5.2861,-5.3005,-5.3808,-5.431,-5.4683,-5.544,-5.5968,-5.6194,-5.6219,-5.7159,-5.8973,-6.0716,-6.3499,-6.6832,-6.6984,-6.6671,-6.6102,-6.5742,-6.5084,-6.4156,-6.3767,-6.3707,-6.4006,-6.4366,-6.5024,-6.5981,-6.5678,-6.5408,-6.5141,-6.5103,-6.4772,-6.4183,-6.3858,-6.3888,-6.4242,-6.4037,-6.448,-6.5751,-6.5811,-6.5952,-6.6353,-6.7771,-6.9299,-7.0751,-6.9709,-6.8704,-6.8016,-6.67,-6.5084,-6.3228,-6.1852,-6.1112,-6.1079,-6.0403,-6.0862,-6.2837,-6.4159,-6.5324,-6.6001,-6.7535,-6.8842,-6.962,-6.9688,-6.9383,-6.8639,-6.8132,-6.759,-6.6948,-6.6812,-6.6812,-6.6812,-6.6812,-6.6812,-6.6779,-6.6508,-6.5797,-6.4749,-6.3429,-6.2076,-6.0994,-6.0385,-6.0114,-6.0114,-6.008,-6.008,-6.008,-5.9844,-5.9607,-5.9607,-5.9268,-5.9133,-5.9099,-5.9066,-5.9201,-5.9573,-5.9607,-5.9945,-6.0588,-6.0994,-6.1366,-6.1704,-6.1603,-6.1163,-5.5717,-5.5164,-5.4587,-5.4034,-5.3507,-5.3105,-5.2861,-5.2861,-5.2861,-5.2861,-5.2861,-5.2861,-5.298,-5.3206,-5.4135,-5.4708,-5.4888,-5.5767,-5.6219,-5.6292,-5.6631,-5.7374,-5.8437,-6.0538,-6.3121,-6.5586,-6.618,-6.6635,-6.6884,-6.6312,-6.5682,-6.5024,-6.4485,-6.4306,-6.4455,-6.4994,-6.5652,-6.64,-6.6311,-6.6221,-6.6221,-6.6221,-6.5981,-6.5533,-6.5473,-6.5772,-6.64,-6.646,-6.7119,-6.8495,-6.8495,-6.8764,-6.9419,-6.9931,-7.0423,-7.0742,-6.9886,-6.8704,-6.7567,-6.5981,-6.4336,-6.275,-6.1702,-6.0946,-6.0647,-6.029,-6.1052,-6.3571,-6.5643,-6.6721,-6.6944,-6.8115,-6.9451,-7.0297,-7.0432,-7.006,-6.9214,-6.8538,-6.7793,-6.7049,-6.6812,-6.6812,-6.6812,-6.6812,-6.6812,-6.6745,-6.6305,-6.5662,-6.4952,-6.4241,-6.3226,-6.211,-6.1129,-6.0723,-6.0622,-6.0689,-6.0689,-6.0622,-6.0486,-6.0419,-6.0351,-6.025,-6.008,-5.9979,-6.0013,-6.0114,-6.0283,-6.0385,-6.0689,-6.1366,-6.1603,-6.1704,-6.1907,-6.1637,-6.096,-5.5164,-5.4587,-5.4034,-5.3482,-5.303,-5.2955,-5.2861,-5.2861,-5.2861,-5.2861,-5.2861,-5.2861,-5.3181,-5.3683,-5.4285,-5.4838,-5.5315,-5.5942,-5.6292,-5.6412,-5.7895,-5.7895,-5.6968,-6.0058,-6.1785,-6.2375,-6.3894,-6.5647,-6.6914,-6.6342,-6.5682,-6.5084,-6.4964,-6.5203,-6.5742,-6.5862,-6.652,-6.7747,-6.7208,-6.6909,-6.6879,-6.6909,-6.6879,-6.6819,-6.6789,-6.7119,-6.7717,-6.7777,-6.8675,-7.038,-7.0081,-7.0136,-7.0593,-7.0789,-7.0829,-7.0834,-7.0265,-6.8824,-6.646,-6.5473,-6.3947,-6.1613,-6.128,-6.0615,-5.9614,-6.1343,-6.366,-6.5851,-6.663,-6.7424,-6.8614,-6.9035,-6.9722,-7.0939,-7.1142,-7.0669,-6.9451,-6.9045,-6.8436,-6.6981,-6.6872,-6.6846,-6.6948,-6.6948,-6.6846,-6.6812,-6.6711,-6.6305,-6.5595,-6.4952,-6.4174,-6.3362,-6.2618,-6.2178,-6.2042,-6.2178,-6.1975,-6.2009,-6.1603,-6.1264,-6.1095,-6.0655,-6.0148,-6.0554,-6.0283,-6.0554,-6.096,-6.1231,-6.1434,-6.1907,-6.211,-6.211,-6.1637,-6.1434,-6.0892,-5.5064,-5.4511,-5.3934,-5.3406,-5.2886,-5.2861,-5.2861,-5.2861,-5.2861,-5.2861,-5.2861,-5.2861,-5.3206,-5.3733,-5.431,-5.4863,-5.5487,-5.7046,-5.7231,-5.6533,-5.9113,-5.8973,-5.6895,-6.1056,-6.1629,-5.9154,-6.3479,-6.6263,-6.6819,-6.6731,-6.6251,-6.5682,-6.5622,-6.5742,-6.6011,-6.6011,-6.667,-6.7897,-6.7354,-6.7414,-6.8016,-6.7388,-6.6999,-6.7029,-6.7358,-6.7897,-6.8585,-6.9303,-7.026,-7.1398,-7.1637,-7.1446,-7.0915,-7.1267,-7.0973,-6.9888,-6.8821,-6.7388,-6.5562,-6.4784,-6.3617,-6.1822,-6.2001,-6.1361,-5.9444,-6.1536,-6.442,-6.749,-6.8166,-6.8499,-6.9035,-6.9485,-7.0161,-7.1075,-7.1312,-7.0872,-6.9891,-6.9722,-6.9316,-6.8301,-6.7343,-6.7199,-6.7843,-6.776,-6.732,-6.6948,-6.6812,-6.6542,-6.5831,-6.5425,-6.4783,-6.3802,-6.3226,-6.2888,-6.2516,-6.2415,-6.2415,-6.2347,-6.2178,-6.1941,-6.1839,-6.1738,-6.1467,-6.14,-6.1332,-6.1434,-6.1873,-6.1941,-6.2076,-6.2381,-6.2381,-6.2279,-6.2009,-6.1941,-6.1434,-5.4712,-5.426,-5.3733,-5.3281,-5.2929,-5.2861,-5.2861,-5.2861,-5.2861,-5.2861,-5.2861,-5.2861,-5.3306,-5.3934,-5.4386,-5.4938,-5.5807,-5.7384,-5.7492,-5.6605,-5.9435,-5.9462,-5.7564,-6.1326,-6.152,-5.9155,-6.344,-6.6446,-6.6908,-6.6999,-6.6759,-6.634,-6.6281,-6.6281,-6.6311,-6.643,-6.7119,-6.8106,-6.7647,-6.7975,-6.8974,-6.8258,-6.7659,-6.7597,-6.7986,-6.8645,-6.9512,-7.041,-7.1398,-7.2385,-7.2595,-7.2475,-7.205,-7.1637,-7.0525,-6.8631,-6.7533,-6.634,-6.4874,-6.4276,-6.3438,-6.2355,-6.2823,-6.2426,-6.1025,-6.1944,-6.4761,-6.8494,-6.944,-6.9659,-6.9461,-6.9891,-7.05,-7.1176,-7.1312,-7.1007,-7.0297,-7.0195,-6.9891,-6.9103,-6.8297,-6.8008,-6.8833,-6.8513,-6.7658,-6.7252,-6.6948,-6.6812,-6.6305,-6.6,-6.5324,-6.4512,-6.414,-6.3396,-6.2618,-6.2415,-6.2415,-6.2415,-6.2347,-6.2347,-6.2415,-6.2381,-6.2381,-6.1941,-6.2279,-6.2381,-6.2245,-6.2313,-6.2347,-6.2381,-6.2381,-6.2381,-6.2313,-6.2381,-6.2178,-5.3758,-5.3658,-5.3181,-5.2911,-5.2861,-5.2861,-5.2861,-5.2861,-5.2861,-5.2861,-5.2861,-5.2861,-5.3532,-5.4461,-5.4536,-5.5164,-5.6068,-5.646,-5.6485,-5.6412,-5.8295,-5.8973,-5.8903,-6.0784,-6.1563,-6.1109,-6.3507,-6.5576,-6.6937,-6.6999,-6.6969,-6.6939,-6.6879,-6.6909,-6.6969,-6.7418,-6.8196,-6.8764,-6.8426,-6.8784,-6.9752,-6.9609,-6.925,-6.8944,-6.8944,-6.9512,-7.062,-7.0859,-7.1787,-7.3702,-7.2684,-7.2763,-7.4124,-7.1718,-6.9213,-6.7448,-6.7029,-6.6101,-6.4395,-6.4006,-6.3438,-6.2558,-6.3384,-6.3735,-6.3015,-6.3338,-6.5309,-6.8813,-7.0381,-7.0789,-7.0273,-7.0263,-7.0567,-7.1176,-7.1312,-7.0973,-7.0331,-7.0297,-6.9857,-6.9417,-6.9461,-6.9495,-6.9684,-6.8692,-6.8132,-6.7793,-6.7286,-6.7083,-6.7455,-6.6643,-6.6203,-6.617,-6.5459,-6.4106,-6.2821,-6.2753,-6.2651,-6.2719,-6.2888,-6.2584,-6.2448,-6.2415,-6.2482,-6.2516,-6.2685,-6.2719,-6.2482,-6.2415,-6.2381,-6.2415,-6.2415,-6.2415,-6.2415,-6.2415,-6.2279,-5.3507,-5.3181,-5.3005,-5.2861,-5.2861,-5.2861,-5.2861,-5.2861,-5.2861,-5.2861,-5.2861,-5.2861,-5.3532,-5.4561,-5.4561,-5.5164,-5.6289,-5.7349,-5.7277,-5.6678,-5.9253,-5.9392,-5.7707,-6.1259,-6.2652,-6.2164,-6.4584,-6.6322,-6.6846,-6.6999,-6.6999,-6.6999,-6.6999,-6.6999,-6.7029,-6.7208,-6.7867,-6.8854,-6.8821,-6.9359,-7.044,-7.0474,-7.0355,-7.0201,-6.9812,-7.0021,-7.0889,-7.1727,-7.2744,-7.3851,-7.3432,-7.32,-7.2901,-7.0495,-6.834,-6.7119,-6.6221,-6.5203,-6.4156,-6.3617,-6.3228,-6.2952,-6.439,-6.5465,-6.5778,-6.6453,-6.7915,-6.9992,-7.089,-7.1118,-7.1018,-7.0906,-7.1007,-7.1244,-7.1278,-7.1176,-7.1007,-7.0906,-7.0804,-7.0601,-7.0679,-7.051,-6.9969,-6.9519,-6.918,-6.8741,-6.8436,-6.8402,-6.8504,-6.8132,-6.776,-6.7489,-6.7049,-6.6373,-6.5425,-6.4343,-6.3835,-6.3835,-6.3869,-6.3869,-6.3768,-6.3734,-6.3802,-6.3903,-6.3802,-6.3463,-6.3362,-6.2685,-6.2651,-6.2516,-6.2482,-6.2415,-6.2415,-6.2415,-6.2415,-5.3256,-5.2955,-5.2861,-5.2861,-5.2861,-5.2861,-5.2861,-5.2861,-5.2861,-5.2861,-5.2955,-5.3105,-5.3708,-5.4511,-5.4737,-5.5315,-5.6289,-5.7492,-5.7349,-5.6485,-5.8719,-5.8833,-5.8108,-6.1394,-6.3451,-6.3687,-6.5756,-6.6999,-6.6999,-6.6999,-6.6999,-6.6999,-6.7178,-6.7178,-6.7089,-6.7388,-6.8076,-6.8675,-6.9247,-7.0029,-7.059,-7.1288,-7.1403,-7.1218,-7.1009,-7.1128,-7.1577,-7.2654,-7.3522,-7.4091,-7.4031,-7.3156,-7.147,-6.9466,-6.774,-6.6429,-6.5533,-6.4635,-6.3827,-6.3288,-6.3279,-6.3789,-6.5405,-6.6708,-6.726,-6.8818,-7.0208,-7.1084,-7.1287,-7.131,-7.1255,-7.1075,-7.0939,-7.0939,-7.0939,-7.0939,-7.0973,-7.1176,-7.1278,-7.1244,-7.121,-7.0895,-7.0455,-7.0263,-6.9925,-6.9485,-6.9282,-6.9147,-6.9383,-6.9214,-6.9079,-6.8673,-6.8402,-6.7996,-6.7455,-6.6677,-6.5425,-6.5222,-6.4749,-6.485,-6.5121,-6.5087,-6.5155,-6.5222,-6.4986,-6.458,-6.4005,-6.326,-6.2922,-6.2753,-6.2516,-6.2415,-6.2415,-6.2415,-6.2415,-5.2955,-5.2861,-5.2861,-5.2861,-5.2861,-5.2861,-5.2861,-5.2861,-5.2861,-5.2861,-5.298,-5.3432,-5.3959,-5.4587,-5.5139,-5.5717,-5.6219,-5.6564,-5.6538,-5.6292,-5.6485,-5.7446,-5.8586,-6.062,-6.3555,-6.6294,-6.6951,-6.7089,-6.7178,-6.7208,-6.7178,-6.7208,-6.7717,-6.7747,-6.7089,-6.8166,-6.8555,-6.8647,-6.9733,-7.0363,-7.0295,-7.1838,-7.2439,-7.2062,-7.2445,-7.2774,-7.2864,-7.3492,-7.4121,-7.4659,-7.421,-7.2654,-7.0465,-6.8993,-6.7411,-6.5712,-6.5114,-6.4395,-6.3348,-6.3196,-6.3649,-6.4592,-6.6249,-6.7199,-6.7851,-6.969,-7.121,-7.1458,-7.1345,-7.1312,-7.121,-7.0703,-7.0297,-7.0195,-7.0331,-7.0331,-7.0398,-7.0906,-7.1345,-7.1447,-7.1481,-7.1345,-7.1176,-7.0737,-7.0331,-7.0161,-6.9755,-6.9586,-7.006,-6.9789,-6.9586,-6.9823,-6.9688,-6.9282,-6.9147,-6.8944,-6.7624,-6.6508,-6.5831,-6.5561,-6.617,-6.6339,-6.6576,-6.6643,-6.5967,-6.5527,-6.5019,-6.4309,-6.3565,-6.326,-6.2888,-6.2516,-6.2415,-6.2415,-6.2415,-5.2861,-5.2861,-5.2861,-5.2861,-5.2861,-5.2861,-5.2861,-5.2861,-5.2861,-5.2861,-5.303,-5.3482,-5.4009,-5.4687,-5.5516,-5.6244,-5.6796,-5.7123,-5.6972,-5.6344,-5.6244,-5.6712,-5.7789,-5.951,-6.2453,-6.612,-6.8046,-6.865,-6.8375,-6.8345,-6.8375,-6.8435,-6.8555,-6.8585,-6.8315,-6.8375,-6.8525,-6.9273,-6.8538,-6.9104,-7.1098,-7.2319,-7.277,-7.2654,-7.3253,-7.3582,-7.3612,-7.3791,-7.421,-7.4839,-7.424,-7.2894,-7.0889,-6.9449,-6.8044,-6.655,-6.5473,-6.4665,-6.3827,-6.3288,-6.3279,-6.404,-6.5835,-6.7715,-6.8982,-7.0467,-7.1604,-7.209,-7.1728,-7.1266,-7.1165,-7.0635,-7.0229,-7.0195,-7.0195,-7.0195,-7.0432,-7.1345,-7.2191,-7.2631,-7.236,-7.209,-7.1921,-7.1379,-7.0973,-7.0906,-7.0669,-7.0703,-7.0838,-7.0737,-7.0669,-7.0906,-7.0669,-7.0635,-7.0601,-7.05,-6.9755,-6.8707,-6.7895,-6.7387,-6.776,-6.7861,-6.8098,-6.7861,-6.7151,-6.6508,-6.6,-6.529,-6.4546,-6.3802,-6.3396,-6.299,-6.255,-6.255,-6.2753,-5.2861,-5.2861,-5.2861,-5.2861,-5.2861,-5.2861,-5.2861,-5.2861,-5.2861,-5.2861,-5.3055,-5.3708,-5.4336,-5.5013,-5.6018,-5.6821,-5.7374,-5.775,-5.7524,-5.6922,-5.6846,-5.6947,-5.7417,-5.9567,-6.2453,-6.5897,-6.8487,-6.934,-6.9004,-6.9004,-6.9004,-6.9004,-6.9243,-6.9213,-6.9064,-6.8854,-6.9123,-6.9389,-6.8441,-6.8976,-7.1278,-7.2931,-7.3533,-7.341,-7.3911,-7.424,-7.427,-7.427,-7.445,-7.4629,-7.4031,-7.2774,-7.1308,-6.9842,-6.8405,-6.7059,-6.5802,-6.4725,-6.4036,-6.3408,-6.3394,-6.4101,-6.5654,-6.8124,-7.0341,-7.1727,-7.2378,-7.2551,-7.1886,-7.13,-7.1199,-7.0635,-7.0229,-7.0195,-7.0195,-7.0432,-7.0973,-7.2056,-7.272,-7.3025,-7.2969,-7.2585,-7.1999,-7.1977,-7.1548,-7.1413,-7.1312,-7.1481,-7.1582,-7.1684,-7.1785,-7.1954,-7.2124,-7.209,-7.209,-7.1921,-7.1718,-7.1007,-7.0263,-6.9992,-7.006,-6.9823,-6.9823,-6.9282,-6.8639,-6.7895,-6.732,-6.6305,-6.5459,-6.4783,-6.4106,-6.3802,-6.3531,-6.3463,-6.3599,-5.2861,-5.2861,-5.2861,-5.2861,-5.2861,-5.2861,-5.2861,-5.2861,-5.2861,-5.2861,-5.3155,-5.4009,-5.4813,-5.5516,-5.6545,-5.7399,-5.7876,-5.8077,-5.8077,-5.7951,-5.7901,-5.7775,-5.7746,-6.0802,-6.3667,-6.6013,-6.853,-6.9456,-6.9333,-6.9303,-6.9093,-6.9303,-6.9782,-6.9752,-6.9423,-6.9722,-6.9662,-6.9359,-6.9044,-6.961,-7.1218,-7.3479,-7.457,-7.4039,-7.448,-7.4809,-7.4779,-7.4779,-7.4809,-7.4659,-7.3612,-7.2624,-7.1607,-7.0021,-6.8405,-6.7178,-6.5832,-6.4904,-6.4156,-6.3588,-6.3629,-6.4671,-6.5682,-6.7796,-7.1117,-7.2513,-7.2827,-7.225,-7.1699,-7.1219,-7.1007,-7.0726,-7.0398,-7.0364,-7.0466,-7.0939,-7.2259,-7.3071,-7.3464,-7.3316,-7.3329,-7.316,-7.2156,-7.2416,-7.2078,-7.1819,-7.165,-7.1988,-7.2259,-7.2529,-7.28,-7.2969,-7.3037,-7.2969,-7.2766,-7.2732,-7.2597,-7.2732,-7.2157,-7.1988,-7.1718,-7.1379,-7.1109,-7.0635,-6.9925,-6.9214,-6.8368,-6.732,-6.644,-6.573,-6.5222,-6.485,-6.4681,-6.4613,-6.4478,-5.2861,-5.2861,-5.2861,-5.2861,-5.2861,-5.2861,-5.2861,-5.2861,-5.2861,-5.2861,-5.3181,-5.4084,-5.4888,-5.5541,-5.6997,-5.7976,-5.8453,-5.888,-5.883,-5.8604,-5.893,-5.8755,-5.9184,-6.2434,-6.4719,-6.5877,-6.8796,-7.0534,-7.041,-7.029,-7.032,-7.041,-7.047,-7.056,-7.044,-7.0111,-7.0171,-7.0226,-6.9422,-7.0165,-7.2295,-7.3948,-7.4789,-7.4698,-7.4779,-7.4869,-7.4869,-7.4869,-7.4629,-7.4121,-7.3402,-7.2355,-7.1248,-6.9782,-6.8555,-6.7657,-6.646,-6.5443,-6.4784,-6.4066,-6.397,-6.4344,-6.5376,-6.7049,-6.9217,-7.1969,-7.2105,-7.1088,-7.07,-7.0752,-7.0115,-7.0486,-7.1075,-7.165,-7.1379,-7.1684,-7.2935,-7.3849,-7.4458,-7.4783,-7.4559,-7.4255,-7.4098,-7.3624,-7.3105,-7.2868,-7.28,-7.2868,-7.3105,-7.3341,-7.3612,-7.3409,-7.3409,-7.3409,-7.3409,-7.3409,-7.3578,-7.4052,-7.3849,-7.351,-7.3071,-7.2462,-7.2191,-7.1819,-7.0838,-7.0026,-6.9113,-6.8132,-6.7421,-6.6812,-6.6508,-6.6237,-6.6034,-6.5899,-6.5628,-5.2861,-5.2861,-5.2861,-5.2861,-5.2861,-5.2861,-5.2861,-5.2861,-5.2861,-5.3055,-5.3406,-5.416,-5.5114,-5.6168,-5.7349,-5.8328,-5.9031,-5.9357,-5.9307,-5.9156,-5.9332,-5.9282,-6.0074,-6.3231,-6.5186,-6.5612,-6.9057,-7.0664,-7.0889,-7.0919,-7.0919,-7.0859,-7.0919,-7.0919,-7.0829,-7.062,-7.0679,-7.1033,-7.0379,-7.0974,-7.3223,-7.4331,-7.4812,-7.4877,-7.4869,-7.4869,-7.4869,-7.4869,-7.4569,-7.3851,-7.3013,-7.2152,-7.1383,-6.9576,-6.8498,-6.8019,-6.655,-6.5383,-6.4964,-6.4186,-6.3767,-6.4093,-6.5086,-6.6445,-6.7988,-6.9967,-6.9877,-6.9732,-6.8659,-6.8104,-6.8683,-6.985,-7.1257,-7.2168,-7.2563,-7.3003,-7.3883,-7.4627,-7.5202,-7.5473,-7.5371,-7.4965,-7.5161,-7.4437,-7.3916,-7.3544,-7.3341,-7.3578,-7.3883,-7.4153,-7.4525,-7.4593,-7.4728,-7.4965,-7.4897,-7.483,-7.4695,-7.51,-7.5168,-7.4897,-7.4255,-7.3544,-7.3003,-7.2529,-7.165,-7.0804,-6.9925,-6.918,-6.8741,-6.8267,-6.7929,-6.7726,-6.7557,-6.7286,-6.6981,-5.2861,-5.2861,-5.2861,-5.2861,-5.2861,-5.2861,-5.2861,-5.2861,-5.2861,-5.3206,-5.3708,-5.4285,-5.544,-5.6973,-5.76,-5.8478,-5.9458,-5.9458,-5.9483,-5.9433,-5.9483,-5.9433,-5.987,-6.3385,-6.5328,-6.6202,-6.9324,-7.0629,-7.0919,-7.0919,-7.0919,-7.0919,-7.0919,-7.0919,-7.0889,-7.0859,-7.1248,-7.1667,-7.144,-7.194,-7.3582,-7.4474,-7.4864,-7.4907,-7.4869,-7.4869,-7.4839,-7.4749,-7.439,-7.3821,-7.2565,-7.1918,-7.1578,-6.9283,-6.8138,-6.7811,-6.634,-6.5203,-6.4994,-6.4186,-6.3707,-6.4365,-6.4874,-6.5888,-6.7519,-6.7923,-6.7977,-6.8485,-6.5333,-6.5313,-6.7208,-6.914,-7.0789,-7.2109,-7.3447,-7.4492,-7.4931,-7.5439,-7.5811,-7.5845,-7.5879,-7.5493,-7.5087,-7.4715,-7.4728,-7.5202,-7.4897,-7.4931,-7.5337,-7.5743,-7.6149,-7.6521,-7.6657,-7.6826,-7.6623,-7.6386,-7.6149,-7.6149,-7.6217,-7.598,-7.527,-7.4559,-7.3815,-7.3172,-7.2563,-7.1785,-7.0838,-7.0297,-6.9925,-6.9553,-6.918,-6.918,-6.9214,-6.8876,-6.8538,-5.2861,-5.2861,-5.2861,-5.2861,-5.2861,-5.2861,-5.2861,-5.2861,-5.2861,-5.3256,-5.3758,-5.4336,-5.5541,-5.7072,-5.77,-5.8478,-5.9408,-5.9508,-5.9508,-5.9508,-5.9508,-5.9508,-6.0278,-6.3484,-6.5851,-6.7439,-6.9685,-7.0824,-7.0919,-7.0919,-7.0919,-7.0919,-7.0919,-7.0919,-7.0919,-7.0919,-7.1218,-7.1846,-7.2229,-7.2887,-7.3791,-7.4548,-7.4847,-7.4869,-7.4869,-7.4869,-7.4749,-7.439,-7.3821,-7.3103,-7.2265,-7.1348,-7.0247,-6.883,-6.7809,-6.7089,-6.64,-6.5742,-6.5622,-6.4994,-6.4874,-6.5353,-6.5592,-6.6192,-6.7004,-6.7184,-6.679,-6.6384,-6.4519,-6.4638,-6.6867,-6.9089,-7.065,-7.1963,-7.3601,-7.5202,-7.6115,-7.6521,-7.6589,-7.6908,-7.7164,-7.7551,-7.7566,-7.6671,-7.6603,-7.6792,-7.669,-7.6555,-7.6826,-7.713,-7.7468,-7.7773,-7.7773,-7.7773,-7.7604,-7.7333,-7.7063,-7.6927,-7.6995,-7.6961,-7.6284,-7.5473,-7.4695,-7.4119,-7.3646,-7.2766,-7.1819,-7.1379,-7.1007,-7.0703,-7.0398,-7.0364,-7.0263,-7.0128,-6.9925,-5.2861,-5.2861,-5.2861,-5.2861,-5.2861,-5.2861,-5.2861,-5.2911,-5.3181,-5.3607,-5.421,-5.4938,-5.6143,-5.7449,-5.8027,-5.8755,-5.9332,-5.9508,-5.9508,-5.9508,-5.956,-5.9997,-6.129,-6.3584,-6.5851,-6.6996,-6.8654,-6.9847,-7.0629,-7.0919,-7.0919,-7.0919,-7.0919,-7.0919,-7.0919,-7.0919,-7.1457,-7.2265,-7.2714,-7.3373,-7.427,-7.4659,-7.4869,-7.4869,-7.4869,-7.4869,-7.4839,-7.424,-7.3612,-7.2804,-7.1667,-7.047,-6.94,-6.8198,-6.7117,-6.6158,-6.5772,-6.5562,-6.5383,-6.5024,-6.4934,-6.5951,-6.6011,-6.64,-6.6791,-6.6973,-6.6613,-6.5892,-6.5432,-6.5673,-6.7054,-6.8724,-7.0392,-7.2514,-7.4366,-7.6101,-7.7063,-7.713,-7.7266,-7.7671,-7.7758,-7.8111,-7.8111,-7.8093,-7.7788,-7.7686,-7.7468,-7.7367,-7.757,-7.7908,-7.828,-7.8517,-7.8517,-7.8483,-7.8416,-7.8179,-7.7807,-7.7671,-7.7638,-7.7604,-7.7266,-7.6386,-7.5506,-7.4931,-7.4356,-7.3747,-7.2935,-7.2529,-7.2124,-7.1751,-7.1481,-7.1379,-7.1142,-7.0804,-7.0703,-5.2879,-5.2829,-5.2879,-5.2879,-5.2829,-5.2879,-5.2861,-5.2936,-5.3482,-5.3959,-5.4687,-5.5717,-5.6696,-5.7801,-5.8428,-5.8981,-5.9382,-5.9508,-5.9508,-5.9508,-5.9508,-6.0227,-6.1591,-6.2925,-6.421,-6.5,-6.7781,-6.9582,-7.0629,-7.0919,-7.0919,-7.0919,-7.0919,-7.0919,-7.0919,-7.1098,-7.1667,-7.2684,-7.3013,-7.3642,-7.4599,-7.4869,-7.4869,-7.4869,-7.4869,-7.4749,-7.454,-7.4001,-7.3402,-7.2714,-7.0859,-6.9692,-6.8854,-6.7747,-6.6609,-6.544,-6.5442,-6.5503,-6.5533,-6.5024,-6.5024,-6.6071,-6.6191,-6.64,-6.685,-6.6972,-6.6642,-6.6462,-6.6281,-6.6717,-6.7224,-6.8784,-7.0889,-7.3186,-7.5554,-7.7168,-7.7976,-7.7773,-7.828,-7.8855,-7.9144,-7.9398,-7.9431,-7.9379,-7.8939,-7.8533,-7.8314,-7.8247,-7.845,-7.8686,-7.9058,-7.9261,-7.9261,-7.9261,-7.9194,-7.9126,-7.8754,-7.8585,-7.845,-7.8314,-7.8247,-7.7671,-7.6826,-7.5608,-7.4931,-7.4424,-7.4052,-7.368,-7.3274,-7.2834,-7.2326,-7.1954,-7.165,-7.1413,-7.1278,-5.2653,-5.2277,-5.2729,-5.2653,-5.2352,-5.2729,-5.2861,-5.3005,-5.3507,-5.4034,-5.4687,-5.5742,-5.6922,-5.7801,-5.8478,-5.9006,-5.9408,-5.9508,-5.9508,-5.9508,-5.9508,-5.9997,-6.0278,-6.1215,-6.1865,-6.3948,-6.737,-7.0206,-7.0563,-7.0919,-7.0919,-7.0919,-7.0919,-7.0919,-7.1068,-7.1427,-7.2026,-7.2894,-7.3305,-7.4023,-7.4659,-7.4869,-7.4869,-7.4869,-7.4869,-7.4599,-7.4061,-7.3462,-7.2744,-7.1966,-7.0201,-6.9303,-6.8764,-6.7717,-6.6909,-6.6459,-6.5981,-6.5892,-6.6131,-6.5951,-6.6071,-6.661,-6.6759,-6.6789,-6.6939,-6.7,-6.685,-6.6851,-6.6854,-6.7088,-6.7224,-6.9128,-7.1249,-7.3515,-7.5823,-7.7874,-7.9261,-7.9769,-7.9735,-8.0242,-8.058,-8.0833,-8.0834,-8.0665,-8.009,-7.965,-7.9228,-7.9228,-7.9397,-7.9566,-7.9803,-7.9938,-8.0006,-8.0006,-8.0006,-7.9938,-7.9735,-7.9634,-7.9464,-7.9228,-7.9126,-7.8957,-7.8179,-7.6961,-7.598,-7.5405,-7.5067,-7.4695,-7.4322,-7.3815,-7.3138,-7.2462,-7.209,-7.1751,-7.1413,-5.2779,-5.2553,-5.2829,-5.2779,-5.2603,-5.2804,-5.2861,-5.3055,-5.3783,-5.431,-5.5013,-5.6294,-5.7349,-5.8027,-5.878,-5.9257,-5.9433,-5.9508,-5.9508,-5.9508,-5.9508,-5.9508,-5.9714,-6.038,-6.1655,-6.3794,-6.7239,-6.9449,-6.9582,-7.0468,-7.0824,-7.0919,-7.0919,-7.0919,-7.1038,-7.1517,-7.2265,-7.2954,-7.3821,-7.448,-7.4839,-7.4899,-7.4869,-7.4869,-7.4839,-7.454,-7.3911,-7.3253,-7.2595,-7.1697,-7.0051,-6.9213,-6.8645,-6.7867,-6.7,-6.6881,-6.6401,-6.6131,-6.64,-6.6161,-6.6281,-6.6849,-6.6999,-6.6999,-6.6999,-6.6999,-6.6999,-6.7,-6.7094,-6.7514,-6.8767,-7.0141,-7.2445,-7.5411,-7.7497,-7.9263,-8.0784,-8.1528,-8.1697,-8.1663,-8.1968,-8.2238,-8.2441,-8.2053,-8.1342,-8.0801,-8.0242,-8.0141,-8.0209,-8.0209,-8.0209,-8.0209,-8.0175,-8.0175,-8.0209,-8.0209,-8.0209,-8.0209,-8.0175,-7.9938,-7.9735,-7.9431,-7.9025,-7.8247,-7.7401,-7.6454,-7.5743,-7.527,-7.4999,-7.4762,-7.4086,-7.3375,-7.2631,-7.209,-7.1751,-5.2854,-5.2779,-5.2879,-5.2854,-5.2779,-5.2904,-5.2861,-5.313,-5.3934,-5.4411,-5.4838,-5.652,-5.7575,-5.8127,-5.888,-5.9483,-5.9508,-5.9508,-5.9508,-5.9508,-5.9508,-5.9508,-5.9997,-6.0912,-6.1831,-6.2259,-6.5064,-6.7604,-6.9286,-7.0272,-7.0759,-7.0979,-7.0979,-7.1098,-7.1278,-7.2086,-7.2565,-7.3462,-7.442,-7.5048,-7.5078,-7.4958,-7.4869,-7.4869,-7.4869,-7.451,-7.3672,-7.3193,-7.2445,-7.1487,-7.0231,-6.9183,-6.8851,-6.7897,-6.715,-6.6912,-6.6461,-6.6251,-6.6251,-6.6281,-6.652,-6.6939,-6.6999,-6.7059,-6.7178,-6.7117,-6.6997,-6.703,-6.7485,-6.8481,-7.0281,-7.1576,-7.4171,-7.7298,-7.9461,-8.0851,-8.19,-8.2611,-8.2949,-8.3136,-8.3426,-8.3493,-8.3456,-8.2423,-8.1544,-8.1257,-8.075,-8.0175,-8.0209,-8.0209,-8.0209,-8.0209,-8.0209,-8.0209,-8.0209,-8.0209,-8.0209,-8.0209,-8.0209,-8.0073,-7.9938,-7.9735,-7.9329,-7.8923,-7.8348,-7.7435,-7.6623,-7.598,-7.5845,-7.554,-7.4965,-7.4187,-7.3206,-7.2462,-7.1988,-5.2628,-5.2251,-5.2729,-5.2653,-5.2352,-5.2729,-5.2861,-5.3005,-5.3582,-5.411,-5.4662,-5.5917,-5.7072,-5.8052,-5.9031,-5.9458,-5.9508,-5.9508,-5.9508,-5.9508,-5.9508,-5.9508,-5.9508,-5.9637,-6.0227,-6.0904,-6.245,-6.5992,-6.8739,-7.0153,-7.0884,-7.0973,-7.1457,-7.1787,-7.1876,-7.2804,-7.3971,-7.4629,-7.5318,-7.5707,-7.5647,-7.5168,-7.4929,-7.4869,-7.4809,-7.43,-7.3343,-7.2924,-7.2385,-7.1128,-7.032,-6.9564,-6.9019,-6.831,-6.7623,-6.7205,-6.6936,-6.6849,-6.6879,-6.6879,-6.6969,-6.7208,-6.7178,-6.7328,-6.7535,-6.7322,-6.7021,-6.7029,-6.8118,-6.9849,-7.1964,-7.3443,-7.6115,-7.8531,-8.0681,-8.1494,-8.2408,-8.3016,-8.3422,-8.3727,-8.3746,-8.4118,-8.4268,-8.2912,-8.1763,-8.1544,-8.1257,-8.0716,-8.0344,-8.0445,-8.0445,-8.0479,-8.0242,-8.0209,-8.0209,-8.0209,-8.0209,-8.0209,-8.0209,-8.0209,-8.0073,-7.9904,-7.9701,-7.9295,-7.8822,-7.8517,-7.7942,-7.7367,-7.6893,-7.6284,-7.5676,-7.4695,-7.3612,-7.2935,-7.2462,-5.2804,-5.2578,-5.2829,-5.2804,-5.2603,-5.2829,-5.2861,-5.3055,-5.3482,-5.4009,-5.4787,-5.6093,-5.7449,-5.8654,-5.9357,-5.9483,-5.9508,-5.9508,-5.9508,-5.9508,-5.9508,-5.9508,-5.9508,-5.9535,-5.9486,-5.9971,-6.1551,-6.4017,-6.7186,-6.9044,-6.9833,-7.1392,-7.1757,-7.2116,-7.2475,-7.3402,-7.3911,-7.439,-7.4929,-7.5497,-7.5617,-7.5288,-7.4869,-7.4869,-7.4869,-7.4151,-7.3283,-7.2894,-7.2235,-7.1068,-7.029,-7.0115,-6.9782,-6.9217,-6.8402,-6.822,-6.8163,-6.7956,-6.7627,-6.7567,-6.7717,-6.8046,-6.8106,-6.8315,-6.8343,-6.7763,-6.7522,-6.8136,-7.0312,-7.2123,-7.3675,-7.5455,-7.8097,-8.0316,-8.1596,-8.2137,-8.2712,-8.3084,-8.3558,-8.3828,-8.4133,-8.4418,-8.4621,-8.3843,-8.281,-8.2457,-8.2171,-8.1663,-8.1291,-8.1156,-8.1054,-8.0919,-8.0547,-8.0209,-8.0209,-8.0209,-8.0209,-8.0209,-8.0209,-8.0209,-8.0209,-8.0073,-7.987,-7.987,-7.9667,-7.9363,-7.9092,-7.828,-7.7401,-7.686,-7.6386,-7.527,-7.4221,-7.3984,-7.351,-5.2804,-5.2861,-5.2861,-5.2861,-5.2861,-5.2861,-5.2861,-5.2911,-5.3306,-5.3909,-5.4913,-5.642,-5.8027,-5.9081,-5.9382,-5.9508,-5.9508,-5.9508,-5.9508,-5.9508,-5.9508,-5.9508,-5.9508,-5.951,-5.9489,-5.951,-6.0655,-6.3331,-6.5669,-6.7244,-6.9108,-7.1774,-7.2385,-7.2684,-7.3193,-7.3821,-7.436,-7.4689,-7.5078,-7.5497,-7.5677,-7.5228,-7.4958,-7.4869,-7.4749,-7.433,-7.3343,-7.2954,-7.2265,-7.1368,-7.059,-7.0445,-7.0479,-6.9816,-6.9426,-6.9276,-6.9157,-6.8794,-6.8525,-6.8435,-6.8585,-6.8854,-6.9183,-6.9093,-6.8914,-6.8177,-6.8953,-7.0799,-7.2489,-7.4139,-7.5387,-7.6998,-7.9036,-8.0905,-8.234,-8.2813,-8.3219,-8.3592,-8.3693,-8.3727,-8.408,-8.4722,-8.479,-8.4553,-8.4012,-8.349,-8.3016,-8.2611,-8.2272,-8.2002,-8.1765,-8.1562,-8.1054,-8.0648,-8.0547,-8.0479,-8.0378,-8.0209,-8.0209,-8.0209,-8.0209,-8.0209,-8.0107,-8.0141,-8.0209,-8.004,-7.9634,-7.872,-7.7807,-7.7299,-7.669,-7.5777,-7.5033,-7.4762,-7.4289,-5.2452,-5.2861,-5.2929,-5.2836,-5.2861,-5.2861,-5.2861,-5.2929,-5.3005,-5.3708,-5.5039,-5.6771,-5.8152,-5.883,-5.9307,-5.9508,-5.9508,-5.9508,-5.9508,-5.9508,-5.9508,-5.9508,-5.9508,-5.9483,-5.9535,-5.9511,-6.0252,-6.2787,-6.5819,-6.6743,-6.8924,-7.1473,-7.2917,-7.3552,-7.3971,-7.436,-7.4899,-7.5198,-7.5497,-7.5587,-7.5587,-7.5258,-7.4899,-7.4869,-7.4839,-7.454,-7.3851,-7.3253,-7.2565,-7.1697,-7.1038,-7.0709,-7.0714,-7.0295,-7.0085,-7.0149,-6.9696,-6.9482,-6.9512,-6.9213,-6.9004,-6.9183,-6.9482,-6.9722,-6.9393,-7.0217,-7.1775,-7.4026,-7.5185,-7.5855,-7.6929,-7.8164,-8.0148,-8.1245,-8.2509,-8.2949,-8.3422,-8.4065,-8.4099,-8.3776,-8.4094,-8.4784,-8.5824,-8.5811,-8.5283,-8.4742,-8.42,-8.3795,-8.3186,-8.2847,-8.2577,-8.2238,-8.1663,-8.1291,-8.1122,-8.0919,-8.0547,-8.031,-8.0209,-8.0209,-8.0209,-8.0209,-8.0209,-8.0209,-8.0209,-8.0209,-8.004,-7.9058,-7.8247,-7.7705,-7.7029,-7.6251,-7.5371,-7.4796,-7.439,-5.1925,-5.2402,-5.2427,-5.2628,-5.2861,-5.2861,-5.2861,-5.298,-5.3281,-5.4461,-5.6118,-5.7374,-5.8378,-5.9056,-5.9332,-5.9508,-5.9508,-5.9508,-5.9508,-5.9508,-5.9508,-5.9508,-5.9508,-5.9583,-5.9506,-5.9629,-6.0013,-6.245,-6.6642,-6.744,-6.9833,-7.2198,-7.3754,-7.4091,-7.448,-7.4809,-7.5108,-7.5228,-7.5347,-7.5288,-7.5228,-7.5108,-7.4869,-7.4869,-7.4869,-7.454,-7.3911,-7.3253,-7.2595,-7.1936,-7.1278,-7.1009,-7.0919,-7.059,-7.0654,-7.0839,-7.0295,-7.029,-7.035,-7.0021,-6.9782,-7.0171,-7.041,-7.041,-7.0055,-7.0688,-7.2489,-7.4765,-7.7397,-7.8271,-7.7708,-7.9582,-8.1585,-8.2135,-8.2644,-8.3152,-8.3693,-8.4403,-8.4809,-8.4587,-8.4662,-8.5094,-8.6223,-8.7342,-8.6711,-8.6048,-8.5486,-8.4945,-8.4403,-8.3828,-8.3592,-8.3084,-8.2475,-8.1731,-8.1494,-8.1122,-8.0682,-8.0412,-8.0209,-8.0209,-8.0209,-8.0209,-8.0209,-8.0209,-8.0209,-8.0209,-7.9904,-7.9261,-7.8653,-7.8111,-7.7536,-7.6893,-7.598,-7.4965,-7.4835,-5.1599,-5.2076,-5.2101,-5.2427,-5.2836,-5.2861,-5.2861,-5.3005,-5.3482,-5.4938,-5.7072,-5.7801,-5.8629,-5.9307,-5.9508,-5.9508,-5.9508,-5.9508,-5.9508,-5.9558,-5.9659,-5.9709,-5.9809,-5.9857,-6.0004,-5.9947,-6.1579,-6.4281,-6.8401,-6.9076,-7.1668,-7.3862,-7.4779,-7.5078,-7.5078,-7.5377,-7.5437,-7.5467,-7.5467,-7.5288,-7.5288,-7.5437,-7.5347,-7.5318,-7.5258,-7.5108,-7.439,-7.3672,-7.2774,-7.2116,-7.1517,-7.0979,-7.0919,-7.0919,-7.0919,-7.0919,-7.0919,-7.0979,-7.1009,-7.0709,-7.047,-7.0709,-7.0799,-7.0859,-7.0873,-7.1059,-7.2611,-7.6896,-7.9309,-8.0311,-7.9053,-8.0905,-8.1997,-8.2408,-8.3389,-8.3964,-8.4336,-8.4911,-8.5317,-8.5466,-8.5641,-8.5936,-8.681,-8.7931,-8.7524,-8.686,-8.6298,-8.596,-8.5757,-8.5215,-8.4708,-8.4099,-8.3389,-8.2577,-8.1799,-8.1393,-8.0953,-8.0378,-8.0209,-8.0209,-8.0209,-8.0209,-8.0209,-8.0209,-8.0209,-8.0209,-7.9972,-7.96,-7.9092,-7.8483,-7.7773,-7.6927,-7.6217,-7.5351,-7.5795,-5.1574,-5.2076,-5.2101,-5.2427,-5.2836,-5.2861,-5.2955,-5.3105,-5.3708,-5.5164,-5.7198,-5.8227,-5.893,-5.9408,-5.9508,-5.9508,-5.9508,-5.9508,-5.9533,-5.9684,-5.9985,-6.0211,-6.0462,-6.0559,-6.0526,-6.0659,-6.287,-6.645,-7.1119,-7.1654,-7.405,-7.5643,-7.6305,-7.6245,-7.5976,-7.6485,-7.6754,-7.6754,-7.6664,-7.6275,-7.6066,-7.6305,-7.6185,-7.5976,-7.5886,-7.5766,-7.5198,-7.4061,-7.3223,-7.2624,-7.1637,-7.1098,-7.0919,-7.0919,-7.0919,-7.0919,-7.0949,-7.1248,-7.1727,-7.1218,-7.1009,-7.1038,-7.1128,-7.1038,-7.0919,-7.1349,-7.3137,-7.765,-8.0812,-8.168,-8.1685,-8.195,-8.2457,-8.3219,-8.4268,-8.4911,-8.5317,-8.579,-8.6264,-8.6602,-8.6831,-8.7126,-8.7811,-8.8328,-8.8023,-8.7583,-8.7076,-8.6839,-8.6805,-8.6298,-8.5655,-8.4911,-8.4133,-8.3118,-8.2272,-8.1697,-8.119,-8.0547,-8.0209,-8.0209,-8.0209,-8.0209,-8.0209,-8.0209,-8.0209,-8.0209,-8.0209,-8.0141,-7.9498,-7.8822,-7.7638,-7.6758,-7.6115,-7.5859,-7.6245,-5.1046,-5.1599,-5.195,-5.2427,-5.2836,-5.2861,-5.313,-5.3632,-5.4838,-5.642,-5.7926,-5.8629,-5.9006,-5.9357,-5.9508,-5.9508,-5.9508,-5.9508,-5.9583,-6.0035,-6.0311,-6.0563,-6.0864,-6.1111,-6.1071,-6.1667,-6.4349,-6.9812,-7.6214,-7.486,-7.4909,-7.6319,-7.7442,-7.7083,-7.6724,-7.6784,-7.6814,-7.6814,-7.6784,-7.6694,-7.6574,-7.6754,-7.6784,-7.6544,-7.6514,-7.6365,-7.5946,-7.4629,-7.3821,-7.3043,-7.1966,-7.1368,-7.1038,-7.0919,-7.0919,-7.1038,-7.1218,-7.1876,-7.2206,-7.1996,-7.1577,-7.1577,-7.1457,-7.1248,-7.1009,-7.0893,-7.3886,-7.7919,-8.149,-8.2402,-8.2777,-8.3437,-8.4099,-8.4843,-8.5655,-8.6061,-8.6501,-8.7076,-8.755,-8.7719,-8.7934,-8.8171,-8.8666,-8.8734,-8.8463,-8.8429,-8.8023,-8.7753,-8.7651,-8.6974,-8.6298,-8.5587,-8.4742,-8.3693,-8.278,-8.2137,-8.1224,-8.0445,-8.0209,-8.0209,-8.0209,-8.0209,-8.0209,-8.0209,-8.0209,-8.0209,-8.0209,-8.0141,-7.9769,-7.9058,-7.7908,-7.7232,-7.6893,-7.6657,-7.6651,-5.0946,-5.1348,-5.2076,-5.2703,-5.3155,-5.3181,-5.3683,-5.4687,-5.5968,-5.7349,-5.8504,-5.888,-5.9156,-5.9433,-5.9508,-5.9508,-5.9508,-5.9734,-5.9859,-6.0387,-6.0788,-6.114,-6.1466,-6.1843,-6.1995,-6.2916,-6.6423,-7.1906,-7.7896,-7.65,-7.665,-7.7814,-7.846,-7.8699,-7.834,-7.8041,-7.7622,-7.7652,-7.7652,-7.7502,-7.7352,-7.7352,-7.7442,-7.7263,-7.7083,-7.6904,-7.6185,-7.5318,-7.439,-7.3343,-7.2445,-7.1601,-7.1153,-7.0914,-7.0919,-7.1098,-7.1787,-7.2475,-7.2894,-7.3283,-7.2984,-7.2684,-7.2056,-7.1362,-7.0988,-7.0921,-7.4948,-7.892,-8.22,-8.3504,-8.4437,-8.5128,-8.596,-8.6704,-8.7313,-8.7753,-8.7753,-8.8328,-8.8497,-8.8666,-8.8598,-8.8903,-8.9106,-8.9072,-8.8903,-8.897,-8.9004,-8.87,-8.826,-8.7448,-8.6738,-8.6027,-8.508,-8.3896,-8.305,-8.2441,-8.1494,-8.0378,-8.0209,-8.0209,-8.0209,-8.0209,-8.0209,-8.0175,-8.0175,-8.0175,-8.0175,-8.004,-7.9701,-7.9092,-7.8213,-7.7773,-7.7671,-7.7232,-7.6792,-5.1272,-5.1448,-5.2477,-5.3231,-5.3632,-5.3808,-5.4762,-5.6219,-5.6846,-5.775,-5.878,-5.9282,-5.9458,-5.9483,-5.9508,-5.9558,-5.9659,-6.006,-6.0362,-6.0713,-6.1366,-6.1793,-6.237,-6.2973,-6.3002,-6.4909,-6.8226,-7.2963,-7.8272,-7.8315,-7.8738,-7.9554,-8.0016,-8.0105,-7.9836,-7.9387,-7.8908,-7.8849,-7.8849,-7.8639,-7.8489,-7.8609,-7.8489,-7.828,-7.8011,-7.7502,-7.6724,-7.5736,-7.4779,-7.3732,-7.2744,-7.1768,-7.1231,-7.0968,-7.0944,-7.1398,-7.2415,-7.3133,-7.3821,-7.421,-7.4061,-7.347,-7.2535,-7.1517,-7.1028,-7.1501,-7.5759,-8.1277,-8.5637,-8.5838,-8.6311,-8.7122,-8.7955,-8.8666,-8.9342,-8.941,-8.9173,-8.9275,-8.9342,-8.9309,-8.9038,-8.9106,-8.9106,-8.9106,-8.9106,-8.9106,-8.9038,-8.8801,-8.8294,-8.7482,-8.6805,-8.6332,-8.5283,-8.4031,-8.3219,-8.2543,-8.1596,-8.0445,-8.0242,-8.0209,-8.0209,-8.0209,-8.0209,-8.0175,-8.0141,-8.0073,-7.987,-7.9769,-7.96,-7.8923,-7.8179,-7.7841,-7.757,-7.686,-7.6496,-5.1272,-5.1448,-5.2854,-5.3557,-5.3858,-5.4988,-5.6018,-5.6872,-5.7801,-5.8654,-5.9282,-5.9408,-5.9483,-5.9508,-5.9508,-5.9734,-6.001,-6.0337,-6.0914,-6.1416,-6.1943,-6.2521,-6.3099,-6.3601,-6.3836,-6.5626,-6.9187,-7.4132,-7.801,-7.9217,-7.9896,-8.0464,-8.0853,-8.0913,-8.0794,-8.0434,-8.0285,-8.0165,-8.0135,-7.9866,-7.9776,-7.9926,-7.9656,-7.9327,-7.9058,-7.837,-7.7113,-7.6514,-7.5497,-7.4061,-7.3612,-7.2723,-7.1007,-7.1791,-7.2445,-7.3013,-7.3522,-7.3881,-7.442,-7.433,-7.418,-7.4459,-7.438,-7.3144,-7.2231,-7.3169,-7.7058,-8.3355,-8.7988,-8.8451,-8.8182,-8.8678,-8.95,-9.0165,-9.0514,-9.0139,-8.9926,-8.985,-8.985,-8.9342,-8.9106,-8.9106,-8.9106,-8.9106,-8.9106,-8.9106,-8.897,-8.8767,-8.8294,-8.7448,-8.6738,-8.6264,-8.5384,-8.4099,-8.3152,-8.2408,-8.1494,-8.0648,-8.0378,-8.0209,-8.0209,-8.0209,-8.0209,-8.0006,-7.9701,-7.9532,-7.9397,-7.9228,-7.8957,-7.872,-7.8111,-7.7773,-7.7401,-7.6657,-7.6217,-5.1548,-5.2076,-5.3181,-5.4059,-5.4938,-5.6495,-5.7424,-5.7801,-5.8428,-5.9006,-5.9458,-5.9483,-5.9508,-5.9558,-5.9734,-6.001,-6.0311,-6.0914,-6.1517,-6.2119,-6.2546,-6.3224,-6.3776,-6.4228,-6.4387,-6.6246,-6.9613,-7.4665,-7.8414,-8.0188,-8.0883,-8.1153,-8.1362,-8.1542,-8.1601,-8.1631,-8.1601,-8.1362,-8.1123,-8.0913,-8.0853,-8.0853,-8.0524,-8.0255,-8.0045,-7.8908,-7.7711,-7.7293,-7.6036,-7.4719,-7.442,-7.3604,-7.247,-7.332,-7.3507,-7.3926,-7.3821,-7.418,-7.4659,-7.4869,-7.4719,-7.5196,-7.6498,-7.6773,-7.5991,-7.6336,-8.1322,-8.6779,-8.9184,-9.0909,-9.0357,-9.0067,-9.0871,-9.1585,-9.1126,-9.0665,-9.0462,-9.0334,-8.9884,-8.9275,-8.9106,-8.9106,-8.9106,-8.9106,-8.9106,-8.9106,-8.8835,-8.8429,-8.7955,-8.7245,-8.6569,-8.6027,-8.5182,-8.4133,-8.3253,-8.2408,-8.1629,-8.0885,-8.0344,-8.0209,-8.0209,-8.0107,-8.004,-7.9634,-7.9126,-7.8923,-7.8686,-7.845,-7.8179,-7.7942,-7.7705,-7.7266,-7.6826,-7.6386,-7.6149,-5.2,-5.2955,-5.3632,-5.5013,-5.657,-5.8102,-5.8805,-5.8905,-5.8956,-5.9106,-5.9458,-5.9508,-5.9533,-5.9734,-6.0035,-6.0387,-6.0889,-6.1567,-6.222,-6.2923,-6.34,-6.3977,-6.453,-6.5032,-6.5082,-6.6637,-7.0123,-7.5515,-7.9577,-8.1231,-8.1512,-8.1871,-8.232,-8.2469,-8.2409,-8.2439,-8.238,-8.226,-8.1721,-8.1272,-8.1183,-8.1033,-8.0883,-8.0764,-8.0285,-7.9477,-7.8609,-7.7682,-7.6634,-7.5766,-7.5078,-7.4646,-7.4662,-7.4616,-7.4391,-7.4384,-7.427,-7.4629,-7.5138,-7.5497,-7.6163,-7.6925,-7.8243,-7.9428,-7.9186,-7.8617,-8.2916,-8.8169,-9.1064,-9.1716,-9.1315,-9.1211,-9.1716,-9.1892,-9.1539,-9.0976,-9.0534,-9.0256,-8.9647,-8.9173,-8.9106,-8.9106,-8.9106,-8.9106,-8.9106,-8.9106,-8.8937,-8.8429,-8.7651,-8.7042,-8.6366,-8.579,-8.5046,-8.42,-8.3389,-8.2577,-8.1934,-8.1224,-8.0716,-8.0445,-8.0615,-8.031,-7.987,-7.9261,-7.8585,-7.8213,-7.7942,-7.7604,-7.7333,-7.7266,-7.6995,-7.6555,-7.6251,-7.6183,-7.6217,-5.2678,-5.3105,-5.4863,-5.6796,-5.8629,-5.9131,-5.9834,-6.0512,-6.0111,-5.9759,-5.9558,-5.9533,-5.9734,-6.0085,-6.0286,-6.0713,-6.1667,-6.2245,-6.2923,-6.3525,-6.4103,-6.4705,-6.5327,-6.6051,-6.6035,-6.755,-7.1176,-7.6792,-8.043,-8.1719,-8.208,-8.2469,-8.2769,-8.2769,-8.2769,-8.2769,-8.2814,-8.2784,-8.2409,-8.205,-8.208,-8.214,-8.211,-8.1542,-8.0883,-7.9956,-7.9058,-7.8041,-7.7263,-7.6574,-7.6365,-7.5976,-7.5656,-7.5224,-7.4856,-7.4817,-7.5108,-7.5407,-7.5736,-7.6345,-7.7274,-7.8827,-8.0187,-8.108,-8.1406,-8.1167,-8.3525,-8.8875,-9.2001,-9.2221,-9.2295,-9.2348,-9.2345,-9.2162,-9.1691,-9.1092,-9.0514,-9.0019,-8.941,-8.9275,-8.9173,-8.9173,-8.9207,-8.914,-8.9106,-8.9106,-8.9106,-8.8632,-8.7617,-8.6839,-8.6061,-8.5452,-8.5012,-8.4234,-8.3456,-8.2949,-8.2374,-8.2069,-8.1697,-8.1393,-8.1054,-8.0344,-7.9667,-7.8754,-7.8044,-7.7705,-7.7232,-7.6555,-7.6386,-7.6657,-7.686,-7.669,-7.6792,-7.6758,-7.6724,-5.3356,-5.426,-5.6394,-5.8152,-5.9433,-6.0035,-6.0613,-6.104,-6.0839,-6.0387,-5.9834,-5.9659,-5.9809,-6.0362,-6.0563,-6.1316,-6.232,-6.2948,-6.3701,-6.4354,-6.4906,-6.5534,-6.6293,-6.7434,-6.8824,-7.0334,-7.5337,-7.987,-8.163,-8.217,-8.2575,-8.2739,-8.2769,-8.2769,-8.2769,-8.2769,-8.2769,-8.2769,-8.2769,-8.2769,-8.2769,-8.2679,-8.2724,-8.205,-8.1272,-8.0405,-7.9627,-7.8639,-7.7711,-7.7263,-7.7094,-7.6724,-7.6435,-7.6265,-7.5985,-7.5886,-7.6066,-7.6305,-7.6574,-7.7324,-7.8338,-7.9934,-8.1639,-8.2367,-8.1819,-8.2013,-8.6071,-9.0942,-9.2632,-9.3091,-9.2599,-9.252,-9.2674,-9.2625,-9.1074,-8.9799,-8.9817,-8.9884,-8.9681,-8.9782,-8.985,-9.0087,-9.0019,-8.9715,-8.9579,-8.9106,-8.9106,-8.8531,-8.7583,-8.6974,-8.6095,-8.5384,-8.5114,-8.4403,-8.3558,-8.3219,-8.2983,-8.2746,-8.2611,-8.1934,-8.1291,-8.0276,-7.9363,-7.872,-7.801,-7.7333,-7.6792,-7.642,-7.6386,-7.6792,-7.6961,-7.7029,-7.7198,-7.7468,-7.7671,-5.4185,-5.5917,-5.7926,-5.9182,-5.9834,-6.0814,-6.1341,-6.1416,-6.1316,-6.1014,-6.0537,-6.0035,-6.006,-6.0462,-6.1065,-6.1994,-6.2822,-6.35,-6.4354,-6.5233,-6.5886,-6.6388,-6.7756,-6.9583,-7.1402,-7.4664,-7.9242,-8.0881,-8.205,-8.2409,-8.2724,-8.2739,-8.2769,-8.2769,-8.2769,-8.2769,-8.2769,-8.2769,-8.2769,-8.2769,-8.2769,-8.2769,-8.2784,-8.229,-8.1661,-8.0973,-8.0225,-7.9357,-7.822,-7.7902,-7.7764,-7.7464,-7.7124,-7.7044,-7.6824,-7.6794,-7.7023,-7.7143,-7.7412,-7.837,-7.9238,-8.0384,-8.2274,-8.3,-8.2527,-8.4789,-8.8828,-9.1297,-9.2991,-9.3457,-9.2997,-9.2815,-9.2995,-9.2659,-9.0727,-8.9307,-8.9667,-9.0019,-9.0188,-9.0357,-9.0594,-9.0831,-9.0527,-9.0256,-8.985,-8.9342,-8.8767,-8.8125,-8.755,-8.7313,-8.6771,-8.6129,-8.5689,-8.4843,-8.3896,-8.3727,-8.3693,-8.349,-8.3253,-8.2408,-8.1596,-8.0784,-7.9938,-7.9058,-7.8314,-7.7773,-7.7367,-7.7096,-7.7096,-7.7198,-7.7266,-7.7536,-7.8077,-7.8382,-7.8822,-5.5491,-5.7549,-5.883,-5.9935,-6.0864,-6.1567,-6.2094,-6.2395,-6.2019,-6.1768,-6.1542,-6.114,-6.0964,-6.1065,-6.1592,-6.2496,-6.3601,-6.4178,-6.4982,-6.5911,-6.6639,-6.7141,-6.8703,-7.1635,-7.4414,-7.7836,-8.1,-8.2223,-8.2409,-8.2619,-8.2769,-8.2769,-8.2769,-8.2769,-8.2769,-8.2769,-8.2769,-8.2769,-8.2798,-8.2798,-8.2769,-8.2769,-8.2769,-8.2409,-8.202,-8.1362,-8.0674,-7.9926,-7.9208,-7.8771,-7.8525,-7.8123,-7.7973,-7.7794,-7.7573,-7.7741,-7.8041,-7.834,-7.8819,-7.996,-8.0834,-8.2429,-8.413,-8.4691,-8.5057,-8.6579,-8.9934,-9.2372,-9.3591,-9.3601,-9.3301,-9.3301,-9.3385,-9.2642,-9.1186,-9.0816,-9.076,-9.0932,-9.1034,-9.1135,-9.1237,-9.1068,-9.0628,-9.0324,-9.0019,-8.9545,-8.914,-8.8463,-8.7854,-8.7617,-8.738,-8.6805,-8.623,-8.5554,-8.4742,-8.464,-8.4573,-8.4302,-8.3862,-8.2983,-8.2205,-8.1562,-8.0682,-7.9566,-7.9058,-7.8619,-7.8247,-7.801,-7.7942,-7.8044,-7.7874,-7.8077,-7.872,-7.9431,-7.9972]},{"header":{"parameterUnit":"m.s-1","parameterCategory":1,"la1":31.0,"la2":29.5877,"lo1":-88.7671,"lo2":-86.6584,"dx":0.0162,"dy":0.0185,"nx":115,"ny":88,"refTime":"2023-01-17T18:00:00:Z","depth":0,"parameterNumber":3,"parameterNumberName":"V-component_of_WINDS"},"data":[0.0,0.0,0.0,0.0,0.0,0.0,0.0,0.0,0.0,0.0,0.0,0.0,0.0,0.0,0.0,0.0,0.0,0.0,0.0,0.0,0.0,0.0,0.0,0.0,0.0,0.0,0.0,0.0,0.0,0.0,0.0,0.0,0.0,0.0,0.0,0.0,0.0,0.0,0.0,0.0,0.0,0.0,0.0,0.0,0.0,0.0,0.0,0.0,0.0,0.0,0.0,0.0,0.0,0.0,0.0,0.0,0.0,0.0,0.0,0.0,0.0,0.0,0.0,0.0,0.0,0.0,0.0,0.0,0.0,0.0,0.0,0.0,0.0,0.0,0.0,0.0,0.0,0.0,0.0,0.0,0.0,0.0,0.0,0.0,0.0,0.0,0.0,0.0,0.0,0.0,0.0,0.0,0.0,0.0,0.0,0.0,0.0,0.0,0.0,0.0,0.0,0.0,0.0,0.0,0.0,0.0,0.0,0.0,0.0,0.0,0.0,0.0,0.0,0.0,0.0,0.0,0.0,0.0,0.0,0.0,0.0,0.0,0.0,0.0,0.0,0.0,0.0,0.0,0.0,0.0,0.0,0.0,0.0,0.0,0.0,0.0,0.0,0.0,0.0,0.0,0.0,0.0,0.0,0.0,0.0,0.0,0.0,0.0,0.0,0.0,0.0,0.0,0.0,0.0,0.0,0.0,0.0,0.0,0.0,0.0,0.0,0.0,0.0,0.0,0.0,0.0,0.0,0.0,0.0,0.0,0.0,0.0,0.0,0.0,0.0,0.0,0.0,0.0,0.0,0.0,0.0,0.0,0.0,0.0,0.0,0.0,0.0,0.0,0.0,0.0,0.0,0.0,0.0,0.0,0.0,0.0,0.0,0.0,0.0,0.0,0.0,0.0,0.0,0.0,0.0,0.0,0.0,0.0,0.0,0.0,0.0,0.0,0.0,0.0,0.0,0.0,0.0,0.0,0.0,0.0,0.0,0.0,0.0,0.0,0.0,0.0,0.0,0.0,0.0,0.0,0.0,0.0,0.0,0.0,0.0,0.0,0.0,0.0,0.0,0.0,0.0,0.0,0.0,0.0,0.0,0.0,0.0,0.0,0.0,0.0,0.0,0.0,0.0,0.0,0.0,0.0,0.0,0.0,0.0,0.0,0.0,0.0,0.0,0.0,0.0,0.0,0.0,0.0,0.0,0.0,0.0,0.0,0.0,0.0,0.0,0.0,0.0,0.0,0.0,0.0,0.0,0.0,0.0,0.0,0.0,0.0,0.0,0.0,0.0,0.0,0.0,0.0,0.0,0.0,0.0,0.0,0.0,0.0,0.0,0.0,0.0,0.0,0.0,0.0,0.0,0.0,0.0,0.0,0.0,0.0,0.0,0.0,0.0,0.0,0.0,0.0,0.0,0.0,0.0,0.0,0.0,0.0,0.0,0.0,0.0,0.0,0.0,0.0,0.0,0.0,0.0,0.0,0.0,0.0,0.0,0.0,0.0,0.0,0.0,0.0,0.0,0.0,0.0,0.0,0.0,0.0,0.0,0.0,0.0,0.0,0.0,0.0,0.0,0.0,0.0,0.0,0.0,0.0,0.0,0.0,0.0,0.0,0.0,0.0,0.0,0.0,0.0,0.0,0.0,0.0,0.0,0.0,0.0,0.0,0.0,0.0,0.0,0.0,0.0,0.0,0.0,0.0,0.0,0.0,0.0,0.0,0.0,0.0,0.0,0.0,0.0,0.0,0.0,0.0,0.0,0.0,0.0,0.0,0.0,0.0,0.0,0.0,0.0,0.0,0.0,0.0,0.0,0.0,0.0,0.0,0.0,0.0,0.0,0.0,0.0,0.0,0.0,0.0,0.0,0.0,0.0,0.0,0.0,0.0,0.0,0.0,0.0,0.0,0.0,0.0,0.0,0.0,0.0,0.0,0.0,0.0,0.0,0.0,0.0,0.0,0.0,0.0,0.0,0.0,0.0,0.0,0.0,0.0,0.0,0.0,0.0,0.0,0.0,0.0,0.0,0.0,0.0,0.0,0.0,0.0,0.0,0.0,0.0,0.0,0.0,0.0,0.0,0.0,0.0,0.0,0.0,0.0,0.0,0.0,0.0,0.0,0.0,0.0,0.0,0.0,0.0,0.0,0.0,0.0,0.0,0.0,0.0,0.0,0.0,0.0,0.0,0.0,0.0,0.0,0.0,0.0,0.0,0.0,0.0,0.0,0.0,0.0,0.0,0.0,0.0,0.0,0.0,0.0,0.0,0.0,0.0,0.0,0.0,0.0,0.0,0.0,0.0,0.0,0.0,0.0,0.0,0.0,0.0,0.0,0.0,0.0,0.0,0.0,0.0,0.0,0.0,0.0,0.0,0.0,0.0,0.0,0.0,0.0,0.0,0.0,0.0,0.0,0.0,0.0,0.0,0.0,0.0,0.0,0.0,0.0,0.0,0.0,0.0,0.0,0.0,0.0,0.0,0.0,0.0,0.0,0.0,0.0,0.0,0.0,0.0,0.0,0.0,0.0,0.0,0.0,0.0,0.0,0.0,0.0,0.0,0.0,0.0,0.0,0.0,0.0,0.0,0.0,0.0,0.0,0.0,0.0,0.0,0.0,0.0,0.0,0.0,0.0,0.0,0.0,0.0,0.0,0.0,0.0,0.0,0.0,0.0,0.0,0.0,0.0,0.0,0.0,0.0,0.0,0.0,0.0,0.0,0.0,0.0,0.0,0.0,0.0,0.0,0.0,0.0,0.0,0.0,0.0,0.0,0.0,0.0,0.0,0.0,0.0,0.0,0.0,0.0,0.0,0.0,0.0,0.0,0.0,0.0,0.0,0.0,0.0,0.0,0.0,0.0,0.0,0.0,0.0,0.0,0.0,0.0,0.0,0.0,0.0,0.0,0.0,0.0,0.0,0.0,0.0,0.0,0.0,0.0,0.0,0.0,0.0,0.0,0.0,0.0,0.0,0.0,0.0,0.0,0.0,0.0,0.0,0.0,0.0,0.0,0.0,0.0,0.0,0.0,0.0,0.0,0.0,0.0,0.0,0.0,0.0,0.0,0.0,0.0,0.0,0.0,0.0,0.0,0.0,0.0,0.0,0.0,0.0,0.0,0.0,0.0,0.0,0.0,0.0,0.0,0.0,0.0,0.0,0.0,0.0,0.0,0.0,0.0,0.0,0.0,0.0,0.0,0.0,0.0,0.0,0.0,0.0,0.0,0.0,0.0,0.0,0.0,0.0,0.0,0.0,0.0,0.0,0.0,0.0,0.0,0.0,0.0,0.0,0.0,0.0,0.0,0.0,0.0,0.0,0.0,0.0,0.0,0.0,0.0,0.0,0.0,0.0,0.0,0.0,0.0,0.0,0.0,0.0,0.0,0.0,0.0,0.0,0.0,0.0,0.0,0.0,0.0,0.0,0.0,0.0,0.0,0.0,0.0,0.0,0.0,0.0,0.0,0.0,0.0,0.0,0.0,0.0,0.0,0.0,0.0,0.0,0.0,0.0,0.0,0.0,0.0,0.0,0.0,0.0,0.0,0.0,0.0,0.0,0.0,0.0,0.0,0.0,0.0,0.0,0.0,0.0,0.0,0.0,0.0,0.0,0.0,0.0,0.0,0.0,0.0,0.0,0.0,0.0,0.0,0.0,0.0,0.0,0.0,0.0,0.0,0.0,0.0,0.0,0.0,0.0,0.0,0.0,0.0,0.0,0.0,0.0,0.0,0.0,0.0,0.0,0.0,0.0,0.0,0.0,0.0,0.0,0.0,0.0,0.0,0.0,0.0,0.0,0.0,0.0,0.0,0.0,0.0,0.0,0.0,0.0,0.0,0.0,0.0,0.0,0.0,0.0,0.0,0.0,0.0,0.0,0.0,0.0,0.0,0.0,0.0,0.0,0.0,0.0,0.0,0.0,0.0,0.0,0.0,0.0,0.0,0.0,0.0,0.0,0.0,0.0,0.0,0.0,0.0,0.0,0.0,0.0,0.0,0.0,0.0,0.0,0.0,0.0,0.0,0.0,0.0,0.0,0.0,0.0,0.0,0.0,0.0,0.0,0.0,0.0,0.0,0.0,0.0,0.0,0.0,0.0,0.0,0.0,0.0,0.0,0.0,0.0,0.0,0.0,0.0,0.0,0.0,0.0,0.0,0.0,0.0,0.0,0.0,0.0,0.0,0.0,0.0,0.0,0.0,0.0,0.0,0.0,0.0,0.0,0.0,0.0,0.0,0.0,0.0,0.0,0.0,0.0,0.0,0.0,0.0,0.0,0.0,0.0,0.0,0.0,-3.7025,0.0,0.0,0.0,0.0,0.0,0.0,0.0,0.0,0.0,0.0,0.0,0.0,0.0,0.0,0.0,0.0,0.0,0.0,0.0,0.0,0.0,0.0,0.0,0.0,0.0,0.0,0.0,0.0,0.0,0.0,0.0,0.0,0.0,0.0,0.0,0.0,0.0,0.0,0.0,0.0,0.0,0.0,0.0,0.0,0.0,0.0,0.0,0.0,0.0,0.0,0.0,0.0,0.0,0.0,0.0,0.0,0.0,0.0,0.0,0.0,0.0,0.0,0.0,0.0,0.0,0.0,0.0,0.0,0.0,0.0,0.0,0.0,0.0,0.0,0.0,0.0,0.0,0.0,0.0,0.0,0.0,0.0,0.0,0.0,0.0,0.0,0.0,0.0,0.0,0.0,0.0,0.0,0.0,0.0,0.0,0.0,0.0,0.0,0.0,0.0,0.0,0.0,0.0,0.0,0.0,0.0,0.0,0.0,0.0,0.0,-4.2565,-3.9718,-3.9097,-3.8346,-3.7492,0.0,0.0,0.0,0.0,0.0,0.0,0.0,0.0,0.0,0.0,0.0,0.0,0.0,0.0,0.0,0.0,0.0,0.0,0.0,0.0,0.0,0.0,0.0,0.0,0.0,0.0,0.0,0.0,0.0,0.0,0.0,0.0,0.0,0.0,0.0,0.0,0.0,0.0,0.0,0.0,0.0,0.0,0.0,0.0,0.0,0.0,0.0,0.0,0.0,0.0,0.0,0.0,0.0,0.0,0.0,0.0,0.0,0.0,0.0,0.0,0.0,0.0,0.0,0.0,0.0,0.0,0.0,0.0,0.0,0.0,0.0,0.0,0.0,0.0,0.0,0.0,0.0,0.0,0.0,0.0,0.0,0.0,0.0,0.0,0.0,0.0,0.0,0.0,0.0,0.0,0.0,0.0,0.0,0.0,0.0,0.0,0.0,0.0,0.0,0.0,0.0,0.0,0.0,0.0,0.0,0.0,0.0,0.0,0.0,0.0,0.0,0.0,-3.8951,-3.8588,-3.8688,0.0,0.0,0.0,0.0,0.0,0.0,0.0,0.0,0.0,0.0,0.0,0.0,0.0,0.0,0.0,0.0,0.0,0.0,0.0,0.0,0.0,0.0,0.0,0.0,0.0,0.0,0.0,0.0,0.0,0.0,0.0,0.0,0.0,0.0,0.0,0.0,0.0,0.0,0.0,0.0,0.0,0.0,0.0,0.0,0.0,0.0,0.0,0.0,0.0,0.0,0.0,0.0,0.0,0.0,0.0,0.0,0.0,0.0,0.0,0.0,0.0,0.0,0.0,0.0,0.0,0.0,0.0,0.0,0.0,0.0,0.0,0.0,0.0,0.0,0.0,0.0,0.0,0.0,0.0,0.0,0.0,0.0,0.0,0.0,0.0,0.0,0.0,0.0,0.0,0.0,0.0,0.0,0.0,0.0,0.0,0.0,0.0,0.0,0.0,0.0,0.0,0.0,0.0,0.0,0.0,0.0,0.0,0.0,0.0,0.0,-4.2354,-3.9262,-3.8793,0.0,-4.0767,0.0,0.0,0.0,0.0,0.0,0.0,0.0,0.0,0.0,0.0,0.0,0.0,0.0,0.0,0.0,0.0,0.0,0.0,0.0,0.0,0.0,0.0,0.0,0.0,0.0,0.0,0.0,0.0,0.0,0.0,0.0,0.0,0.0,0.0,0.0,0.0,0.0,0.0,0.0,0.0,0.0,0.0,0.0,0.0,0.0,0.0,0.0,0.0,0.0,0.0,0.0,0.0,0.0,0.0,0.0,0.0,0.0,0.0,0.0,0.0,0.0,0.0,0.0,0.0,0.0,0.0,0.0,0.0,0.0,0.0,0.0,0.0,0.0,0.0,0.0,0.0,0.0,0.0,0.0,0.0,0.0,0.0,0.0,0.0,0.0,0.0,0.0,0.0,0.0,0.0,0.0,0.0,0.0,0.0,0.0,0.0,0.0,0.0,0.0,0.0,0.0,0.0,0.0,0.0,0.0,0.0,0.0,0.0,0.0,0.0,-4.1548,-3.9524,-3.8583,-3.9367,0.0,0.0,0.0,0.0,0.0,0.0,0.0,0.0,0.0,0.0,0.0,0.0,0.0,0.0,0.0,0.0,0.0,0.0,0.0,0.0,0.0,0.0,0.0,0.0,0.0,0.0,0.0,0.0,0.0,0.0,0.0,0.0,0.0,0.0,0.0,0.0,0.0,0.0,0.0,0.0,0.0,0.0,0.0,0.0,0.0,0.0,0.0,0.0,0.0,0.0,0.0,0.0,0.0,0.0,0.0,0.0,0.0,0.0,0.0,0.0,0.0,0.0,0.0,0.0,0.0,0.0,0.0,0.0,0.0,0.0,0.0,0.0,0.0,0.0,0.0,0.0,0.0,0.0,0.0,0.0,0.0,0.0,0.0,0.0,0.0,0.0,0.0,0.0,0.0,0.0,0.0,0.0,0.0,0.0,0.0,0.0,0.0,0.0,0.0,0.0,0.0,0.0,0.0,0.0,0.0,0.0,0.0,0.0,0.0,0.0,-4.3268,-4.0776,-3.9138,-3.8432,-3.9393,-4.2053,0.0,0.0,0.0,0.0,0.0,0.0,0.0,0.0,0.0,0.0,0.0,0.0,0.0,0.0,0.0,0.0,0.0,0.0,0.0,0.0,0.0,0.0,0.0,0.0,0.0,0.0,0.0,0.0,0.0,0.0,0.0,0.0,0.0,0.0,0.0,0.0,0.0,0.0,0.0,0.0,0.0,0.0,0.0,0.0,0.0,0.0,0.0,0.0,0.0,0.0,0.0,0.0,0.0,0.0,0.0,0.0,0.0,0.0,0.0,0.0,0.0,0.0,0.0,0.0,0.0,0.0,0.0,0.0,0.0,0.0,0.0,0.0,0.0,0.0,0.0,0.0,0.0,0.0,0.0,0.0,0.0,0.0,0.0,0.0,0.0,0.0,0.0,0.0,0.0,0.0,0.0,0.0,0.0,0.0,0.0,0.0,0.0,0.0,0.0,0.0,0.0,0.0,0.0,0.0,0.0,0.0,0.0,0.0,0.0,-4.2538,-4.0289,-3.7563,-3.8197,-3.9552,0.0,0.0,0.0,0.0,0.0,0.0,0.0,0.0,0.0,0.0,0.0,0.0,0.0,0.0,0.0,0.0,0.0,0.0,0.0,0.0,0.0,0.0,0.0,0.0,0.0,0.0,0.0,0.0,0.0,0.0,0.0,0.0,0.0,0.0,0.0,0.0,0.0,0.0,0.0,0.0,0.0,0.0,0.0,0.0,0.0,0.0,0.0,0.0,0.0,0.0,0.0,0.0,0.0,0.0,0.0,0.0,0.0,0.0,0.0,0.0,0.0,0.0,0.0,0.0,0.0,0.0,0.0,0.0,0.0,0.0,0.0,0.0,0.0,0.0,0.0,0.0,0.0,0.0,0.0,0.0,0.0,0.0,0.0,0.0,0.0,0.0,0.0,0.0,0.0,0.0,0.0,0.0,0.0,0.0,0.0,0.0,0.0,0.0,0.0,0.0,0.0,0.0,0.0,0.0,0.0,0.0,0.0,0.0,0.0,-4.437,-4.0738,-3.8389,-3.7513,-3.745,-3.907,0.0,0.0,0.0,0.0,0.0,0.0,0.0,0.0,0.0,0.0,0.0,0.0,0.0,0.0,0.0,0.0,0.0,0.0,0.0,0.0,0.0,0.0,0.0,0.0,0.0,0.0,0.0,0.0,0.0,0.0,0.0,0.0,0.0,0.0,0.0,0.0,0.0,0.0,0.0,0.0,0.0,0.0,0.0,0.0,0.0,0.0,0.0,0.0,0.0,0.0,0.0,0.0,0.0,0.0,0.0,0.0,0.0,0.0,0.0,0.0,0.0,0.0,0.0,0.0,0.0,0.0,0.0,0.0,0.0,0.0,0.0,0.0,0.0,0.0,0.0,0.0,0.0,0.0,0.0,0.0,0.0,0.0,0.0,0.0,0.0,0.0,0.0,0.0,0.0,0.0,0.0,0.0,0.0,0.0,0.0,0.0,0.0,0.0,0.0,0.0,0.0,0.0,0.0,0.0,0.0,0.0,0.0,0.0,0.0,-4.3086,0.0,-3.7072,0.0,-3.6768,-3.8717,0.0,0.0,0.0,0.0,0.0,0.0,0.0,0.0,0.0,0.0,0.0,0.0,0.0,0.0,0.0,0.0,0.0,0.0,0.0,0.0,0.0,0.0,0.0,0.0,0.0,0.0,0.0,0.0,0.0,0.0,0.0,0.0,0.0,0.0,0.0,0.0,0.0,0.0,0.0,0.0,0.0,0.0,0.0,0.0,0.0,0.0,0.0,0.0,0.0,0.0,0.0,0.0,0.0,0.0,0.0,0.0,0.0,0.0,0.0,0.0,0.0,0.0,0.0,0.0,0.0,0.0,0.0,0.0,0.0,0.0,0.0,0.0,0.0,0.0,0.0,0.0,0.0,0.0,0.0,0.0,0.0,0.0,0.0,0.0,0.0,0.0,0.0,0.0,0.0,0.0,0.0,0.0,0.0,0.0,0.0,0.0,0.0,0.0,0.0,0.0,0.0,0.0,0.0,0.0,0.0,0.0,0.0,0.0,-4.6401,-4.0152,-3.8068,-3.6596,-3.5681,-3.6431,-3.8673,0.0,0.0,0.0,0.0,0.0,0.0,0.0,0.0,0.0,0.0,0.0,0.0,0.0,0.0,0.0,0.0,0.0,0.0,0.0,0.0,0.0,0.0,0.0,0.0,0.0,0.0,0.0,0.0,0.0,0.0,0.0,0.0,0.0,0.0,0.0,0.0,0.0,0.0,0.0,0.0,0.0,0.0,0.0,0.0,0.0,0.0,0.0,0.0,0.0,0.0,0.0,0.0,0.0,0.0,0.0,0.0,0.0,0.0,0.0,0.0,0.0,0.0,0.0,0.0,0.0,0.0,0.0,0.0,0.0,0.0,0.0,0.0,0.0,0.0,0.0,0.0,0.0,0.0,0.0,0.0,0.0,0.0,0.0,0.0,0.0,0.0,0.0,0.0,0.0,0.0,0.0,0.0,0.0,0.0,0.0,0.0,0.0,0.0,0.0,0.0,0.0,0.0,0.0,0.0,0.0,0.0,0.0,0.0,0.0,-3.8031,-3.6905,-3.6006,-3.5285,-3.7556,-4.0137,0.0,0.0,0.0,0.0,0.0,0.0,0.0,0.0,0.0,0.0,0.0,0.0,0.0,0.0,0.0,0.0,0.0,0.0,0.0,0.0,0.0,0.0,0.0,0.0,0.0,0.0,0.0,0.0,0.0,0.0,0.0,0.0,0.0,0.0,0.0,0.0,0.0,0.0,0.0,0.0,0.0,0.0,0.0,0.0,0.0,0.0,0.0,0.0,0.0,0.0,0.0,0.0,0.0,0.0,0.0,0.0,0.0,0.0,0.0,0.0,0.0,0.0,0.0,0.0,0.0,0.0,0.0,0.0,0.0,0.0,0.0,0.0,0.0,0.0,0.0,0.0,0.0,0.0,0.0,0.0,0.0,0.0,0.0,0.0,0.0,0.0,0.0,0.0,0.0,0.0,0.0,0.0,0.0,0.0,0.0,0.0,0.0,0.0,0.0,0.0,0.0,0.0,0.0,0.0,0.0,0.0,0.0,0.0,0.0,-3.8122,-3.7082,-3.6327,-3.5663,-3.7618,-3.9982,-4.2839,0.0,0.0,0.0,0.0,0.0,0.0,0.0,0.0,0.0,0.0,0.0,0.0,0.0,0.0,0.0,0.0,0.0,0.0,0.0,0.0,0.0,0.0,0.0,0.0,0.0,0.0,0.0,0.0,0.0,0.0,0.0,0.0,0.0,0.0,0.0,0.0,0.0,0.0,0.0,0.0,0.0,0.0,0.0,0.0,0.0,0.0,0.0,0.0,0.0,0.0,0.0,0.0,0.0,0.0,0.0,0.0,0.0,0.0,0.0,0.0,0.0,0.0,0.0,0.0,0.0,0.0,0.0,0.0,0.0,0.0,0.0,0.0,0.0,0.0,0.0,0.0,0.0,0.0,0.0,0.0,0.0,0.0,0.0,0.0,0.0,0.0,0.0,0.0,0.0,0.0,0.0,0.0,0.0,0.0,0.0,0.0,0.0,0.0,0.0,0.0,0.0,0.0,0.0,0.0,0.0,0.0,0.0,0.0,-3.9757,-3.8345,-3.7339,-3.6629,-3.7004,-3.8945,0.0,0.0,0.0,0.0,0.0,0.0,0.0,0.0,0.0,0.0,0.0,0.0,0.0,0.0,0.0,0.0,0.0,0.0,0.0,0.0,0.0,0.0,0.0,0.0,0.0,0.0,0.0,0.0,0.0,0.0,0.0,0.0,0.0,0.0,0.0,0.0,0.0,0.0,0.0,0.0,0.0,0.0,0.0,0.0,0.0,0.0,0.0,0.0,0.0,0.0,0.0,0.0,0.0,0.0,0.0,0.0,0.0,0.0,0.0,0.0,0.0,0.0,0.0,0.0,0.0,0.0,0.0,0.0,0.0,0.0,0.0,0.0,0.0,0.0,0.0,0.0,0.0,0.0,0.0,0.0,0.0,0.0,0.0,0.0,0.0,0.0,0.0,0.0,0.0,0.0,0.0,0.0,0.0,0.0,0.0,0.0,0.0,0.0,0.0,0.0,0.0,0.0,0.0,0.0,0.0,0.0,0.0,0.0,0.0,-4.1155,-3.9757,-3.8116,-3.6368,-3.9422,-4.1546,0.0,0.0,0.0,0.0,0.0,0.0,0.0,0.0,0.0,0.0,0.0,0.0,0.0,0.0,0.0,0.0,0.0,0.0,0.0,0.0,0.0,0.0,0.0,0.0,0.0,0.0,0.0,0.0,0.0,0.0,0.0,0.0,0.0,0.0,0.0,0.0,0.0,0.0,0.0,0.0,0.0,0.0,0.0,0.0,0.0,0.0,0.0,0.0,0.0,0.0,0.0,0.0,0.0,0.0,0.0,0.0,0.0,0.0,0.0,0.0,0.0,0.0,0.0,0.0,0.0,0.0,0.0,0.0,0.0,0.0,0.0,0.0,0.0,0.0,0.0,0.0,0.0,0.0,0.0,0.0,0.0,0.0,0.0,0.0,0.0,0.0,0.0,0.0,0.0,0.0,0.0,0.0,0.0,0.0,0.0,0.0,0.0,0.0,0.0,0.0,0.0,0.0,0.0,0.0,0.0,0.0,0.0,0.0,-4.4709,-4.3066,-4.2157,-4.0754,-3.873,-4.1393,-4.2861,0.0,0.0,0.0,0.0,0.0,0.0,0.0,0.0,0.0,0.0,0.0,0.0,0.0,0.0,0.0,0.0,0.0,0.0,0.0,0.0,0.0,0.0,0.0,0.0,0.0,0.0,0.0,0.0,0.0,0.0,0.0,0.0,0.0,0.0,0.0,0.0,0.0,0.0,0.0,0.0,0.0,0.0,0.0,0.0,0.0,0.0,0.0,0.0,0.0,0.0,0.0,0.0,0.0,0.0,0.0,0.0,0.0,0.0,0.0,0.0,0.0,0.0,0.0,0.0,0.0,0.0,0.0,0.0,0.0,0.0,0.0,0.0,0.0,0.0,0.0,0.0,0.0,0.0,0.0,0.0,0.0,0.0,0.0,0.0,0.0,0.0,0.0,0.0,0.0,0.0,0.0,0.0,0.0,0.0,0.0,0.0,0.0,0.0,0.0,0.0,0.0,0.0,0.0,0.0,0.0,0.0,0.0,0.0,-4.6285,-4.5135,-4.4934,-4.4157,-4.2641,-4.2967,-4.3577,0.0,0.0,0.0,0.0,0.0,0.0,0.0,0.0,0.0,0.0,0.0,0.0,0.0,0.0,0.0,0.0,0.0,0.0,0.0,0.0,0.0,0.0,0.0,0.0,0.0,0.0,0.0,0.0,0.0,0.0,0.0,0.0,0.0,0.0,0.0,0.0,0.0,0.0,0.0,0.0,0.0,0.0,0.0,0.0,0.0,0.0,0.0,0.0,0.0,0.0,0.0,0.0,0.0,0.0,0.0,0.0,0.0,0.0,0.0,0.0,0.0,0.0,0.0,0.0,0.0,0.0,0.0,0.0,0.0,0.0,0.0,0.0,0.0,0.0,0.0,0.0,0.0,0.0,0.0,0.0,0.0,0.0,0.0,0.0,0.0,0.0,0.0,0.0,0.0,0.0,0.0,0.0,0.0,0.0,0.0,0.0,0.0,0.0,0.0,0.0,0.0,0.0,0.0,0.0,0.0,0.0,0.0,0.0,-4.6633,-4.6204,-4.5971,-4.508,-4.35,-4.5034,-4.5653,0.0,0.0,0.0,0.0,0.0,0.0,0.0,0.0,0.0,0.0,0.0,0.0,0.0,0.0,0.0,0.0,0.0,0.0,0.0,0.0,0.0,0.0,0.0,0.0,0.0,0.0,0.0,0.0,0.0,0.0,0.0,0.0,0.0,0.0,0.0,0.0,0.0,0.0,0.0,0.0,0.0,0.0,0.0,0.0,0.0,0.0,0.0,0.0,-2.925,0.0,0.0,0.0,0.0,0.0,0.0,0.0,0.0,0.0,0.0,0.0,0.0,0.0,0.0,0.0,0.0,0.0,0.0,0.0,0.0,0.0,0.0,0.0,0.0,0.0,0.0,0.0,0.0,0.0,0.0,0.0,0.0,0.0,0.0,0.0,0.0,0.0,0.0,0.0,0.0,0.0,0.0,0.0,0.0,0.0,0.0,0.0,0.0,0.0,0.0,0.0,0.0,0.0,0.0,0.0,0.0,0.0,0.0,0.0,-4.8341,-4.7254,-4.7818,-4.6983,-4.4528,-4.7276,-4.8135,0.0,0.0,0.0,0.0,0.0,0.0,0.0,0.0,0.0,0.0,0.0,0.0,0.0,0.0,0.0,0.0,0.0,0.0,0.0,0.0,0.0,0.0,0.0,0.0,0.0,0.0,0.0,0.0,0.0,0.0,0.0,0.0,0.0,0.0,0.0,0.0,0.0,0.0,0.0,0.0,0.0,0.0,0.0,0.0,0.0,0.0,0.0,0.0,0.0,0.0,0.0,0.0,0.0,0.0,0.0,0.0,0.0,0.0,0.0,0.0,0.0,0.0,0.0,0.0,0.0,0.0,0.0,0.0,0.0,0.0,0.0,0.0,0.0,0.0,0.0,0.0,0.0,0.0,0.0,0.0,0.0,0.0,0.0,0.0,0.0,0.0,0.0,0.0,0.0,0.0,0.0,0.0,0.0,0.0,0.0,0.0,0.0,0.0,0.0,0.0,0.0,0.0,0.0,0.0,0.0,0.0,0.0,-5.1008,-5.0597,-4.8824,-4.999,-4.8999,-4.5678,-4.93,-5.0165,-4.794,0.0,0.0,0.0,0.0,0.0,0.0,0.0,0.0,0.0,0.0,0.0,0.0,0.0,0.0,0.0,0.0,0.0,0.0,0.0,0.0,0.0,0.0,0.0,0.0,0.0,0.0,0.0,0.0,0.0,0.0,0.0,0.0,0.0,0.0,0.0,0.0,0.0,0.0,-3.4403,-3.436,0.0,0.0,0.0,0.0,0.0,0.0,0.0,0.0,-3.157,0.0,0.0,0.0,0.0,0.0,0.0,0.0,0.0,0.0,0.0,0.0,0.0,0.0,0.0,0.0,0.0,0.0,0.0,0.0,0.0,0.0,0.0,0.0,0.0,0.0,0.0,0.0,0.0,0.0,0.0,0.0,0.0,0.0,0.0,0.0,0.0,0.0,0.0,0.0,0.0,0.0,0.0,0.0,0.0,0.0,0.0,0.0,0.0,0.0,0.0,0.0,0.0,0.0,0.0,0.0,0.0,-5.0454,-5.1936,-5.221,-5.1456,-5.1695,-5.0505,-4.7963,-5.0093,-5.0322,-4.8575,0.0,0.0,0.0,0.0,0.0,0.0,0.0,0.0,0.0,0.0,0.0,0.0,0.0,0.0,0.0,0.0,0.0,0.0,0.0,0.0,0.0,0.0,0.0,0.0,0.0,0.0,0.0,0.0,0.0,0.0,0.0,0.0,0.0,0.0,0.0,0.0,0.0,0.0,0.0,-3.436,-3.4173,0.0,0.0,0.0,0.0,0.0,0.0,0.0,0.0,-3.2466,0.0,0.0,0.0,0.0,0.0,0.0,0.0,0.0,0.0,0.0,0.0,0.0,0.0,0.0,0.0,0.0,0.0,0.0,0.0,0.0,0.0,0.0,0.0,0.0,0.0,0.0,0.0,0.0,0.0,0.0,0.0,0.0,0.0,0.0,0.0,0.0,0.0,0.0,0.0,0.0,0.0,0.0,0.0,0.0,0.0,0.0,0.0,0.0,0.0,0.0,0.0,0.0,0.0,0.0,0.0,-5.1459,-5.2684,-5.3187,-5.2953,-5.3459,-5.2558,-5.0093,-5.1594,-5.187,0.0,0.0,0.0,0.0,0.0,0.0,0.0,0.0,0.0,0.0,0.0,0.0,0.0,0.0,0.0,0.0,0.0,0.0,0.0,0.0,0.0,0.0,0.0,0.0,0.0,0.0,0.0,0.0,0.0,0.0,0.0,0.0,0.0,0.0,0.0,0.0,0.0,0.0,0.0,0.0,-3.4922,-3.4548,-3.3544,0.0,0.0,0.0,0.0,0.0,0.0,-3.3065,-3.3463,0.0,0.0,0.0,0.0,0.0,0.0,0.0,0.0,0.0,0.0,0.0,0.0,0.0,0.0,0.0,0.0,0.0,0.0,0.0,0.0,0.0,0.0,0.0,0.0,0.0,0.0,0.0,0.0,0.0,0.0,0.0,0.0,0.0,0.0,0.0,0.0,0.0,0.0,0.0,0.0,0.0,0.0,0.0,0.0,0.0,0.0,0.0,0.0,0.0,0.0,0.0,0.0,0.0,0.0,0.0,-5.2035,-5.3258,-5.3954,-5.4231,-5.5073,-5.4429,-5.2161,-5.3094,-5.3162,0.0,0.0,0.0,0.0,0.0,0.0,0.0,0.0,0.0,0.0,0.0,0.0,0.0,0.0,0.0,0.0,0.0,0.0,0.0,0.0,0.0,0.0,0.0,0.0,0.0,0.0,0.0,0.0,0.0,0.0,0.0,0.0,0.0,0.0,0.0,0.0,0.0,0.0,0.0,0.0,0.0,-3.4922,-3.3607,-3.3418,0.0,0.0,0.0,0.0,-3.3623,-3.394,0.0,0.0,0.0,0.0,0.0,0.0,0.0,0.0,0.0,0.0,0.0,0.0,0.0,0.0,0.0,0.0,0.0,0.0,0.0,0.0,0.0,0.0,0.0,0.0,0.0,0.0,0.0,0.0,0.0,0.0,0.0,0.0,0.0,0.0,0.0,0.0,0.0,0.0,0.0,0.0,0.0,0.0,0.0,0.0,0.0,0.0,0.0,0.0,0.0,0.0,0.0,0.0,0.0,0.0,0.0,0.0,-5.1548,-5.3494,-5.4949,-5.5852,-5.6042,-5.553,-5.4334,-5.3915,-5.2996,0.0,0.0,0.0,0.0,0.0,0.0,0.0,0.0,0.0,0.0,0.0,0.0,0.0,0.0,0.0,0.0,0.0,0.0,0.0,0.0,0.0,0.0,0.0,0.0,0.0,0.0,0.0,0.0,0.0,0.0,0.0,0.0,0.0,0.0,0.0,0.0,0.0,0.0,0.0,0.0,0.0,-3.4922,-3.3607,-3.3418,-3.3745,0.0,0.0,-3.4334,-3.5371,-3.5021,0.0,0.0,0.0,0.0,0.0,0.0,0.0,0.0,0.0,0.0,0.0,0.0,0.0,0.0,0.0,0.0,0.0,0.0,0.0,0.0,0.0,0.0,0.0,0.0,0.0,0.0,0.0,0.0,0.0,0.0,0.0,0.0,0.0,0.0,0.0,0.0,0.0,0.0,0.0,0.0,0.0,0.0,0.0,0.0,0.0,0.0,0.0,0.0,0.0,0.0,0.0,0.0,0.0,0.0,0.0,-5.2154,-5.2433,-5.3855,-5.5216,-5.662,-5.7269,-5.7281,-5.6538,-5.5898,-5.4843,0.0,0.0,0.0,0.0,0.0,0.0,0.0,0.0,0.0,0.0,0.0,0.0,0.0,0.0,0.0,0.0,0.0,0.0,0.0,0.0,0.0,0.0,0.0,0.0,0.0,0.0,0.0,0.0,0.0,0.0,0.0,0.0,0.0,0.0,0.0,0.0,0.0,0.0,0.0,0.0,0.0,0.0,-3.4295,-3.4373,0.0,0.0,0.0,-3.528,-3.6354,0.0,0.0,0.0,0.0,0.0,0.0,0.0,0.0,0.0,0.0,0.0,0.0,0.0,0.0,0.0,0.0,0.0,0.0,0.0,0.0,0.0,0.0,0.0,0.0,0.0,0.0,0.0,0.0,0.0,0.0,0.0,0.0,0.0,0.0,0.0,0.0,0.0,0.0,0.0,0.0,0.0,0.0,0.0,0.0,0.0,0.0,0.0,0.0,0.0,0.0,0.0,0.0,0.0,0.0,0.0,0.0,0.0,-5.292,-5.4019,-5.5331,-5.6746,-5.8049,-5.8524,-5.8127,-5.7424,0.0,0.0,0.0,0.0,0.0,0.0,0.0,0.0,0.0,0.0,0.0,0.0,0.0,0.0,0.0,0.0,0.0,0.0,0.0,0.0,0.0,0.0,0.0,0.0,0.0,0.0,0.0,-3.829,0.0,0.0,0.0,0.0,0.0,0.0,0.0,0.0,0.0,0.0,0.0,0.0,0.0,0.0,-3.6119,-3.5106,-3.532,-3.5666,0.0,0.0,-3.6051,-3.6965,-3.6115,-3.5449,0.0,0.0,0.0,0.0,0.0,0.0,0.0,0.0,0.0,0.0,0.0,0.0,0.0,0.0,0.0,0.0,0.0,0.0,0.0,0.0,0.0,0.0,0.0,0.0,0.0,0.0,0.0,0.0,0.0,0.0,0.0,0.0,0.0,0.0,0.0,0.0,0.0,0.0,0.0,0.0,0.0,0.0,0.0,0.0,0.0,0.0,0.0,0.0,0.0,0.0,0.0,0.0,0.0,0.0,0.0,-5.2382,-5.3812,-5.5151,-5.6219,-5.7849,-5.8698,-5.8654,-5.76,-5.6746,0.0,0.0,0.0,0.0,0.0,0.0,0.0,0.0,0.0,0.0,0.0,0.0,0.0,0.0,0.0,0.0,0.0,0.0,0.0,0.0,0.0,0.0,0.0,0.0,0.0,0.0,0.0,0.0,0.0,0.0,0.0,0.0,0.0,0.0,0.0,0.0,0.0,0.0,0.0,0.0,0.0,-3.633,-3.5755,-3.5731,-3.5937,0.0,0.0,-3.6495,-3.6998,-3.6135,-3.5254,-3.4863,0.0,0.0,0.0,0.0,0.0,0.0,0.0,0.0,0.0,0.0,0.0,0.0,0.0,0.0,0.0,0.0,0.0,0.0,0.0,0.0,0.0,0.0,0.0,0.0,0.0,0.0,0.0,0.0,0.0,0.0,0.0,0.0,0.0,0.0,0.0,0.0,0.0,0.0,0.0,0.0,0.0,0.0,0.0,0.0,0.0,0.0,0.0,0.0,0.0,0.0,0.0,0.0,0.0,-5.3101,-5.3438,-5.418,-5.5121,-5.6168,-5.7472,-5.8193,-5.8227,-5.8127,-5.7474,0.0,0.0,0.0,0.0,0.0,0.0,0.0,0.0,0.0,0.0,0.0,0.0,0.0,0.0,0.0,0.0,0.0,0.0,0.0,0.0,0.0,0.0,0.0,0.0,0.0,0.0,0.0,0.0,-3.9988,-3.9467,-3.8765,0.0,0.0,0.0,0.0,0.0,0.0,0.0,0.0,0.0,0.0,-3.6655,-3.603,-3.6202,0.0,0.0,-3.6708,-3.6887,-3.7621,-3.6383,-3.5367,-3.5355,-3.4615,0.0,0.0,0.0,0.0,0.0,0.0,0.0,0.0,0.0,0.0,0.0,0.0,0.0,0.0,0.0,0.0,0.0,0.0,0.0,0.0,0.0,0.0,0.0,0.0,0.0,0.0,0.0,0.0,0.0,0.0,0.0,0.0,0.0,0.0,0.0,0.0,0.0,0.0,0.0,0.0,0.0,0.0,0.0,0.0,0.0,0.0,0.0,0.0,0.0,0.0,0.0,0.0,-5.357,-5.4078,-5.4449,-5.5158,-5.6194,-5.7299,-5.7971,-5.8177,-5.8529,-5.8177,0.0,0.0,0.0,0.0,0.0,0.0,0.0,0.0,0.0,0.0,0.0,0.0,0.0,0.0,0.0,0.0,0.0,0.0,0.0,0.0,0.0,0.0,0.0,0.0,0.0,0.0,0.0,0.0,-4.0419,-3.9606,-3.9254,0.0,0.0,0.0,0.0,0.0,0.0,0.0,0.0,0.0,0.0,-3.6999,-3.6689,-3.693,-3.7228,-3.7354,-3.734,-3.7439,-3.7835,-3.6415,-3.5343,-3.5461,0.0,0.0,0.0,0.0,0.0,0.0,0.0,0.0,0.0,0.0,0.0,0.0,0.0,0.0,0.0,0.0,0.0,0.0,0.0,0.0,0.0,0.0,0.0,0.0,0.0,0.0,0.0,0.0,0.0,0.0,0.0,0.0,0.0,0.0,0.0,0.0,0.0,0.0,0.0,0.0,0.0,0.0,0.0,0.0,0.0,0.0,0.0,0.0,0.0,0.0,0.0,0.0,0.0,-5.357,-5.4078,-5.4472,-5.516,-5.6194,-5.7323,-5.8152,-5.8654,-5.873,-5.8704,-5.8629,0.0,0.0,0.0,0.0,0.0,0.0,0.0,0.0,0.0,0.0,0.0,0.0,0.0,0.0,0.0,0.0,0.0,0.0,0.0,0.0,0.0,0.0,0.0,0.0,0.0,0.0,-4.2673,-4.0573,-3.9254,0.0,0.0,0.0,0.0,0.0,0.0,0.0,0.0,0.0,0.0,-3.7686,-3.711,-3.7893,-3.8021,-3.798,-3.8021,-3.8241,-3.8184,-3.7532,-3.6143,-3.5127,0.0,0.0,0.0,0.0,0.0,0.0,0.0,0.0,0.0,0.0,0.0,0.0,0.0,0.0,0.0,0.0,0.0,0.0,0.0,0.0,0.0,0.0,0.0,0.0,0.0,0.0,0.0,0.0,-5.5209,0.0,0.0,0.0,0.0,0.0,0.0,0.0,0.0,0.0,0.0,0.0,-5.7348,-5.5557,0.0,0.0,0.0,0.0,0.0,0.0,0.0,0.0,0.0,0.0,0.0,0.0,-5.3753,-5.4586,-5.4581,-5.5089,-5.6194,-5.7323,-5.8001,-5.8177,-5.8855,-5.9081,-5.873,0.0,0.0,0.0,0.0,0.0,0.0,0.0,0.0,0.0,0.0,0.0,0.0,0.0,0.0,0.0,0.0,0.0,0.0,0.0,0.0,0.0,0.0,0.0,0.0,0.0,-4.6131,0.0,0.0,0.0,0.0,0.0,0.0,0.0,0.0,0.0,0.0,0.0,-3.7445,-3.7464,-3.719,-3.7042,-3.7156,-3.7153,-3.7023,0.0,0.0,0.0,0.0,0.0,0.0,0.0,0.0,0.0,0.0,0.0,0.0,0.0,0.0,-3.5994,-3.5102,-3.4566,-3.4253,-3.4171,0.0,0.0,0.0,0.0,0.0,0.0,0.0,0.0,0.0,0.0,0.0,0.0,0.0,0.0,0.0,0.0,-5.5209,0.0,0.0,0.0,0.0,0.0,0.0,0.0,0.0,-5.6196,-5.6974,-5.7759,-5.6524,-5.5963,0.0,-5.3985,-5.313,0.0,0.0,0.0,0.0,0.0,0.0,0.0,0.0,-5.3792,-5.4872,-5.4689,-5.5193,-5.647,-5.7399,-5.7976,-5.8202,-5.9031,-5.9156,-5.8453,-5.7725,-5.7118,0.0,0.0,0.0,0.0,0.0,0.0,0.0,0.0,0.0,0.0,0.0,0.0,0.0,0.0,0.0,0.0,0.0,0.0,0.0,0.0,0.0,0.0,0.0,-4.5799,0.0,0.0,0.0,0.0,0.0,0.0,0.0,0.0,0.0,-3.8743,-3.7869,-3.7107,-3.697,-3.6767,-3.6707,-3.7063,0.0,0.0,0.0,0.0,0.0,0.0,0.0,-3.5957,-3.6246,-3.5768,-3.5422,-3.5554,-3.5986,-3.6298,-3.6298,0.0,0.0,-3.5367,-3.4949,-3.4732,-3.467,-3.473,-3.4868,-3.4909,-3.4941,-3.4902,0.0,0.0,0.0,0.0,0.0,0.0,0.0,0.0,-5.4999,-5.5269,0.0,-5.5239,0.0,0.0,0.0,0.0,0.0,0.0,0.0,0.0,-5.6885,-5.7872,-5.9105,-5.8847,-5.8176,-5.7178,-5.6142,-5.4539,-5.2369,-5.1847,0.0,0.0,0.0,0.0,0.0,0.0,-5.3792,-5.4805,-5.4702,-5.5374,-5.6898,-5.755,-5.8125,-5.873,-5.9232,-5.9006,-5.8001,-5.7901,-5.7148,-5.5541,-5.5415,0.0,0.0,0.0,0.0,0.0,0.0,0.0,0.0,0.0,0.0,0.0,0.0,0.0,0.0,0.0,0.0,0.0,0.0,0.0,0.0,-4.5652,0.0,0.0,0.0,0.0,0.0,0.0,0.0,0.0,0.0,0.0,-3.9125,-3.8159,-3.7413,-3.7425,0.0,0.0,0.0,0.0,-3.7464,-3.9194,-3.8666,-3.8168,-3.8562,-3.6874,-3.5625,-3.6059,0.0,0.0,-3.6142,-3.6897,-3.7291,-3.7357,-3.642,-3.5901,-3.6503,-3.6699,-3.6635,-3.5816,-3.5856,-3.5952,-3.5579,-3.5508,-3.5625,-5.4439,0.0,0.0,0.0,0.0,-5.4551,-5.5179,-5.5658,-5.6286,-5.6286,-5.5948,-5.5897,0.0,0.0,0.0,0.0,0.0,0.0,-5.6226,-5.6885,-5.7992,-5.9249,-6.048,-5.9741,-5.8651,-5.7154,-5.5745,-5.367,-5.1071,-5.0828,-5.1381,-5.2588,0.0,0.0,0.0,0.0,-5.3595,-5.4132,-5.4421,-5.5374,-5.6923,-5.755,-5.83,-5.9257,-5.9408,-5.9182,-5.8504,-5.8102,-5.7474,-5.6595,-5.5817,0.0,0.0,0.0,0.0,0.0,0.0,0.0,0.0,0.0,0.0,0.0,0.0,0.0,0.0,0.0,0.0,0.0,0.0,0.0,-4.8509,-4.6479,-4.4752,0.0,0.0,0.0,0.0,0.0,0.0,0.0,0.0,0.0,-3.8381,-3.8287,-3.8187,0.0,0.0,-3.8059,-3.8438,-3.7932,-3.753,-3.7613,0.0,0.0,0.0,-3.6428,-3.6368,-3.6513,-3.6071,-3.6036,-3.6777,-3.6629,-3.6428,-3.6428,-3.6127,-3.5981,-3.6142,-3.5759,-3.552,-3.5514,-3.583,-3.6099,-3.6279,-3.6523,-3.6797,-5.6855,-5.5478,-5.47,-5.473,-5.5418,-5.6077,-5.6735,-5.7334,-5.7453,-5.7304,-5.6915,-5.6645,-5.6316,-5.5957,-5.5957,0.0,0.0,0.0,-5.7304,-5.7962,-5.9548,-6.0864,-6.1855,-6.1821,-6.0528,-5.8206,-5.7058,-5.4747,-5.1398,-5.1235,-5.1485,-5.2124,0.0,0.0,-5.2183,-5.2708,-5.3266,-5.3861,-5.4345,-5.5371,-5.6923,-5.7775,-5.8502,-5.9156,-5.9182,-5.883,-5.8077,-5.7725,-5.7298,-5.6721,-5.6068,-5.5597,0.0,0.0,0.0,0.0,0.0,0.0,0.0,0.0,0.0,0.0,0.0,-4.959,-4.959,0.0,0.0,0.0,-4.8937,-4.8698,-4.846,-4.6333,0.0,0.0,0.0,0.0,0.0,0.0,0.0,-3.9344,-3.8423,-3.7848,-3.8279,-3.8677,-3.8553,-3.7788,-3.7654,-3.7678,-3.7932,0.0,-3.6974,-3.7032,-3.6844,-3.6632,-3.6428,-3.6306,-3.6309,-3.6188,-3.6262,-3.6356,-3.6614,-3.6287,-3.6035,-3.6035,-3.6035,-3.6035,-3.6035,-3.5586,-3.5293,-3.5586,-3.5976,-3.6406,-3.6836,-3.7383,-3.7832,-5.9967,-5.9249,-5.7483,-5.6974,-5.7393,-5.8022,-5.865,-5.9219,-5.862,-5.8321,-5.8231,-5.7603,-5.7274,-5.7184,-5.7124,0.0,0.0,-5.7633,-5.862,-5.9428,-6.1313,-6.257,-6.3348,-6.4338,-6.3117,-5.9875,-5.9211,-5.6809,-5.2991,-5.2479,-5.206,-5.1511,-5.0947,-5.0956,-5.1586,-5.2078,-5.2792,-5.3852,-5.4353,-5.5387,-5.6997,-5.8102,-5.8654,-5.8654,-5.8629,-5.8077,-5.7047,-5.6922,-5.6646,-5.6118,-5.6093,-5.5626,-5.4694,0.0,0.0,0.0,0.0,0.0,0.0,0.0,0.0,0.0,0.0,0.0,0.0,0.0,0.0,0.0,-4.9179,0.0,-4.7796,-4.558,0.0,0.0,0.0,-3.8964,-3.8237,-3.7794,-3.7649,-3.8117,0.0,0.0,0.0,0.0,-3.8636,-3.673,-3.6214,-3.6192,-3.682,-3.6387,-3.6229,-3.7205,-3.6982,-3.6794,-3.6987,-3.6309,-3.5645,-3.5493,-3.5703,-3.584,-3.5859,-3.5859,-3.5898,-3.5859,-3.5937,-3.5957,-3.5957,-3.5937,-3.6035,-3.5996,-3.6387,-3.6836,-3.7207,-3.791,-3.8594,-6.2271,-6.2091,-6.1613,-6.0625,-5.9398,-5.9548,-5.9997,-6.0595,-6.0475,-6.0116,-5.9608,-5.9458,-5.883,-5.7872,-5.7334,-5.7304,-5.7693,-5.8501,-5.9787,-6.1403,-6.2391,-6.3707,-6.5233,-6.4226,-6.2624,-6.0586,-5.9046,-5.6421,-5.3023,-5.279,-5.2539,-5.2075,-5.1511,-5.1317,-5.1648,-5.2111,-5.266,-5.3289,-5.4227,-5.5411,-5.6972,-5.7725,-5.8102,-5.8102,-5.7675,-5.7123,-5.642,-5.5993,-5.5516,-5.4988,-5.4963,-5.4877,-5.4792,-5.5567,0.0,0.0,0.0,0.0,0.0,0.0,0.0,0.0,0.0,-5.0042,-4.964,0.0,-5.0049,0.0,-4.9453,-4.8615,-4.6657,-4.545,0.0,0.0,-4.0345,-3.9427,-3.8709,-3.833,-3.8303,-3.8579,-3.8419,-3.8362,-3.8491,-3.8544,-3.8275,-3.7252,-3.7912,-3.8479,-3.8285,-3.7665,-3.7159,-3.7072,-3.6596,-3.6214,-3.6301,-3.5843,-3.5434,-3.5371,-3.5195,-3.5019,-3.5019,-3.5,-3.5,-3.5039,-3.5312,-3.5508,-3.5547,-3.5781,-3.5996,-3.6074,-3.6621,-3.7187,-3.7305,-3.7969,-3.8613,-6.3947,-6.3947,-6.3947,-6.3139,-6.1792,-6.1523,-6.1642,-6.1972,-6.1672,-6.1343,-6.0984,-6.0655,-5.9967,-5.9009,-5.8919,-5.8919,-5.9069,-6.0296,-6.1493,-6.257,-6.3797,-6.4964,-6.5951,-6.4435,-6.2815,-6.1135,-5.9049,-5.6565,-5.3738,-5.3136,-5.2682,-5.22,-5.1641,-5.1407,-5.1508,-5.2111,-5.2776,-5.3524,-5.4851,-5.5751,-5.6269,-5.6846,-5.717,-5.7286,-5.6656,-5.6099,-5.5639,-5.5338,-5.5007,-5.4746,-5.4956,-5.5172,-5.5315,-5.5917,-5.5842,0.0,0.0,0.0,0.0,0.0,0.0,0.0,0.0,0.0,0.0,0.0,-4.9934,0.0,-4.9386,0.0,-4.6174,-4.5061,-4.3329,-4.0733,-3.9729,-3.8909,-3.8203,-3.7967,-3.7997,-3.8136,-3.8145,-3.8187,-3.8212,-3.8367,-3.8326,-3.791,-3.8405,-3.8537,-3.7932,-3.7308,-3.6825,-3.6408,-3.5992,-3.5644,-3.5469,-3.5234,-3.5078,-3.5059,-3.4863,-3.4687,-3.4687,-3.4687,-3.4687,-3.4707,-3.4902,-3.5078,-3.5098,-3.5254,-3.5488,-3.5781,-3.6269,-3.6758,-3.6992,-3.7851,-3.8574,-6.5293,-6.5263,-6.5173,-6.4755,-6.4096,-6.3468,-6.3139,-6.3049,-6.248,-6.2211,-6.2181,-6.1523,-6.0924,-6.0386,-6.0894,-6.0894,-6.0595,-6.2271,-6.3228,-6.3558,-6.5203,-6.592,-6.5766,-6.4497,-6.3005,-6.1183,-5.8978,-5.6726,-5.4624,-5.3613,-5.2872,-5.2337,-5.1783,-5.1585,-5.1794,-5.2296,-5.3022,-5.4118,-5.5624,-5.6122,-5.5433,-5.6034,-5.6395,-5.6476,-5.5835,-5.5296,-5.4877,-5.4707,-5.4697,-5.4697,-5.5268,-5.564,-5.5797,-5.6369,-5.6332,0.0,-5.5854,0.0,0.0,0.0,0.0,0.0,0.0,0.0,0.0,-5.042,-4.9705,-4.959,-4.8973,-4.7792,-4.5941,-4.4374,-4.2438,-4.0013,-3.8966,-3.8127,-3.7453,-3.7422,-3.7429,-3.7423,-3.7759,-3.7955,-3.803,-3.837,-3.8574,-3.8496,-3.8216,-3.7759,-3.6964,-3.6416,-3.5966,-3.5449,-3.5332,-3.5176,-3.4844,-3.4687,-3.4609,-3.4609,-3.4512,-3.4551,-3.4492,-3.4492,-3.4512,-3.4512,-3.4551,-3.4609,-3.4609,-3.4668,-3.4863,-3.5234,-3.5664,-3.6133,-3.666,-3.7559,-3.8359,-6.664,-6.658,-6.6041,-6.5443,-6.4784,-6.4096,-6.3528,-6.3079,-6.2929,-6.2899,-6.2839,-6.2211,-6.1852,-6.1702,-6.1283,-6.1613,-6.251,-6.2899,-6.3947,-6.5473,-6.5832,-6.5488,-6.4555,-6.2896,-6.1154,-5.9371,-5.7473,-5.5901,-5.4637,-5.4386,-5.4081,-5.364,-5.3078,-5.3079,0.0,0.0,0.0,0.0,-5.5263,-5.5772,-5.5631,-5.6707,-5.7154,-5.6652,-5.5637,0.0,-5.4935,-5.4078,-5.3792,-5.4181,-5.4365,0.0,0.0,0.0,0.0,0.0,0.0,0.0,0.0,0.0,0.0,0.0,-5.3504,-5.2143,-5.1371,-5.067,-5.0049,-4.9615,-4.8125,-4.6419,-4.4642,-4.2791,-4.0933,-3.9094,-3.8682,-3.8328,-3.7871,-3.8105,-3.8223,-3.7819,-3.8144,-3.8471,-3.8443,-3.8555,-3.8574,-3.8555,-3.8203,-3.7754,-3.7246,-3.6523,-3.5879,-3.5469,-3.5059,-3.4805,-3.4707,-3.4394,-3.418,-3.416,-3.3887,-3.3711,-3.3711,-3.3691,-3.3672,-3.3711,-3.3965,-3.4199,-3.4199,-3.4453,-3.4687,-3.4805,-3.5195,-3.5742,-3.6504,-3.7129,-3.7539,-6.6999,0.0,-6.6281,-6.5622,0.0,-6.4276,-6.3647,-6.3137,-6.3137,-6.3137,-6.3049,-6.272,-6.257,-6.26,-6.257,-6.2899,-6.3558,-6.4216,-6.5054,-6.6011,-6.634,-6.5719,-6.4217,-6.2463,-6.0657,-5.886,-5.7106,-5.5641,-5.4612,-5.4561,-5.4219,-5.3478,-5.3173,-5.3029,-5.3177,-5.3151,-5.3413,-5.3963,-5.5083,-5.5325,-5.4721,-5.558,-5.5897,-5.5391,0.0,0.0,0.0,0.0,0.0,0.0,0.0,0.0,0.0,0.0,0.0,-5.5771,-5.6235,-5.6366,-5.5762,-5.5365,-5.5029,-5.4817,-5.3366,-5.2033,-5.0905,-5.0333,-4.9909,-4.964,-4.7911,-4.6081,-4.4252,-4.2597,-4.0915,-3.916,-3.8887,-3.8789,-3.8594,-3.8555,-3.8496,-3.832,-3.8437,-3.8574,-3.8574,-3.8574,-3.8574,-3.8555,-3.8203,-3.7773,-3.7344,-3.6758,-3.6074,-3.5195,-3.4473,-3.4062,-3.4043,-3.3926,-3.3769,-3.3711,-3.3574,-3.3437,-3.3418,-3.3418,-3.3418,-3.3437,-3.3613,-3.375,-3.3769,-3.3926,-3.418,-3.459,-3.4883,-3.5332,-3.6152,-3.6699,-3.6992,-6.6909,-6.6759,-6.6131,-6.5473,-6.4784,-6.4126,-6.3558,-6.3137,0.0,0.0,0.0,-6.3137,-6.3137,-6.3109,-6.3707,-6.4066,-6.4276,-6.5473,-6.6071,-6.6191,-6.6729,-6.6044,-6.4217,-6.2463,-6.0619,-5.8841,-5.7046,-5.5641,-5.4587,-5.4561,-5.4009,-5.303,-5.2861,-5.2754,-5.2452,-5.2854,-5.3431,-5.4141,-5.5216,-5.5185,-5.4093,-5.4764,-5.4911,-5.4508,-5.3875,-5.3567,-5.3608,-5.3555,-5.3855,-5.4405,-5.4956,-5.5801,-5.6858,-5.7367,-5.7364,-5.6967,-5.7328,-5.7042,-5.5963,-5.5739,-5.5096,-5.3632,-5.2578,-5.1565,-5.0622,-5.0072,-4.9531,-4.9156,-4.7393,-4.5645,-4.3858,-4.2358,-4.0943,-3.9445,-3.9316,-3.9297,-3.918,-3.8906,-3.8672,-3.8594,-3.8574,-3.8574,-3.8574,-3.8574,-3.8574,-3.8535,-3.8281,-3.7851,-3.7344,-3.6738,-3.5957,-3.4922,-3.4258,-3.373,-3.3672,-3.373,-3.3652,-3.375,-3.3652,-3.3535,-3.3516,-3.3476,-3.3418,-3.3418,-3.3418,-3.3476,-3.3535,-3.3613,-3.3809,-3.4551,-3.4766,-3.5039,-3.5723,-3.6191,-3.6406,-6.667,-6.6101,-6.5443,-6.4755,-6.4096,-6.3468,-6.3139,-6.3137,-6.3137,-6.3137,-6.3137,-6.3137,-6.3137,-6.3166,-6.3707,-6.4336,-6.4904,-6.5682,-6.6311,0.0,-6.6939,-6.6044,-6.4217,-6.2463,-6.0657,-5.8869,-5.7055,-5.5641,-5.4662,-5.4587,-5.4009,-5.3055,-5.2861,-5.3105,-5.3457,-5.3557,-5.413,-5.5156,-5.5949,-5.6053,-5.535,-5.6589,-5.6912,-5.633,-5.5689,-5.5403,-5.5445,-5.4924,-5.5132,-5.6184,-5.633,-5.6804,-5.7815,-5.7985,-5.7941,-5.7744,-5.7801,-5.7496,-5.6843,-5.639,-5.5211,-5.3206,-5.2026,-5.1348,-5.1155,-5.0655,-4.9401,-4.7383,-4.5554,-4.39,-4.2443,-4.0736,-3.9746,-3.9821,-3.9805,-3.9648,-3.9277,-3.9141,-3.8945,-3.8613,-3.8574,-3.8574,-3.8574,-3.8574,-3.8574,-3.8574,-3.8418,-3.8184,-3.7344,-3.6309,-3.541,-3.4844,-3.4609,-3.4531,-3.4434,-3.4512,-3.4434,-3.4512,-3.418,-3.3984,-3.3984,-3.373,-3.3535,-3.3457,-3.3516,-3.3613,-3.3906,-3.3984,-3.4199,-3.4668,-3.5,-3.5332,-3.5547,-3.5644,-3.5625,-6.661,-6.5951,-6.5323,-6.4635,-6.3947,-6.3348,-6.3137,-6.3137,-6.3137,-6.3137,-6.3137,-6.3137,-6.3137,-6.3169,-6.4126,-6.4725,-6.5024,-6.6071,-6.67,-6.6969,-6.6999,-6.6044,-6.4217,-6.2463,-6.0654,-5.8869,-5.7083,-5.582,-5.5099,-5.5042,-5.4612,-5.3833,-5.3507,-5.3457,-5.3708,-5.4009,-5.4561,-5.5365,-5.5724,-5.574,-5.5512,-5.6096,-5.6181,-5.5548,-5.5267,-5.5292,-5.5599,-5.5299,-5.5682,-5.678,-5.6831,-5.7205,-5.7934,-5.8266,-5.8278,-5.7935,-5.7848,-5.765,-5.7072,-5.5968,-5.4612,-5.3055,-5.19,-5.0714,-4.9461,-4.8805,-4.798,-4.6816,-4.4302,-4.2422,-4.1946,-4.0579,-3.9746,-4.0195,-4.0234,-4.0059,-3.9629,-3.9336,-3.9023,-3.8652,-3.8574,-3.8574,-3.8574,-3.8574,-3.8574,-3.8555,-3.8398,-3.7988,-3.7383,-3.6621,-3.584,-3.5215,-3.4863,-3.4707,-3.4707,-3.4687,-3.4687,-3.4687,-3.4551,-3.4414,-3.4414,-3.4219,-3.4141,-3.4121,-3.4101,-3.418,-3.4394,-3.4414,-3.4609,-3.498,-3.5215,-3.543,-3.5625,-3.5566,-3.5312,-6.64,-6.5742,-6.5054,-6.4395,-6.3767,-6.3288,-6.3137,-6.3137,-6.3137,-6.3137,-6.3137,-6.3137,-6.3139,-6.3408,-6.4515,-6.5054,-6.5413,-6.646,-6.6999,-6.6937,-6.66,-6.5856,-6.4758,-6.2689,-6.0822,-5.9443,-5.7657,-5.6286,-5.5503,-5.5396,-5.5114,-5.4561,-5.411,-5.3959,-5.4084,-5.4536,-5.5089,-5.5717,-5.5641,-5.5566,-5.5566,-5.5566,-5.5365,-5.4988,-5.4938,-5.5189,-5.5717,-5.5767,-5.6319,-5.7474,-5.7474,-5.77,-5.8378,-5.8679,-5.87,-5.8315,-5.8124,-5.765,-5.6696,-5.5365,-5.3984,-5.2653,-5.1774,-5.024,-4.781,-4.6681,-4.6006,-4.5345,-4.2935,-4.1389,-4.1325,-4.0524,-4.0098,-4.0586,-4.0664,-4.0449,-3.9961,-3.957,-3.9141,-3.8711,-3.8574,-3.8574,-3.8574,-3.8574,-3.8574,-3.8535,-3.8281,-3.791,-3.75,-3.709,-3.6504,-3.5859,-3.5293,-3.5059,-3.5,-3.5039,-3.5039,-3.5,-3.4922,-3.4883,-3.4844,-3.4785,-3.4687,-3.4629,-3.4648,-3.4707,-3.4805,-3.4863,-3.5039,-3.543,-3.5566,-3.5625,-3.5742,-3.5586,-3.5195,-6.5742,-6.5054,-6.4395,-6.3737,-6.3199,-6.3109,-6.3137,-6.3137,-6.3137,-6.3137,-6.3137,-6.3137,-6.3378,-6.3977,-6.4695,-6.5353,-6.5922,-6.667,-6.6937,-6.6785,-6.5295,-6.5295,-6.626,-6.315,-6.1516,-6.1029,-5.9322,-5.7318,-5.5528,-5.5421,-5.5114,-5.4612,-5.4511,-5.4712,-5.5164,-5.5265,-5.5817,-5.6846,-5.6394,-5.6143,-5.6118,-5.6143,-5.6118,-5.6068,-5.6043,-5.6319,-5.6821,-5.6872,-5.7625,-5.9056,-5.8805,-5.8982,-5.9894,-5.9663,-5.9433,-5.9305,-5.8829,-5.775,-5.5767,-5.4938,-5.3658,-5.1699,-5.1306,-4.9967,-4.7102,-4.5288,-4.365,-4.2255,-4.1534,-4.0914,-4.0215,-3.9958,-4.0254,-4.0957,-4.1074,-4.0801,-4.0098,-3.9863,-3.9512,-3.8672,-3.8706,-3.8594,-3.8652,-3.8652,-3.8594,-3.8574,-3.8516,-3.8281,-3.7871,-3.75,-3.7051,-3.6582,-3.6152,-3.5898,-3.582,-3.5898,-3.5781,-3.5801,-3.5566,-3.5371,-3.5273,-3.5019,-3.4726,-3.4961,-3.4805,-3.4961,-3.5195,-3.5351,-3.5469,-3.5742,-3.5859,-3.5859,-3.5586,-3.5469,-3.5156,-6.5622,-6.4964,-6.4276,-6.3647,-6.3166,-6.3137,-6.3137,-6.3137,-6.3137,-6.3137,-6.3137,-6.3137,-6.3408,-6.4036,-6.4725,-6.5383,-6.5981,-6.5624,-6.5981,-6.6632,-6.4088,-6.4217,-6.6322,-6.2131,-6.0563,-6.1256,-5.8679,-5.6844,-5.6068,-5.587,-5.5591,-5.5114,-5.5064,-5.5164,-5.539,-5.539,-5.5942,-5.6972,-5.6768,-5.6818,-5.7072,-5.6545,-5.6219,-5.6244,-5.652,-5.6972,-5.7549,-5.8152,-5.8956,-5.991,-6.0111,-6.0216,-6.03,-6.0065,-5.9686,-5.9034,-5.7876,-5.6545,-5.5013,-5.4361,-5.3381,-5.1875,-5.0432,-4.8482,-4.5923,-4.3691,-4.1735,-4.0352,-4.0053,-3.9948,-3.9958,-4.0117,-4.0508,-4.1035,-4.1172,-4.0918,-4.0351,-4.0254,-4.0019,-3.9434,-3.9372,-3.9386,-3.9367,-3.9121,-3.8867,-3.8652,-3.8574,-3.8418,-3.8008,-3.7773,-3.7402,-3.6836,-3.6504,-3.6309,-3.6094,-3.6035,-3.6035,-3.5996,-3.5898,-3.5762,-3.5703,-3.5644,-3.5488,-3.5449,-3.541,-3.5469,-3.5723,-3.5762,-3.584,-3.6016,-3.6016,-3.5957,-3.5801,-3.5762,-3.5469,-6.5203,-6.4665,-6.4036,-6.3498,-6.3079,-6.3137,-6.3137,-6.3137,-6.3137,-6.3137,-6.3137,-6.3137,-6.3528,-6.4276,-6.4814,-6.5473,-6.6068,-6.5433,-6.5702,-6.657,-6.3736,-6.3765,-6.5639,-6.1864,-6.0061,-6.0329,-5.826,-5.675,-5.6267,-5.6219,-5.6018,-5.5666,-5.5616,-5.5616,-5.5641,-5.5742,-5.6319,-5.7148,-5.7268,-5.7545,-5.7876,-5.7149,-5.6647,-5.6721,-5.7047,-5.76,-5.8328,-5.9081,-5.991,-6.0738,-6.0914,-6.0814,-6.0591,-6.0111,-5.9309,-5.8101,-5.6919,-5.5666,-5.4436,-5.3934,-5.3231,-5.209,-4.9971,-4.7685,-4.5259,-4.2972,-4.1059,-3.9645,-3.9488,-3.9814,-4.0002,-4.0351,-4.0703,-4.1094,-4.1172,-4.0996,-4.0586,-4.0527,-4.0351,-3.9997,-3.983,-3.986,-3.9841,-3.9456,-3.9062,-3.8828,-3.8652,-3.8574,-3.8281,-3.8105,-3.7715,-3.7246,-3.7031,-3.6601,-3.6152,-3.6035,-3.6035,-3.6035,-3.5996,-3.5996,-3.6035,-3.6016,-3.6016,-3.5762,-3.5957,-3.6016,-3.5937,-3.5976,-3.5996,-3.6016,-3.6016,-3.6016,-3.5976,-3.6016,-3.5898,-6.4066,-6.3947,-6.3378,-6.3196,-6.3137,-6.3137,-6.3137,-6.3137,-6.3137,-6.3137,-6.3137,-6.3137,-6.3797,-6.4904,-6.4994,-6.5742,-6.6819,-6.6693,-6.6723,-6.6785,-6.4885,-6.4217,-6.4281,-6.2396,-6.063,-5.953,-5.8706,-5.7635,-5.6292,-5.6219,-5.6194,-5.6168,-5.6118,-5.6143,-5.6194,-5.657,-5.7223,-5.77,-5.7799,-5.8101,-5.8529,-5.8151,-5.785,-5.7851,-5.7851,-5.8328,-5.9257,-5.9458,-6.0236,-6.1843,-6.0989,-6.0651,-6.0968,-5.9648,-5.8077,-5.6595,-5.6244,-5.5465,-5.4034,-5.3708,-5.3231,-5.2029,-5.008,-4.8028,-4.5783,-4.3429,-4.1506,-4.003,-4.0124,-4.0357,-4.047,-4.0566,-4.0742,-4.1094,-4.1172,-4.0976,-4.0605,-4.0586,-4.0332,-4.0078,-4.0002,-4.0022,-3.9928,-3.946,-3.9336,-3.9141,-3.8848,-3.873,-3.8945,-3.8476,-3.8223,-3.8203,-3.7793,-3.7012,-3.6269,-3.623,-3.6172,-3.6211,-3.6309,-3.6133,-3.6055,-3.6035,-3.6074,-3.6094,-3.6191,-3.6211,-3.6074,-3.6035,-3.6016,-3.6035,-3.6035,-3.6035,-3.6035,-3.6035,-3.5957,-6.3767,-6.3378,-6.3169,-6.3137,-6.3137,-6.3137,-6.3137,-6.3137,-6.3137,-6.3137,-6.3137,-6.3137,-6.3797,-6.5024,-6.5024,-6.5742,-6.6786,-6.5827,-6.589,-6.6508,-6.3959,-6.383,-6.5513,-6.1931,-6.0239,-6.0294,-5.8279,-5.6895,-5.634,-5.6219,-5.6219,-5.6219,-5.6219,-5.6219,-5.6244,-5.6394,-5.6947,-5.7775,-5.7876,-5.8328,-5.9106,-5.9004,-5.8904,-5.8905,-5.8579,-5.8755,-5.9483,-6.0186,-6.104,-6.1969,-6.1617,-6.1286,-6.1035,-5.9284,-5.7598,-5.6319,-5.5566,-5.4712,-5.3833,-5.3381,-5.3055,-5.2473,-4.9296,-4.7128,-4.5738,-4.3052,-4.0706,-4.041,-4.0415,-4.0647,-4.0899,-4.0937,-4.0996,-4.1133,-4.1152,-4.1094,-4.0996,-4.0937,-4.0879,-4.0762,-4.0704,-4.0607,-4.0295,-4.0137,-3.9941,-3.9687,-3.9512,-3.9492,-3.9551,-3.9336,-3.9121,-3.8965,-3.8711,-3.832,-3.7773,-3.7148,-3.6855,-3.6855,-3.6875,-3.6875,-3.6816,-3.6797,-3.6836,-3.6894,-3.6836,-3.6641,-3.6582,-3.6191,-3.6172,-3.6094,-3.6074,-3.6035,-3.6035,-3.6035,-3.6035,-6.3468,-6.3109,-6.3137,-6.3137,-6.3137,-6.3137,-6.3137,-6.3137,-6.3137,-6.3137,-6.3109,-6.3288,-6.4006,-6.4964,-6.5233,-6.5922,-6.6786,-6.5702,-6.5827,-6.6723,-6.4503,-6.4345,-6.5105,-6.1797,-6.0081,-6.0173,-5.7667,-5.6219,-5.6219,-5.6219,-5.6219,-5.6219,-5.6369,-5.6369,-5.6294,-5.6545,-5.7123,-5.7625,-5.7976,-5.8502,-5.9232,-5.9553,-5.9782,-5.9759,-5.9583,-5.9684,-6.006,-6.0964,-6.1692,-6.2169,-6.2119,-6.1521,-6.037,-5.8807,-5.7219,-5.5864,-5.4988,-5.4235,-5.3557,-5.3105,-5.2629,-5.1886,-4.8729,-4.6385,-4.5581,-4.2379,-4.0739,-4.0628,-4.0744,-4.0861,-4.1035,-4.1035,-4.0957,-4.0957,-4.0957,-4.0957,-4.0976,-4.1094,-4.1152,-4.1133,-4.1113,-4.1034,-4.078,-4.0566,-4.0371,-4.0117,-4.0,-3.9922,-4.0059,-3.9961,-3.9883,-3.9648,-3.9492,-3.9258,-3.8945,-3.8496,-3.7773,-3.7656,-3.7383,-3.7441,-3.7598,-3.7578,-3.7617,-3.7656,-3.7519,-3.7285,-3.6953,-3.6523,-3.6328,-3.623,-3.6094,-3.6035,-3.6035,-3.6035,-3.6035,-6.3109,-6.3137,-6.3137,-6.3137,-6.3137,-6.3137,-6.3137,-6.3137,-6.3137,-6.3137,-6.3139,-6.3677,-6.4306,-6.5054,-6.5712,-6.64,-6.6999,-6.6964,-6.6934,-6.6937,-6.6723,-6.5794,-6.4781,-6.2773,-6.0708,-5.9299,-5.7182,-5.6294,-5.6369,-5.6394,-5.6369,-5.6394,-5.6821,-5.6846,-5.6294,-5.7198,-5.7524,-5.7475,-5.8125,-5.865,-5.8854,-5.9747,-6.0247,-6.0333,-6.0788,-6.1065,-6.114,-6.1667,-6.2195,-6.2647,-6.227,-6.0964,-5.9258,-5.8278,-5.6942,-5.5261,-5.4637,-5.4034,-5.3155,-5.2911,-5.2119,-5.0693,-4.8243,-4.6293,-4.4909,-4.2601,-4.1113,-4.1152,-4.1191,-4.1172,-4.1113,-4.082,-4.0586,-4.0527,-4.0605,-4.0605,-4.0644,-4.0937,-4.1191,-4.125,-4.1269,-4.1191,-4.1094,-4.084,-4.0605,-4.0508,-4.0273,-4.0176,-4.0449,-4.0293,-4.0176,-4.0312,-4.0234,-4.0,-3.9922,-3.9805,-3.9043,-3.8398,-3.8008,-3.7851,-3.8203,-3.8301,-3.8437,-3.8476,-3.8086,-3.7832,-3.7539,-3.7129,-3.6699,-3.6523,-3.6309,-3.6094,-3.6035,-3.6035,-3.6035,-6.3137,-6.3137,-6.3137,-6.3137,-6.3137,-6.3137,-6.3137,-6.3137,-6.3137,-6.3137,-6.3199,-6.3737,-6.4366,-6.5173,-6.6161,-6.7029,-6.7687,-6.8076,-6.7897,-6.7148,-6.7029,-6.6991,-6.6479,-6.4944,-6.2726,-6.0191,-5.8245,-5.735,-5.7374,-5.7349,-5.7374,-5.7424,-5.7524,-5.7549,-5.7323,-5.7374,-5.7499,-5.8127,-5.815,-5.863,-5.9659,-6.0147,-6.0522,-6.0964,-6.1466,-6.1743,-6.1768,-6.1918,-6.227,-6.2797,-6.2295,-6.1165,-5.9483,-5.8404,-5.7222,-5.5842,-5.4938,-5.426,-5.3557,-5.3105,-5.2629,-5.1513,-4.8938,-4.7195,-4.6311,-4.35,-4.1758,-4.1621,-4.1621,-4.1561,-4.1191,-4.0781,-4.0547,-4.0527,-4.0527,-4.0527,-4.0664,-4.1191,-4.168,-4.1933,-4.1777,-4.1621,-4.1523,-4.1211,-4.0976,-4.0937,-4.0801,-4.082,-4.0898,-4.084,-4.0801,-4.0937,-4.0801,-4.0781,-4.0762,-4.0703,-4.0273,-3.9668,-3.9199,-3.8906,-3.9121,-3.918,-3.9316,-3.918,-3.8769,-3.8398,-3.8105,-3.7695,-3.7266,-3.6836,-3.6601,-3.6367,-3.6113,-3.6113,-3.623,-6.3137,-6.3137,-6.3137,-6.3137,-6.3137,-6.3137,-6.3137,-6.3137,-6.3137,-6.3137,-6.3228,-6.4006,-6.4755,-6.5562,-6.6759,-6.7717,-6.8375,-6.8824,-6.8555,-6.7837,-6.7747,-6.7867,-6.7674,-6.5579,-6.3276,-6.0781,-5.8752,-5.7926,-5.7901,-5.7901,-5.7901,-5.7901,-5.8102,-5.8077,-5.7951,-5.7775,-5.8001,-5.8353,-5.8325,-5.8781,-5.9809,-6.0388,-6.0886,-6.1462,-6.2019,-6.2295,-6.232,-6.232,-6.2471,-6.2621,-6.2119,-6.1065,-5.9834,-5.8604,-5.7399,-5.6269,-5.5214,-5.431,-5.3733,-5.3206,-5.2491,-5.1562,-4.9699,-4.7701,-4.6668,-4.4062,-4.306,-4.1993,-4.1817,-4.1581,-4.121,-4.0781,-4.0547,-4.0527,-4.0527,-4.0664,-4.0976,-4.1601,-4.2091,-4.2267,-4.2129,-4.2013,-4.1778,-4.166,-4.1308,-4.123,-4.1172,-4.1269,-4.1328,-4.1387,-4.1445,-4.1543,-4.1641,-4.1621,-4.1621,-4.1523,-4.1406,-4.0996,-4.0566,-4.041,-4.0449,-4.0312,-4.0312,-4.0,-3.9629,-3.9199,-3.8867,-3.8281,-3.7793,-3.7402,-3.7012,-3.6836,-3.668,-3.6641,-3.6719,-6.3137,-6.3137,-6.3137,-6.3137,-6.3137,-6.3137,-6.3137,-6.3137,-6.3137,-6.3137,-6.3348,-6.4366,-6.5323,-6.6161,-6.7388,-6.8405,-6.8974,-6.9213,-6.9213,-6.9064,-6.9004,-6.8854,-6.8061,-6.5345,-6.3114,-6.1289,-5.918,-5.8152,-5.8177,-5.8152,-5.7976,-5.8152,-5.8554,-5.8529,-5.8252,-5.8504,-5.8453,-5.8328,-5.858,-5.906,-5.9759,-6.0706,-6.1471,-6.1988,-6.2496,-6.2772,-6.2747,-6.2747,-6.2772,-6.2647,-6.1768,-6.0939,-6.0085,-5.8755,-5.7399,-5.6369,-5.5239,-5.4461,-5.3833,-5.3356,-5.2451,-5.1097,-5.0628,-4.937,-4.6626,-4.5974,-4.4957,-4.3198,-4.2445,-4.1951,-4.1618,-4.0936,-4.0644,-4.0625,-4.0684,-4.0957,-4.1719,-4.2187,-4.2521,-4.2543,-4.2443,-4.2345,-4.1975,-4.1915,-4.1719,-4.1465,-4.1367,-4.1562,-4.1719,-4.1875,-4.2031,-4.2129,-4.2168,-4.2129,-4.2012,-4.1992,-4.1914,-4.1992,-4.166,-4.1562,-4.1406,-4.1211,-4.1055,-4.0781,-4.0371,-3.9961,-3.9473,-3.8867,-3.8359,-3.7949,-3.7656,-3.7441,-3.7344,-3.7305,-3.7226,-6.3137,-6.3137,-6.3137,-6.3137,-6.3137,-6.3137,-6.3137,-6.3137,-6.3137,-6.3137,-6.3378,-6.4455,-6.5413,-6.6191,-6.7926,-6.9093,-6.9662,-7.0171,-7.0111,-6.9842,-7.0231,-7.0021,-6.8991,-6.6225,-6.4438,-6.3478,-6.0599,-5.9054,-5.9081,-5.8981,-5.9006,-5.9081,-5.9131,-5.9207,-5.9106,-5.883,-5.888,-5.9057,-5.9161,-5.9794,-6.0663,-6.1365,-6.2064,-6.254,-6.2747,-6.2822,-6.2822,-6.2822,-6.2621,-6.2195,-6.1592,-6.0713,-5.9784,-5.8554,-5.7524,-5.6771,-5.5767,-5.4913,-5.4361,-5.3758,-5.3203,-5.2688,-5.1654,-5.064,-5.0405,-4.8658,-4.7612,-4.6386,-4.5258,-4.3783,-4.3177,-4.2039,-4.1346,-4.1367,-4.1211,-4.1387,-4.2109,-4.2637,-4.2988,-4.3285,-4.3047,-4.2871,-4.2673,-4.24,-4.2207,-4.207,-4.2031,-4.207,-4.2207,-4.2344,-4.25,-4.2383,-4.2383,-4.2383,-4.2383,-4.2383,-4.248,-4.2754,-4.2637,-4.2441,-4.2187,-4.1836,-4.168,-4.1465,-4.0898,-4.043,-3.9902,-3.9336,-3.8926,-3.8574,-3.8398,-3.8242,-3.8125,-3.8047,-3.7891,-6.3137,-6.3137,-6.3137,-6.3137,-6.3137,-6.3137,-6.3137,-6.3137,-6.3137,-6.3228,-6.3647,-6.4545,-6.5682,-6.6939,-6.8345,-6.9512,-7.035,-7.0739,-7.0679,-7.05,-7.0709,-7.0649,-6.9565,-6.6923,-6.5186,-6.4758,-6.1365,-5.9689,-5.9483,-5.9508,-5.9508,-5.9458,-5.9508,-5.9508,-5.9433,-5.9257,-5.9307,-5.9736,-5.9844,-6.035,-6.1441,-6.1821,-6.222,-6.269,-6.2822,-6.2822,-6.2822,-6.2822,-6.2571,-6.1969,-6.1266,-6.0409,-5.9501,-5.8252,-5.7349,-5.6948,-5.5842,-5.4863,-5.4511,-5.3858,-5.3507,-5.3543,-5.2705,-5.2381,-5.2051,-5.0834,-4.9958,-4.8262,-4.6858,-4.5937,-4.5138,-4.3753,-4.2499,-4.1876,-4.1894,-4.2148,-4.2656,-4.3086,-4.3418,-4.3574,-4.3516,-4.3281,-4.3176,-4.2868,-4.2676,-4.2461,-4.2344,-4.248,-4.2656,-4.2812,-4.3027,-4.3066,-4.3144,-4.3281,-4.3242,-4.3203,-4.3125,-4.3359,-4.3398,-4.3242,-4.2871,-4.2461,-4.2148,-4.1875,-4.1367,-4.0879,-4.0371,-3.9941,-3.9687,-3.9414,-3.9219,-3.9101,-3.9004,-3.8848,-3.8672,-6.3137,-6.3137,-6.3137,-6.3137,-6.3137,-6.3137,-6.3137,-6.3137,-6.3137,-6.3408,-6.4006,-6.4695,-6.6071,-6.8048,-6.8645,-6.9692,-7.0859,-7.0859,-7.0889,-7.0829,-7.0889,-7.0829,-7.0409,-6.6939,-6.5044,-6.421,-6.1063,-5.9792,-5.9508,-5.9508,-5.9508,-5.9508,-5.9508,-5.9508,-5.9483,-5.9458,-5.9784,-6.0136,-6.0345,-6.0902,-6.1743,-6.2077,-6.2402,-6.2716,-6.2822,-6.2822,-6.2797,-6.2722,-6.2421,-6.1943,-6.0889,-6.0079,-5.9267,-5.775,-5.7048,-5.6648,-5.5666,-5.4834,-5.4536,-5.3858,-5.3457,-5.3889,-5.4436,-5.4193,-5.3227,-5.271,-5.1808,-5.0215,-4.8565,-4.767,-4.6624,-4.5438,-4.4019,-4.2901,-4.294,-4.3008,-4.3262,-4.3555,-4.3769,-4.3789,-4.3808,-4.3696,-4.3461,-4.3245,-4.3144,-4.3418,-4.3242,-4.3262,-4.3496,-4.373,-4.3965,-4.418,-4.4258,-4.4355,-4.4238,-4.4101,-4.3965,-4.3965,-4.4004,-4.3867,-4.3457,-4.3047,-4.2617,-4.2246,-4.1894,-4.1445,-4.0898,-4.0586,-4.0371,-4.0156,-3.9941,-3.9941,-3.9961,-3.9766,-3.957,-6.3137,-6.3137,-6.3137,-6.3137,-6.3137,-6.3137,-6.3137,-6.3137,-6.3137,-6.3468,-6.4066,-6.4755,-6.6191,-6.8016,-6.8764,-6.9692,-7.0799,-7.0919,-7.0919,-7.0919,-7.0919,-7.0919,-7.0111,-6.6899,-6.4571,-6.3025,-6.071,-5.956,-5.9508,-5.9508,-5.9508,-5.9508,-5.9508,-5.9508,-5.9508,-5.9508,-5.9759,-6.0286,-6.0742,-6.1295,-6.1918,-6.2415,-6.2665,-6.2822,-6.2822,-6.2822,-6.2722,-6.2421,-6.1943,-6.1341,-6.0638,-5.9604,-5.8424,-5.75,-5.6772,-5.6294,-5.5717,-5.5164,-5.5064,-5.4536,-5.4436,-5.4838,-5.5039,-5.5296,-5.548,-5.4769,-5.4448,-5.3398,-5.1666,-4.9486,-4.7585,-4.5729,-4.4901,-4.4424,-4.3679,-4.3418,-4.3945,-4.418,-4.4219,-4.4291,-4.4551,-4.4661,-4.4557,-4.4155,-4.4116,-4.4336,-4.4277,-4.4199,-4.4355,-4.4531,-4.4726,-4.4902,-4.4902,-4.4902,-4.4805,-4.4648,-4.4492,-4.4414,-4.4453,-4.4433,-4.4043,-4.3574,-4.3125,-4.2793,-4.2519,-4.2012,-4.1465,-4.1211,-4.0996,-4.082,-4.0644,-4.0625,-4.0566,-4.0488,-4.0371,-6.3137,-6.3137,-6.3137,-6.3137,-6.3137,-6.3137,-6.3137,-6.3196,-6.3378,-6.3887,-6.4605,-6.5473,-6.6909,-6.8465,-6.9153,-7.0021,-7.0709,-7.0919,-7.0919,-7.0919,-7.0824,-7.0403,-6.9124,-6.6858,-6.4571,-6.3438,-6.1816,-6.0584,-5.9792,-5.9508,-5.9508,-5.9508,-5.9508,-5.9508,-5.9508,-5.9508,-5.996,-6.0638,-6.1014,-6.1567,-6.232,-6.2647,-6.2822,-6.2822,-6.2822,-6.2822,-6.2797,-6.2295,-6.1768,-6.109,-6.0136,-5.9131,-5.7976,-5.7098,-5.6443,-5.5883,-5.5311,-5.5013,-5.4863,-5.4561,-5.4486,-5.534,-5.539,-5.5717,-5.592,-5.5701,-5.5401,-5.5046,-5.3579,-5.1656,-4.9391,-4.7454,-4.6591,-4.5753,-4.4683,-4.4048,-4.4492,-4.4531,-4.4609,-4.4844,-4.5007,-4.5098,-4.5098,-4.4973,-4.4798,-4.4739,-4.4726,-4.4668,-4.4785,-4.498,-4.5195,-4.5332,-4.5332,-4.5312,-4.5273,-4.5137,-4.4922,-4.4844,-4.4824,-4.4805,-4.4609,-4.4101,-4.3594,-4.3262,-4.293,-4.2578,-4.2109,-4.1875,-4.1641,-4.1426,-4.1269,-4.1211,-4.1074,-4.0879,-4.082,-6.3019,-6.2959,-6.3019,-6.3019,-6.2959,-6.3019,-6.3137,-6.3226,-6.3737,-6.4306,-6.5173,-6.64,-6.7567,-6.8884,-6.9632,-7.029,-7.0769,-7.0919,-7.0919,-7.0919,-7.0919,-7.0206,-6.8856,-6.7479,-6.6202,-6.5427,-6.2656,-6.0888,-5.9792,-5.9508,-5.9508,-5.9508,-5.9508,-5.9508,-5.9508,-5.9659,-6.0136,-6.0989,-6.1266,-6.1793,-6.2596,-6.2822,-6.2822,-6.2822,-6.2822,-6.2722,-6.2546,-6.2094,-6.1592,-6.1014,-5.9458,-5.8478,-5.7775,-5.6846,-5.6015,-5.5522,-5.5156,-5.4963,-5.4988,-5.4561,-5.4561,-5.544,-5.5541,-5.5717,-5.597,-5.5824,-5.5672,-5.5399,-5.4638,-5.3546,-5.1699,-4.9404,-4.7815,-4.6737,-4.5285,-4.4778,-4.5019,-4.4902,-4.5195,-4.5527,-4.5809,-4.6072,-4.5859,-4.5714,-4.5461,-4.5227,-4.5215,-4.5176,-4.5293,-4.543,-4.5644,-4.5762,-4.5762,-4.5762,-4.5723,-4.5683,-4.5469,-4.5371,-4.5293,-4.5215,-4.5176,-4.4844,-4.4355,-4.3652,-4.3262,-4.2969,-4.2754,-4.2539,-4.2305,-4.2051,-4.1758,-4.1543,-4.1367,-4.123,-4.1152,-6.275,-6.2301,-6.2839,-6.275,-6.2391,-6.2839,-6.3137,-6.3169,-6.3767,-6.4395,-6.5173,-6.643,-6.7837,-6.8884,-6.9692,-7.032,-7.0799,-7.0919,-7.0919,-7.0919,-7.0919,-7.0403,-7.0111,-6.919,-6.8557,-6.651,-6.3099,-6.0227,-5.9869,-5.9508,-5.9508,-5.9508,-5.9508,-5.9508,-5.9633,-5.9935,-6.0437,-6.1165,-6.1647,-6.225,-6.2647,-6.2822,-6.2822,-6.2822,-6.2822,-6.2596,-6.2144,-6.1642,-6.104,-6.0387,-5.8905,-5.8152,-5.77,-5.6821,-5.6143,-5.5889,-5.5487,-5.529,-5.5491,-5.534,-5.544,-5.5892,-5.6018,-5.6043,-5.6168,-5.6095,-5.597,-5.5847,-5.5355,-5.4206,-5.1699,-4.9995,-4.8398,-4.6947,-4.5672,-4.4961,-4.5762,-4.6055,-4.6035,-4.6328,-4.6758,-4.7022,-4.6787,-4.6455,-4.6123,-4.587,-4.5742,-4.5742,-4.584,-4.5937,-4.6074,-4.6152,-4.6191,-4.6191,-4.6191,-4.6152,-4.6035,-4.5976,-4.5879,-4.5742,-4.5683,-4.5586,-4.5137,-4.4433,-4.3867,-4.3535,-4.334,-4.3125,-4.291,-4.2617,-4.2226,-4.1836,-4.1621,-4.1426,-4.123,-6.2899,-6.263,-6.2959,-6.2899,-6.269,-6.2929,-6.3137,-6.3228,-6.4096,-6.4725,-6.5562,-6.7089,-6.8345,-6.9153,-7.0051,-7.062,-7.0829,-7.0919,-7.0919,-7.0919,-7.0919,-7.0919,-7.0694,-7.0075,-6.8325,-6.6061,-6.2838,-6.1039,-6.0888,-5.992,-5.956,-5.9508,-5.9508,-5.9508,-5.9608,-6.001,-6.0638,-6.1215,-6.1943,-6.2496,-6.2797,-6.2847,-6.2822,-6.2822,-6.2797,-6.2546,-6.2019,-6.1466,-6.0914,-6.0161,-5.878,-5.8077,-5.76,-5.6947,-5.6095,-5.5872,-5.5594,-5.5491,-5.5717,-5.5516,-5.5616,-5.6093,-5.6219,-5.6219,-5.6219,-5.6219,-5.6219,-5.6095,-5.5678,-5.4672,-5.2767,-5.0727,-4.921,-4.8042,-4.645,-4.5993,-4.6641,-4.707,-4.7168,-4.7148,-4.7324,-4.748,-4.7598,-4.7254,-4.6845,-4.6533,-4.6328,-4.6269,-4.6308,-4.6308,-4.6308,-4.6308,-4.6289,-4.6289,-4.6308,-4.6308,-4.6308,-4.6308,-4.6289,-4.6152,-4.6035,-4.5859,-4.5625,-4.5176,-4.4687,-4.4141,-4.373,-4.3457,-4.3301,-4.3164,-4.2773,-4.2363,-4.1933,-4.1621,-4.1426,-6.2989,-6.2899,-6.3019,-6.2989,-6.2899,-6.3049,-6.3137,-6.3318,-6.4276,-6.4844,-6.5353,-6.7358,-6.8615,-6.9273,-7.0171,-7.0889,-7.0919,-7.0919,-7.0919,-7.0919,-7.0919,-7.0919,-7.0403,-6.9457,-6.8219,-6.7351,-6.4922,-6.2904,-6.1165,-6.015,-5.9637,-5.9558,-5.9558,-5.9659,-5.9809,-6.0487,-6.0889,-6.1642,-6.2446,-6.2973,-6.2998,-6.2898,-6.2822,-6.2822,-6.2822,-6.2521,-6.1818,-6.1416,-6.0788,-5.9985,-5.893,-5.8052,-5.7901,-5.6972,-5.6221,-5.5774,-5.5644,-5.5591,-5.5591,-5.5616,-5.5817,-5.6168,-5.6219,-5.6269,-5.6369,-5.6443,-5.6342,-5.612,-5.6002,-5.4717,-5.2841,-5.1409,-4.9794,-4.8419,-4.7275,-4.668,-4.7285,-4.7695,-4.7891,-4.7878,-4.7923,-4.7962,-4.8183,-4.7707,-4.7198,-4.6914,-4.6621,-4.6289,-4.6308,-4.6308,-4.6308,-4.6308,-4.6308,-4.6308,-4.6308,-4.6308,-4.6308,-4.6308,-4.6308,-4.623,-4.6152,-4.6035,-4.5801,-4.5566,-4.5234,-4.4707,-4.4238,-4.3867,-4.3789,-4.3613,-4.3281,-4.2832,-4.2266,-4.1836,-4.1562,-6.272,-6.2271,-6.2839,-6.275,-6.2391,-6.2839,-6.3137,-6.3169,-6.3857,-6.4485,-6.5144,-6.664,-6.8016,-6.9183,-7.035,-7.0859,-7.0919,-7.0919,-7.0919,-7.0919,-7.0919,-7.0919,-7.0919,-7.0759,-6.9897,-6.8839,-6.7706,-6.4427,-6.1487,-6.0049,-5.961,-5.9686,-5.996,-6.0236,-6.0311,-6.109,-6.2069,-6.2621,-6.3199,-6.3525,-6.3475,-6.3073,-6.2873,-6.2822,-6.2772,-6.2345,-6.1542,-6.119,-6.0738,-5.9684,-5.9006,-5.863,-5.8429,-5.7573,-5.6994,-5.6642,-5.6415,-5.6093,-5.6118,-5.6118,-5.6194,-5.6394,-5.6369,-5.6495,-5.6795,-5.6866,-5.6738,-5.6244,-5.6402,-5.4941,-5.2405,-5.1545,-4.9903,-4.836,-4.7052,-4.7051,-4.7578,-4.793,-4.8164,-4.834,-4.8229,-4.8443,-4.8652,-4.8111,-4.7444,-4.7198,-4.6914,-4.6601,-4.6387,-4.6445,-4.6445,-4.6465,-4.6328,-4.6308,-4.6308,-4.6308,-4.6308,-4.6308,-4.6308,-4.6308,-4.623,-4.6133,-4.6016,-4.5781,-4.5508,-4.5332,-4.5,-4.4668,-4.4394,-4.4043,-4.3691,-4.3125,-4.25,-4.2109,-4.1836,-6.2929,-6.266,-6.2959,-6.2929,-6.269,-6.2959,-6.3137,-6.3228,-6.3737,-6.4366,-6.5293,-6.6849,-6.8465,-6.9901,-7.0739,-7.0889,-7.0919,-7.0919,-7.0919,-7.0919,-7.0919,-7.0919,-7.0919,-7.0794,-7.058,-6.9447,-6.8209,-6.5572,-6.2379,-6.1085,-6.0838,-6.0038,-6.0211,-6.0512,-6.0814,-6.1592,-6.2019,-6.2421,-6.2873,-6.335,-6.345,-6.3174,-6.2822,-6.2822,-6.2822,-6.222,-6.1492,-6.1165,-6.0613,-5.9633,-5.8981,-5.8703,-5.8554,-5.7951,-5.7524,-5.7498,-5.7323,-5.7022,-5.6746,-5.6696,-5.6821,-5.7097,-5.7148,-5.7323,-5.7473,-5.7493,-5.7415,-5.7173,-5.618,-5.4226,-5.1827,-5.0895,-4.9276,-4.7901,-4.7109,-4.7422,-4.7754,-4.7969,-4.8242,-4.8398,-4.8574,-4.8862,-4.8979,-4.8529,-4.8052,-4.7727,-4.7441,-4.7148,-4.6933,-4.6855,-4.6797,-4.6719,-4.6504,-4.6308,-4.6308,-4.6308,-4.6308,-4.6308,-4.6308,-4.6308,-4.6308,-4.623,-4.6113,-4.6113,-4.5996,-4.582,-4.5664,-4.5195,-4.4687,-4.4375,-4.4101,-4.3457,-4.2851,-4.2715,-4.2441,-6.2929,-6.3137,-6.3137,-6.3137,-6.3137,-6.3137,-6.3137,-6.3196,-6.3528,-6.4246,-6.5443,-6.7238,-6.9153,-7.041,-7.0769,-7.0919,-7.0919,-7.0919,-7.0919,-7.0919,-7.0919,-7.0919,-7.0919,-7.0764,-7.0271,-6.8761,-6.9163,-6.6883,-6.4533,-6.3119,-6.2362,-6.0493,-6.0738,-6.0989,-6.1416,-6.1943,-6.2395,-6.2672,-6.2998,-6.335,-6.35,-6.3124,-6.2898,-6.2822,-6.2722,-6.237,-6.1542,-6.1215,-6.0638,-5.9885,-5.9232,-5.8979,-5.8877,-5.8453,-5.8127,-5.8001,-5.7901,-5.7725,-5.7499,-5.7424,-5.7549,-5.7775,-5.8052,-5.7976,-5.7826,-5.7972,-5.7475,-5.6822,-5.5874,-5.3865,-5.1691,-5.0123,-4.9028,-4.8133,-4.7539,-4.7812,-4.8047,-4.8262,-4.832,-4.834,-4.8666,-4.9038,-4.9077,-4.894,-4.8627,-4.8203,-4.793,-4.7695,-4.75,-4.7344,-4.7207,-4.709,-4.6797,-4.6562,-4.6504,-4.6465,-4.6406,-4.6308,-4.6308,-4.6308,-4.6308,-4.6308,-4.625,-4.6269,-4.6308,-4.6211,-4.5976,-4.5449,-4.4922,-4.4629,-4.4277,-4.375,-4.332,-4.3164,-4.2891,-6.251,-6.3137,-6.3079,-6.3107,-6.3137,-6.3137,-6.3137,-6.3079,-6.3169,-6.4006,-6.5592,-6.7657,-6.9303,-7.0111,-7.0679,-7.0919,-7.0919,-7.0919,-7.0919,-7.0919,-7.0919,-7.0919,-7.0919,-7.0889,-7.0794,-7.061,-7.0391,-6.867,-6.6541,-6.5446,-6.3434,-6.0909,-6.132,-6.1718,-6.2069,-6.2395,-6.2847,-6.3099,-6.335,-6.3425,-6.3425,-6.3149,-6.2847,-6.2822,-6.2797,-6.2546,-6.1969,-6.1466,-6.0889,-6.0161,-5.9608,-5.9332,-5.9205,-5.8854,-5.8678,-5.8602,-5.8352,-5.8303,-5.8328,-5.8077,-5.7901,-5.8052,-5.8303,-5.8504,-5.8227,-5.8399,-5.7477,-5.553,-5.4751,-5.2868,-5.0798,-4.9318,-4.8635,-4.8096,-4.7637,-4.7891,-4.8164,-4.8535,-4.8555,-4.849,-4.8797,-4.9321,-4.9551,-4.9418,-4.9238,-4.8926,-4.8613,-4.8379,-4.8027,-4.7832,-4.7676,-4.748,-4.7148,-4.6933,-4.6836,-4.6719,-4.6504,-4.6367,-4.6308,-4.6308,-4.6308,-4.6308,-4.6308,-4.6308,-4.6308,-4.6308,-4.6211,-4.5644,-4.5176,-4.4863,-4.4473,-4.4023,-4.3516,-4.3183,-4.2949,-6.1882,-6.245,-6.248,-6.272,-6.3137,-6.3137,-6.3137,-6.3139,-6.3498,-6.4904,-6.6879,-6.8375,-6.9572,-7.038,-7.0709,-7.0919,-7.0919,-7.0919,-7.0919,-7.0919,-7.0919,-7.0919,-7.0919,-7.1009,-7.1074,-7.1378,-7.1362,-6.9816,-6.6934,-6.6854,-6.4695,-6.2761,-6.2024,-6.2169,-6.2496,-6.2772,-6.3023,-6.3124,-6.3224,-6.3174,-6.3124,-6.3023,-6.2822,-6.2822,-6.2822,-6.2546,-6.2019,-6.1466,-6.0914,-6.0362,-5.9809,-5.9583,-5.9508,-5.9232,-5.9155,-5.9178,-5.8854,-5.8981,-5.9031,-5.8755,-5.8554,-5.888,-5.9081,-5.9081,-5.8653,-5.8012,-5.7018,-5.5323,-5.3318,-5.1317,-5.0104,-4.8887,-4.8057,-4.766,-4.7715,-4.8008,-4.832,-4.873,-4.8965,-4.8959,-4.9374,-4.9874,-5.0032,-5.0046,-4.9811,-4.9554,-4.9355,-4.9043,-4.873,-4.8398,-4.8262,-4.7969,-4.7617,-4.7187,-4.7051,-4.6836,-4.6582,-4.6426,-4.6308,-4.6308,-4.6308,-4.6308,-4.6308,-4.6308,-4.6308,-4.6308,-4.6133,-4.5762,-4.541,-4.5098,-4.4766,-4.4394,-4.3867,-4.3281,-4.288,-6.1493,-6.2061,-6.2091,-6.248,-6.3107,-6.3137,-6.3137,-6.3169,-6.3737,-6.5473,-6.8016,-6.8884,-6.9871,-7.0679,-7.0919,-7.0919,-7.0919,-7.0919,-7.0919,-7.0979,-7.1098,-7.1158,-7.1278,-7.1493,-7.1828,-7.2079,-7.1465,-6.9844,-6.7659,-6.7586,-6.5528,-6.3644,-6.2747,-6.2998,-6.2998,-6.3249,-6.3299,-6.3324,-6.3324,-6.3174,-6.3174,-6.3299,-6.3224,-6.3199,-6.3149,-6.3023,-6.2421,-6.1818,-6.1065,-6.0512,-6.001,-5.9558,-5.9508,-5.9508,-5.9508,-5.9508,-5.9508,-5.9558,-5.9583,-5.9332,-5.9131,-5.9332,-5.9408,-5.9458,-5.9075,-5.7929,-5.7242,-5.4849,-5.2369,-5.0306,-4.9518,-4.8133,-4.7819,-4.7578,-4.8144,-4.8476,-4.8691,-4.9023,-4.9258,-4.9468,-4.9944,-5.0368,-5.0499,-5.0511,-5.0278,-5.0022,-4.9824,-4.9629,-4.9512,-4.9199,-4.8906,-4.8555,-4.8144,-4.7676,-4.7226,-4.6992,-4.6738,-4.6406,-4.6308,-4.6308,-4.6308,-4.6308,-4.6308,-4.6308,-4.6308,-4.6308,-4.6172,-4.5957,-4.5664,-4.5312,-4.4902,-4.4414,-4.4004,-4.3394,-4.2773,-6.1463,-6.2061,-6.2091,-6.248,-6.3107,-6.3137,-6.3109,-6.3288,-6.4006,-6.5742,-6.8166,-6.9393,-7.0231,-7.0799,-7.0919,-7.0919,-7.0919,-7.0919,-7.0949,-7.1128,-7.1487,-7.1757,-7.2056,-7.2331,-7.2613,-7.2451,-7.1689,-7.0331,-6.8679,-6.7553,-6.5802,-6.4748,-6.4028,-6.3977,-6.3751,-6.4178,-6.4404,-6.4404,-6.4329,-6.4002,-6.3827,-6.4028,-6.3927,-6.3751,-6.3676,-6.3576,-6.3099,-6.2144,-6.1441,-6.0939,-6.0111,-5.9659,-5.9508,-5.9508,-5.9508,-5.9508,-5.9533,-5.9784,-6.0186,-5.9759,-5.9583,-5.9608,-5.9684,-5.9608,-5.9508,-5.8685,-5.7141,-5.4119,-5.2355,-5.0545,-4.896,-4.7433,-4.7727,-4.8047,-4.8652,-4.9023,-4.9258,-4.9531,-4.9805,-5.0,-5.0385,-5.081,-5.0953,-5.0996,-5.082,-5.0566,-5.0273,-5.0137,-5.0117,-4.9824,-4.9453,-4.9023,-4.8574,-4.7988,-4.75,-4.7168,-4.6875,-4.6504,-4.6308,-4.6308,-4.6308,-4.6308,-4.6308,-4.6308,-4.6308,-4.6308,-4.6308,-4.6269,-4.5898,-4.5508,-4.4824,-4.4316,-4.3945,-4.3687,-4.3247,-6.0835,-6.1493,-6.1912,-6.248,-6.3107,-6.3137,-6.3318,-6.3917,-6.5353,-6.7238,-6.9034,-6.9871,-7.032,-7.0739,-7.0919,-7.0919,-7.0919,-7.0919,-7.1009,-7.1547,-7.1876,-7.2176,-7.2535,-7.299,-7.343,-7.3492,-7.2415,-7.0887,-6.9991,-6.7998,-6.6128,-6.5039,-6.4982,-6.468,-6.4379,-6.4429,-6.4454,-6.4454,-6.4429,-6.4354,-6.4254,-6.4404,-6.4429,-6.4228,-6.4203,-6.4078,-6.3726,-6.2621,-6.1943,-6.1291,-6.0387,-5.9885,-5.9608,-5.9508,-5.9508,-5.9608,-5.9759,-6.0311,-6.0588,-6.0412,-6.006,-6.006,-5.996,-5.9784,-5.9583,-5.6517,-5.4672,-5.3178,-5.1292,-4.9512,-4.8032,-4.8294,-4.8555,-4.8984,-4.9453,-4.9687,-4.9941,-5.0273,-5.0547,-5.0644,-5.0897,-5.1034,-5.1191,-5.123,-5.1074,-5.1055,-5.082,-5.0664,-5.0605,-5.0215,-4.9824,-4.9414,-4.8926,-4.832,-4.7793,-4.7422,-4.6894,-4.6445,-4.6308,-4.6308,-4.6308,-4.6308,-4.6308,-4.6308,-4.6308,-4.6308,-4.6308,-4.6269,-4.6055,-4.5644,-4.498,-4.459,-4.4394,-4.4258,-4.4032,-6.0715,-6.1194,-6.2061,-6.281,-6.3348,-6.3378,-6.3977,-6.5173,-6.67,-6.8345,-6.9722,-7.0171,-7.05,-7.0829,-7.0919,-7.0919,-7.0919,-7.1188,-7.1338,-7.1966,-7.2445,-7.2864,-7.3253,-7.3702,-7.4541,-7.4484,-7.2966,-7.1281,-7.0756,-6.8279,-6.6631,-6.5874,-6.5835,-6.6036,-6.5735,-6.5484,-6.5132,-6.5157,-6.5157,-6.5032,-6.4906,-6.4906,-6.4982,-6.4831,-6.468,-6.453,-6.3927,-6.3199,-6.2421,-6.1542,-6.0788,-6.0214,-5.9837,-5.9636,-5.9508,-5.9659,-6.0236,-6.0814,-6.1165,-6.1492,-6.124,-6.0989,-6.0462,-6.0013,-5.9303,-5.692,-5.5206,-5.3232,-5.0372,-4.9187,-4.875,-4.9272,-4.9629,-5.0058,-5.041,-5.0664,-5.0664,-5.0996,-5.1094,-5.1191,-5.1152,-5.1328,-5.1445,-5.1426,-5.1328,-5.1367,-5.1387,-5.1211,-5.0957,-5.0488,-5.0078,-4.9668,-4.9121,-4.8437,-4.7949,-4.7598,-4.7051,-4.6406,-4.6308,-4.6308,-4.6308,-4.6308,-4.6308,-4.6289,-4.6289,-4.6289,-4.6289,-4.6211,-4.6016,-4.5664,-4.5156,-4.4902,-4.4844,-4.459,-4.4336,-6.1104,-6.1313,-6.254,-6.3438,-6.3917,-6.4126,-6.5263,-6.6999,-6.7747,-6.8824,-7.0051,-7.0649,-7.0859,-7.0889,-7.0919,-7.0979,-7.1098,-7.1577,-7.1936,-7.2355,-7.3133,-7.3642,-7.433,-7.5048,-7.5584,-7.4834,-7.3324,-7.1544,-7.1097,-6.8228,-6.6657,-6.6901,-6.7141,-6.7216,-6.699,-6.6614,-6.6212,-6.6162,-6.6162,-6.5986,-6.586,-6.5961,-6.586,-6.5685,-6.5459,-6.5032,-6.4379,-6.355,-6.2747,-6.1868,-6.104,-6.0622,-6.0168,-5.9814,-5.9661,-5.991,-6.0763,-6.1366,-6.1943,-6.227,-6.2144,-6.1512,-6.0193,-6.001,-5.9073,-5.7257,-5.5422,-5.3924,-5.1711,-5.0689,-4.9957,-5.0427,-5.0781,-5.1191,-5.1582,-5.1621,-5.1484,-5.1543,-5.1582,-5.1562,-5.1406,-5.1445,-5.1445,-5.1445,-5.1445,-5.1445,-5.1406,-5.1269,-5.0976,-5.0508,-5.0117,-4.9844,-4.9238,-4.8516,-4.8047,-4.7656,-4.7109,-4.6445,-4.6328,-4.6308,-4.6308,-4.6308,-4.6308,-4.6289,-4.6269,-4.623,-4.6113,-4.6055,-4.5957,-4.5566,-4.5137,-4.4941,-4.4785,-4.4375,-4.3832,-6.1104,-6.1313,-6.2989,-6.3827,-6.4186,-6.5533,-6.6759,-6.7777,-6.8884,-6.9901,-7.0649,-7.0799,-7.0889,-7.0919,-7.0919,-7.1188,-7.1517,-7.1906,-7.2595,-7.3193,-7.3821,-7.451,-7.5198,-7.5796,-7.6415,-7.566,-7.387,-7.1745,-7.1327,-6.856,-6.7041,-6.7518,-6.7844,-6.7894,-6.7794,-6.7493,-6.7367,-6.7267,-6.7241,-6.7015,-6.694,-6.7066,-6.684,-6.6564,-6.6338,-6.576,-6.4705,-6.4203,-6.335,-6.2144,-6.1768,-6.1429,-6.0914,-6.0776,-6.0788,-6.1266,-6.1692,-6.1994,-6.2446,-6.237,-6.2245,-6.1789,-6.0098,-5.8705,-5.7971,-5.6909,-5.5092,-5.3745,-5.2348,-5.0939,-5.1169,-5.1715,-5.1934,-5.2188,-5.2522,-5.2699,-5.2444,-5.1875,-5.1875,-5.1582,-5.1445,-5.1445,-5.1445,-5.1445,-5.1445,-5.1445,-5.1367,-5.125,-5.0976,-5.0488,-5.0078,-4.9805,-4.9297,-4.8555,-4.8008,-4.7578,-4.7051,-4.6562,-4.6406,-4.6308,-4.6308,-4.6308,-4.6308,-4.6191,-4.6016,-4.5918,-4.584,-4.5742,-4.5586,-4.5449,-4.5098,-4.4902,-4.4687,-4.4258,-4.4004,-6.1433,-6.2061,-6.3378,-6.4425,-6.5473,-6.7328,-6.8435,-6.8884,-6.9632,-7.032,-7.0859,-7.0889,-7.0919,-7.0979,-7.1188,-7.1517,-7.1876,-7.2595,-7.3313,-7.4031,-7.454,-7.5347,-7.6006,-7.6544,-7.7074,-7.6208,-7.4488,-7.2261,-7.1696,-6.9706,-6.7869,-6.8095,-6.8271,-6.8422,-6.8472,-6.8497,-6.8472,-6.8271,-6.807,-6.7894,-6.7844,-6.7844,-6.7568,-6.7342,-6.7166,-6.6212,-6.5208,-6.4856,-6.3802,-6.2697,-6.2446,-6.1898,-6.1486,-6.1386,-6.1407,-6.1757,-6.1943,-6.2245,-6.2647,-6.2822,-6.2697,-6.2124,-6.0577,-5.9847,-5.8047,-5.6615,-5.4981,-5.3439,-5.2011,-5.1042,-5.2168,-5.3053,-5.2995,-5.301,-5.341,-5.3806,-5.3153,-5.2286,-5.1894,-5.1543,-5.1445,-5.1445,-5.1445,-5.1445,-5.1445,-5.1445,-5.1289,-5.1055,-5.0781,-5.0371,-4.998,-4.9668,-4.918,-4.8574,-4.8066,-4.7578,-4.7129,-4.6699,-4.6387,-4.6308,-4.6308,-4.625,-4.6211,-4.5976,-4.5683,-4.5566,-4.543,-4.5293,-4.5137,-4.5,-4.4863,-4.4609,-4.4355,-4.4101,-4.3965,-6.1972,-6.3109,-6.3917,-6.5562,-6.7418,-6.9243,-7.0081,-7.0201,-7.026,-7.044,-7.0859,-7.0919,-7.0949,-7.1188,-7.1547,-7.1966,-7.2565,-7.3373,-7.4151,-7.4988,-7.5557,-7.6245,-7.6904,-7.7502,-7.7562,-7.6489,-7.4706,-7.2448,-7.1809,-6.9993,-6.8396,-6.8698,-6.9074,-6.92,-6.915,-6.9175,-6.9125,-6.9024,-6.8572,-6.8196,-6.812,-6.7995,-6.7869,-6.7769,-6.7367,-6.6689,-6.5961,-6.5183,-6.4304,-6.3576,-6.2998,-6.2358,-6.2095,-6.1783,-6.1871,-6.2002,-6.232,-6.2621,-6.3048,-6.335,-6.3344,-6.285,-6.1959,-6.0947,-5.9131,-5.6336,-5.4491,-5.4162,-5.2974,-5.2155,-5.2853,-5.3728,-5.4025,-5.3725,-5.3786,-5.3589,-5.2798,-5.2109,-5.1758,-5.1484,-5.1445,-5.1445,-5.1445,-5.1445,-5.1445,-5.1445,-5.1348,-5.1055,-5.0605,-5.0254,-4.9863,-4.9531,-4.9101,-4.8613,-4.8144,-4.7676,-4.7305,-4.6894,-4.6601,-4.6445,-4.6543,-4.6367,-4.6113,-4.5762,-4.5371,-4.5156,-4.5,-4.4805,-4.4648,-4.4609,-4.4453,-4.4199,-4.4023,-4.3984,-4.4004,-6.278,-6.3288,-6.5383,-6.7687,-6.9871,-7.047,-7.1308,-7.2116,-7.1637,-7.1218,-7.0979,-7.0949,-7.1188,-7.1607,-7.1846,-7.2355,-7.3492,-7.418,-7.4988,-7.5707,-7.6395,-7.7113,-7.7509,-7.8022,-7.7831,-7.652,-7.4677,-7.2238,-7.038,-6.9181,-6.8874,-6.92,-6.9451,-6.9451,-6.9451,-6.9451,-6.9336,-6.9311,-6.915,-6.8848,-6.8874,-6.8924,-6.8899,-6.8422,-6.7869,-6.7091,-6.6338,-6.5484,-6.4831,-6.4254,-6.4078,-6.3751,-6.3342,-6.2702,-6.2534,-6.264,-6.3023,-6.3274,-6.355,-6.3919,-6.3841,-6.2983,-6.1947,-6.1098,-5.9281,-5.6176,-5.4631,-5.473,-5.4464,-5.3782,-5.3421,-5.4261,-5.4803,-5.4423,-5.4145,-5.339,-5.2522,-5.1973,-5.1621,-5.1543,-5.1484,-5.1484,-5.1504,-5.1465,-5.1445,-5.1445,-5.1445,-5.1172,-5.0586,-5.0137,-4.9687,-4.9336,-4.9082,-4.8633,-4.8183,-4.7891,-4.7558,-4.7383,-4.7168,-4.6992,-4.6797,-4.6387,-4.5996,-4.5469,-4.5058,-4.4863,-4.459,-4.4199,-4.4101,-4.4258,-4.4375,-4.4277,-4.4336,-4.4316,-4.4297,-6.3588,-6.4665,-6.7208,-6.9303,-7.0829,-7.1547,-7.2235,-7.2744,-7.2505,-7.1966,-7.1308,-7.1098,-7.1278,-7.1936,-7.2176,-7.3073,-7.427,-7.5018,-7.5916,-7.6694,-7.7352,-7.81,-7.8482,-7.8434,-7.7792,-7.6588,-7.4033,-7.16,-6.9105,-6.8949,-6.9135,-6.9426,-6.9451,-6.9451,-6.9451,-6.9451,-6.9451,-6.9451,-6.9451,-6.9451,-6.9451,-6.9376,-6.926,-6.8848,-6.8196,-6.7467,-6.6815,-6.5986,-6.5208,-6.4831,-6.4546,-6.4379,-6.3994,-6.3711,-6.3618,-6.3676,-6.3827,-6.4028,-6.4254,-6.4453,-6.4577,-6.3725,-6.307,-6.2634,-6.1935,-5.9041,-5.6162,-5.614,-5.6072,-5.5383,-5.4681,-5.5044,-5.4862,-5.456,-5.4723,-5.4491,-5.317,-5.1894,-5.1777,-5.1836,-5.1875,-5.2012,-5.1973,-5.1797,-5.1719,-5.1445,-5.1445,-5.1113,-5.0566,-5.0215,-4.9707,-4.9297,-4.9141,-4.873,-4.8242,-4.8047,-4.791,-4.7773,-4.7695,-4.7305,-4.6933,-4.6348,-4.582,-4.5449,-4.5039,-4.4648,-4.4336,-4.4121,-4.4101,-4.4336,-4.4433,-4.4473,-4.457,-4.4726,-4.4844,-6.4575,-6.664,-6.9034,-7.053,-7.1308,-7.2475,-7.3103,-7.3193,-7.3073,-7.2714,-7.2146,-7.1547,-7.1577,-7.2056,-7.2774,-7.3881,-7.4869,-7.5677,-7.6694,-7.7741,-7.8519,-7.9118,-7.8982,-7.8477,-7.7411,-7.5483,-7.2931,-7.0931,-6.8848,-6.915,-6.926,-6.9426,-6.9451,-6.9451,-6.9451,-6.9451,-6.9451,-6.9451,-6.9451,-6.9451,-6.9451,-6.9451,-6.9311,-6.9049,-6.8522,-6.7945,-6.7317,-6.6589,-6.5634,-6.5223,-6.4963,-6.4712,-6.4571,-6.4362,-6.432,-6.4295,-6.463,-6.4731,-6.4957,-6.576,-6.5756,-6.5531,-6.486,-6.412,-6.3325,-6.1603,-5.8794,-5.7049,-5.6985,-5.6293,-5.5465,-5.5082,-5.4778,-5.458,-5.4919,-5.4996,-5.3346,-5.1973,-5.207,-5.2168,-5.2305,-5.2441,-5.2266,-5.2109,-5.1875,-5.1582,-5.125,-5.0879,-5.0547,-5.041,-5.0098,-4.9726,-4.9473,-4.8984,-4.8437,-4.834,-4.832,-4.8203,-4.8066,-4.7578,-4.7109,-4.6641,-4.6152,-4.5644,-4.5215,-4.4902,-4.4668,-4.4512,-4.4512,-4.457,-4.4609,-4.4766,-4.5078,-4.5254,-4.5508,-6.6131,-6.8585,-7.0111,-7.1427,-7.2535,-7.3373,-7.4001,-7.436,-7.3911,-7.3612,-7.3343,-7.2864,-7.2654,-7.2774,-7.3402,-7.448,-7.5796,-7.6485,-7.7442,-7.8549,-7.9417,-8.0016,-7.9558,-7.7834,-7.6222,-7.3863,-7.1506,-6.9915,-6.915,-6.9325,-6.9451,-6.9451,-6.9451,-6.9451,-6.9451,-6.9451,-6.9451,-6.9451,-6.9476,-6.9476,-6.9451,-6.9451,-6.9451,-6.915,-6.8823,-6.8271,-6.7693,-6.7066,-6.6463,-6.595,-6.5453,-6.5263,-6.5138,-6.4988,-6.4947,-6.5233,-6.5484,-6.5735,-6.6137,-6.6354,-6.6339,-6.542,-6.4701,-6.4547,-6.3804,-6.3192,-6.0234,-5.7022,-5.6374,-5.5135,-5.4411,-5.4411,-5.4188,-5.3757,-5.3847,-5.3628,-5.2797,-5.25,-5.2558,-5.2617,-5.2676,-5.2578,-5.2324,-5.2148,-5.1973,-5.1699,-5.1465,-5.1074,-5.0723,-5.0586,-5.0449,-5.0117,-4.9785,-4.9394,-4.8926,-4.8867,-4.8828,-4.8672,-4.8418,-4.791,-4.7461,-4.709,-4.6582,-4.5937,-4.5644,-4.5391,-4.5176,-4.5039,-4.5,-4.5058,-4.4961,-4.5078,-4.5449,-4.5859,-4.6172]}]]